<?xml version="1.0" encoding="UTF-8" standalone="no" ?>
<gpx xmlns="http://www.topografix.com/GPX/1/1" xmlns:xsi="http://www.w3.org/2001/XMLSchema-instance" xsi:schemaLocation="http://www.topografix.com/GPX/1/1 http://www.topografix.com/GPX/1/1/gpx.xsd" version="1.1" creator="VisuGPX - https://www.visugpx.com">
  <metadata>
    <name>secteur Saverne - Dabo - Petite Pierre</name>
  </metadata>
  <trk>
    <name><![CDATA[secteur Saverne - Dabo - Petite Pierre_37]]></name>
    <trkseg>
      <trkpt lat="48.74208" lon="7.36277">
        <ele>198.2</ele>
        <time>2020-05-26T18:26:26Z</time>
      </trkpt>
      <trkpt lat="48.74208" lon="7.36277">
        <ele>198.2</ele>
        <time>2020-05-26T18:26:26Z</time>
      </trkpt>
      <trkpt lat="48.74208" lon="7.36277">
        <ele>198.2</ele>
        <time>2020-05-26T18:26:26Z</time>
      </trkpt>
      <trkpt lat="48.74208" lon="7.36277">
        <ele>198.2</ele>
        <time>2020-05-26T18:26:26Z</time>
      </trkpt>
      <trkpt lat="48.74208" lon="7.36277">
        <ele>198.2</ele>
        <time>2020-05-26T18:26:26Z</time>
      </trkpt>
      <trkpt lat="48.74206" lon="7.3627">
        <ele>198.3</ele>
        <time>2020-05-26T18:26:24Z</time>
      </trkpt>
      <trkpt lat="48.74201" lon="7.36263">
        <ele>199.2</ele>
        <time>2020-05-26T18:26:21Z</time>
      </trkpt>
      <trkpt lat="48.74195" lon="7.36253">
        <ele>200.4</ele>
        <time>2020-05-26T18:26:19Z</time>
      </trkpt>
      <trkpt lat="48.74191" lon="7.36246">
        <ele>201</ele>
        <time>2020-05-26T18:26:16Z</time>
      </trkpt>
      <trkpt lat="48.74187" lon="7.36241">
        <ele>201.3</ele>
        <time>2020-05-26T18:26:15Z</time>
      </trkpt>
      <trkpt lat="48.74178" lon="7.36234">
        <ele>202.5</ele>
        <time>2020-05-26T18:26:13Z</time>
      </trkpt>
      <trkpt lat="48.74167" lon="7.36231">
        <ele>203.9</ele>
        <time>2020-05-26T18:26:11Z</time>
      </trkpt>
      <trkpt lat="48.74158" lon="7.36231">
        <ele>205.4</ele>
        <time>2020-05-26T18:26:09Z</time>
      </trkpt>
      <trkpt lat="48.7415" lon="7.36237">
        <ele>207</ele>
        <time>2020-05-26T18:26:07Z</time>
      </trkpt>
      <trkpt lat="48.74136" lon="7.36257">
        <ele>207.2</ele>
        <time>2020-05-26T18:26:05Z</time>
      </trkpt>
      <trkpt lat="48.74131" lon="7.36267">
        <ele>208.4</ele>
        <time>2020-05-26T18:26:02Z</time>
      </trkpt>
      <trkpt lat="48.74123" lon="7.36283">
        <ele>207.6</ele>
        <time>2020-05-26T18:26:00Z</time>
      </trkpt>
      <trkpt lat="48.7412" lon="7.3629">
        <ele>208.1</ele>
        <time>2020-05-26T18:25:59Z</time>
      </trkpt>
      <trkpt lat="48.74114" lon="7.36305">
        <ele>208.1</ele>
        <time>2020-05-26T18:25:57Z</time>
      </trkpt>
      <trkpt lat="48.74108" lon="7.36318">
        <ele>208.8</ele>
        <time>2020-05-26T18:25:55Z</time>
      </trkpt>
      <trkpt lat="48.74101" lon="7.36329">
        <ele>208.5</ele>
        <time>2020-05-26T18:25:53Z</time>
      </trkpt>
      <trkpt lat="48.74095" lon="7.36339">
        <ele>208</ele>
        <time>2020-05-26T18:25:51Z</time>
      </trkpt>
      <trkpt lat="48.7409" lon="7.36346">
        <ele>207.3</ele>
        <time>2020-05-26T18:25:49Z</time>
      </trkpt>
      <trkpt lat="48.74087" lon="7.3635">
        <ele>206.2</ele>
        <time>2020-05-26T18:25:47Z</time>
      </trkpt>
      <trkpt lat="48.74081" lon="7.3635">
        <ele>205.4</ele>
        <time>2020-05-26T18:25:45Z</time>
      </trkpt>
      <trkpt lat="48.74074" lon="7.36344">
        <ele>204.7</ele>
        <time>2020-05-26T18:25:43Z</time>
      </trkpt>
      <trkpt lat="48.74066" lon="7.36335">
        <ele>204.2</ele>
        <time>2020-05-26T18:25:41Z</time>
      </trkpt>
      <trkpt lat="48.74057" lon="7.36327">
        <ele>204.5</ele>
        <time>2020-05-26T18:25:39Z</time>
      </trkpt>
      <trkpt lat="48.74048" lon="7.36317">
        <ele>204.8</ele>
        <time>2020-05-26T18:25:37Z</time>
      </trkpt>
      <trkpt lat="48.7404" lon="7.36308">
        <ele>205.2</ele>
        <time>2020-05-26T18:25:35Z</time>
      </trkpt>
      <trkpt lat="48.74033" lon="7.36299">
        <ele>205.7</ele>
        <time>2020-05-26T18:25:33Z</time>
      </trkpt>
      <trkpt lat="48.74024" lon="7.3629">
        <ele>205.6</ele>
        <time>2020-05-26T18:25:31Z</time>
      </trkpt>
      <trkpt lat="48.74015" lon="7.36281">
        <ele>205.7</ele>
        <time>2020-05-26T18:25:29Z</time>
      </trkpt>
      <trkpt lat="48.74006" lon="7.36274">
        <ele>209.2</ele>
        <time>2020-05-26T18:25:27Z</time>
      </trkpt>
      <trkpt lat="48.73997" lon="7.36268">
        <ele>209.5</ele>
        <time>2020-05-26T18:25:25Z</time>
      </trkpt>
      <trkpt lat="48.73988" lon="7.36261">
        <ele>209.8</ele>
        <time>2020-05-26T18:25:23Z</time>
      </trkpt>
      <trkpt lat="48.73981" lon="7.36254">
        <ele>210.1</ele>
        <time>2020-05-26T18:25:21Z</time>
      </trkpt>
      <trkpt lat="48.73973" lon="7.36247">
        <ele>210.2</ele>
        <time>2020-05-26T18:25:19Z</time>
      </trkpt>
      <trkpt lat="48.73966" lon="7.36234">
        <ele>210</ele>
        <time>2020-05-26T18:25:17Z</time>
      </trkpt>
      <trkpt lat="48.73963" lon="7.36226">
        <ele>209.7</ele>
        <time>2020-05-26T18:25:13Z</time>
      </trkpt>
      <trkpt lat="48.73958" lon="7.3622">
        <ele>208.7</ele>
        <time>2020-05-26T18:25:11Z</time>
      </trkpt>
      <trkpt lat="48.73952" lon="7.36215">
        <ele>208.3</ele>
        <time>2020-05-26T18:25:09Z</time>
      </trkpt>
      <trkpt lat="48.73946" lon="7.36206">
        <ele>208</ele>
        <time>2020-05-26T18:25:07Z</time>
      </trkpt>
      <trkpt lat="48.73942" lon="7.36192">
        <ele>208.1</ele>
        <time>2020-05-26T18:25:05Z</time>
      </trkpt>
      <trkpt lat="48.73941" lon="7.36175">
        <ele>208.2</ele>
        <time>2020-05-26T18:25:03Z</time>
      </trkpt>
      <trkpt lat="48.7394" lon="7.36159">
        <ele>208.4</ele>
        <time>2020-05-26T18:25:01Z</time>
      </trkpt>
      <trkpt lat="48.73937" lon="7.36142">
        <ele>209.1</ele>
        <time>2020-05-26T18:24:59Z</time>
      </trkpt>
      <trkpt lat="48.73934" lon="7.36126">
        <ele>209.9</ele>
        <time>2020-05-26T18:24:57Z</time>
      </trkpt>
      <trkpt lat="48.73933" lon="7.36111">
        <ele>210.4</ele>
        <time>2020-05-26T18:24:55Z</time>
      </trkpt>
      <trkpt lat="48.73932" lon="7.36097">
        <ele>211.5</ele>
        <time>2020-05-26T18:24:53Z</time>
      </trkpt>
      <trkpt lat="48.73932" lon="7.36086">
        <ele>212</ele>
        <time>2020-05-26T18:24:51Z</time>
      </trkpt>
      <trkpt lat="48.7393" lon="7.36078">
        <ele>212.9</ele>
        <time>2020-05-26T18:24:49Z</time>
      </trkpt>
      <trkpt lat="48.73924" lon="7.36068">
        <ele>214.6</ele>
        <time>2020-05-26T18:24:47Z</time>
      </trkpt>
      <trkpt lat="48.73913" lon="7.36055">
        <ele>215.7</ele>
        <time>2020-05-26T18:24:45Z</time>
      </trkpt>
      <trkpt lat="48.73899" lon="7.3604">
        <ele>216.6</ele>
        <time>2020-05-26T18:24:43Z</time>
      </trkpt>
      <trkpt lat="48.73884" lon="7.36024">
        <ele>217.6</ele>
        <time>2020-05-26T18:24:41Z</time>
      </trkpt>
      <trkpt lat="48.7387" lon="7.36006">
        <ele>218.6</ele>
        <time>2020-05-26T18:24:39Z</time>
      </trkpt>
      <trkpt lat="48.73855" lon="7.3599">
        <ele>219.2</ele>
        <time>2020-05-26T18:24:37Z</time>
      </trkpt>
      <trkpt lat="48.73841" lon="7.35972">
        <ele>220.2</ele>
        <time>2020-05-26T18:24:35Z</time>
      </trkpt>
      <trkpt lat="48.73829" lon="7.35956">
        <ele>221.5</ele>
        <time>2020-05-26T18:24:33Z</time>
      </trkpt>
      <trkpt lat="48.73806" lon="7.35918">
        <ele>224.6</ele>
        <time>2020-05-26T18:24:31Z</time>
      </trkpt>
      <trkpt lat="48.73794" lon="7.35892">
        <ele>226.4</ele>
        <time>2020-05-26T18:24:27Z</time>
      </trkpt>
      <trkpt lat="48.73787" lon="7.3587">
        <ele>227.3</ele>
        <time>2020-05-26T18:24:25Z</time>
      </trkpt>
      <trkpt lat="48.73781" lon="7.35847">
        <ele>228.4</ele>
        <time>2020-05-26T18:24:23Z</time>
      </trkpt>
      <trkpt lat="48.73777" lon="7.35823">
        <ele>229</ele>
        <time>2020-05-26T18:24:21Z</time>
      </trkpt>
      <trkpt lat="48.73772" lon="7.35801">
        <ele>230</ele>
        <time>2020-05-26T18:24:19Z</time>
      </trkpt>
      <trkpt lat="48.73763" lon="7.35783">
        <ele>230.8</ele>
        <time>2020-05-26T18:24:17Z</time>
      </trkpt>
      <trkpt lat="48.7375" lon="7.35775">
        <ele>231.5</ele>
        <time>2020-05-26T18:24:15Z</time>
      </trkpt>
      <trkpt lat="48.73736" lon="7.35776">
        <ele>232.8</ele>
        <time>2020-05-26T18:24:13Z</time>
      </trkpt>
      <trkpt lat="48.73722" lon="7.35785">
        <ele>234.3</ele>
        <time>2020-05-26T18:24:11Z</time>
      </trkpt>
      <trkpt lat="48.73708" lon="7.358">
        <ele>235.4</ele>
        <time>2020-05-26T18:24:09Z</time>
      </trkpt>
      <trkpt lat="48.73695" lon="7.35816">
        <ele>236.6</ele>
        <time>2020-05-26T18:24:07Z</time>
      </trkpt>
      <trkpt lat="48.73681" lon="7.35831">
        <ele>238</ele>
        <time>2020-05-26T18:24:05Z</time>
      </trkpt>
      <trkpt lat="48.73666" lon="7.35845">
        <ele>239.2</ele>
        <time>2020-05-26T18:24:03Z</time>
      </trkpt>
      <trkpt lat="48.73651" lon="7.35856">
        <ele>240.7</ele>
        <time>2020-05-26T18:24:01Z</time>
      </trkpt>
      <trkpt lat="48.73634" lon="7.35862">
        <ele>241.7</ele>
        <time>2020-05-26T18:23:59Z</time>
      </trkpt>
      <trkpt lat="48.73617" lon="7.35865">
        <ele>242.6</ele>
        <time>2020-05-26T18:23:57Z</time>
      </trkpt>
      <trkpt lat="48.73601" lon="7.35863">
        <ele>244</ele>
        <time>2020-05-26T18:23:55Z</time>
      </trkpt>
      <trkpt lat="48.73586" lon="7.35854">
        <ele>244.6</ele>
        <time>2020-05-26T18:23:53Z</time>
      </trkpt>
      <trkpt lat="48.73574" lon="7.35841">
        <ele>245</ele>
        <time>2020-05-26T18:23:51Z</time>
      </trkpt>
      <trkpt lat="48.73562" lon="7.35827">
        <ele>245.1</ele>
        <time>2020-05-26T18:23:49Z</time>
      </trkpt>
      <trkpt lat="48.73551" lon="7.35811">
        <ele>245.4</ele>
        <time>2020-05-26T18:23:47Z</time>
      </trkpt>
      <trkpt lat="48.7354" lon="7.35794">
        <ele>246.3</ele>
        <time>2020-05-26T18:23:45Z</time>
      </trkpt>
      <trkpt lat="48.7353" lon="7.35778">
        <ele>246.7</ele>
        <time>2020-05-26T18:23:43Z</time>
      </trkpt>
      <trkpt lat="48.73521" lon="7.35761">
        <ele>246.7</ele>
        <time>2020-05-26T18:23:41Z</time>
      </trkpt>
      <trkpt lat="48.73512" lon="7.35743">
        <ele>246.9</ele>
        <time>2020-05-26T18:23:39Z</time>
      </trkpt>
      <trkpt lat="48.73505" lon="7.35725">
        <ele>246.9</ele>
        <time>2020-05-26T18:23:37Z</time>
      </trkpt>
      <trkpt lat="48.73499" lon="7.35707">
        <ele>247.1</ele>
        <time>2020-05-26T18:23:35Z</time>
      </trkpt>
      <trkpt lat="48.73492" lon="7.35688">
        <ele>246.9</ele>
        <time>2020-05-26T18:23:33Z</time>
      </trkpt>
      <trkpt lat="48.73485" lon="7.3567">
        <ele>247.4</ele>
        <time>2020-05-26T18:23:31Z</time>
      </trkpt>
      <trkpt lat="48.73478" lon="7.35651">
        <ele>248.1</ele>
        <time>2020-05-26T18:23:29Z</time>
      </trkpt>
      <trkpt lat="48.73472" lon="7.35632">
        <ele>249</ele>
        <time>2020-05-26T18:23:27Z</time>
      </trkpt>
      <trkpt lat="48.73466" lon="7.35613">
        <ele>249.5</ele>
        <time>2020-05-26T18:23:25Z</time>
      </trkpt>
      <trkpt lat="48.73458" lon="7.35594">
        <ele>249.8</ele>
        <time>2020-05-26T18:23:23Z</time>
      </trkpt>
      <trkpt lat="48.73452" lon="7.35574">
        <ele>250.2</ele>
        <time>2020-05-26T18:23:21Z</time>
      </trkpt>
      <trkpt lat="48.73446" lon="7.35556">
        <ele>250.3</ele>
        <time>2020-05-26T18:23:19Z</time>
      </trkpt>
      <trkpt lat="48.7344" lon="7.35537">
        <ele>250.5</ele>
        <time>2020-05-26T18:23:17Z</time>
      </trkpt>
      <trkpt lat="48.73434" lon="7.35519">
        <ele>250.2</ele>
        <time>2020-05-26T18:23:15Z</time>
      </trkpt>
      <trkpt lat="48.73428" lon="7.355">
        <ele>250.3</ele>
        <time>2020-05-26T18:23:13Z</time>
      </trkpt>
      <trkpt lat="48.73422" lon="7.35481">
        <ele>250.6</ele>
        <time>2020-05-26T18:23:11Z</time>
      </trkpt>
      <trkpt lat="48.73416" lon="7.35461">
        <ele>250.9</ele>
        <time>2020-05-26T18:23:09Z</time>
      </trkpt>
      <trkpt lat="48.7341" lon="7.35441">
        <ele>251.1</ele>
        <time>2020-05-26T18:23:07Z</time>
      </trkpt>
      <trkpt lat="48.73403" lon="7.35421">
        <ele>251.1</ele>
        <time>2020-05-26T18:23:05Z</time>
      </trkpt>
      <trkpt lat="48.73397" lon="7.35401">
        <ele>251.3</ele>
        <time>2020-05-26T18:23:03Z</time>
      </trkpt>
      <trkpt lat="48.73392" lon="7.3538">
        <ele>251.3</ele>
        <time>2020-05-26T18:23:01Z</time>
      </trkpt>
      <trkpt lat="48.73387" lon="7.3536">
        <ele>251.6</ele>
        <time>2020-05-26T18:22:59Z</time>
      </trkpt>
      <trkpt lat="48.73382" lon="7.35338">
        <ele>252</ele>
        <time>2020-05-26T18:22:57Z</time>
      </trkpt>
      <trkpt lat="48.73378" lon="7.35315">
        <ele>252.7</ele>
        <time>2020-05-26T18:22:55Z</time>
      </trkpt>
      <trkpt lat="48.73373" lon="7.35292">
        <ele>253.6</ele>
        <time>2020-05-26T18:22:53Z</time>
      </trkpt>
      <trkpt lat="48.7337" lon="7.35267">
        <ele>254.7</ele>
        <time>2020-05-26T18:22:51Z</time>
      </trkpt>
      <trkpt lat="48.73368" lon="7.35241">
        <ele>255.7</ele>
        <time>2020-05-26T18:22:49Z</time>
      </trkpt>
      <trkpt lat="48.73367" lon="7.35215">
        <ele>257.4</ele>
        <time>2020-05-26T18:22:47Z</time>
      </trkpt>
      <trkpt lat="48.73367" lon="7.35187">
        <ele>258.9</ele>
        <time>2020-05-26T18:22:45Z</time>
      </trkpt>
      <trkpt lat="48.73367" lon="7.35157">
        <ele>260.4</ele>
        <time>2020-05-26T18:22:43Z</time>
      </trkpt>
      <trkpt lat="48.73366" lon="7.35125">
        <ele>261.9</ele>
        <time>2020-05-26T18:22:41Z</time>
      </trkpt>
      <trkpt lat="48.73365" lon="7.35092">
        <ele>263.6</ele>
        <time>2020-05-26T18:22:39Z</time>
      </trkpt>
      <trkpt lat="48.73365" lon="7.35059">
        <ele>265.6</ele>
        <time>2020-05-26T18:22:37Z</time>
      </trkpt>
      <trkpt lat="48.73366" lon="7.35028">
        <ele>267.9</ele>
        <time>2020-05-26T18:22:35Z</time>
      </trkpt>
      <trkpt lat="48.73368" lon="7.34996">
        <ele>269.8</ele>
        <time>2020-05-26T18:22:33Z</time>
      </trkpt>
      <trkpt lat="48.7337" lon="7.34967">
        <ele>271.2</ele>
        <time>2020-05-26T18:22:31Z</time>
      </trkpt>
      <trkpt lat="48.73376" lon="7.3494">
        <ele>272.9</ele>
        <time>2020-05-26T18:22:29Z</time>
      </trkpt>
      <trkpt lat="48.73384" lon="7.34917">
        <ele>274.3</ele>
        <time>2020-05-26T18:22:27Z</time>
      </trkpt>
      <trkpt lat="48.7339" lon="7.34896">
        <ele>275.6</ele>
        <time>2020-05-26T18:22:25Z</time>
      </trkpt>
      <trkpt lat="48.73395" lon="7.34874">
        <ele>276.8</ele>
        <time>2020-05-26T18:22:23Z</time>
      </trkpt>
      <trkpt lat="48.73395" lon="7.34853">
        <ele>277.3</ele>
        <time>2020-05-26T18:22:21Z</time>
      </trkpt>
      <trkpt lat="48.73391" lon="7.34834">
        <ele>277.1</ele>
        <time>2020-05-26T18:22:19Z</time>
      </trkpt>
      <trkpt lat="48.73384" lon="7.34819">
        <ele>277</ele>
        <time>2020-05-26T18:22:17Z</time>
      </trkpt>
      <trkpt lat="48.73374" lon="7.34806">
        <ele>276.6</ele>
        <time>2020-05-26T18:22:15Z</time>
      </trkpt>
      <trkpt lat="48.73364" lon="7.34797">
        <ele>276.8</ele>
        <time>2020-05-26T18:22:13Z</time>
      </trkpt>
      <trkpt lat="48.73356" lon="7.34792">
        <ele>276.7</ele>
        <time>2020-05-26T18:22:11Z</time>
      </trkpt>
      <trkpt lat="48.73348" lon="7.34789">
        <ele>276.6</ele>
        <time>2020-05-26T18:22:09Z</time>
      </trkpt>
      <trkpt lat="48.73342" lon="7.34786">
        <ele>289.2</ele>
        <time>2020-05-26T18:22:07Z</time>
      </trkpt>
      <trkpt lat="48.73334" lon="7.34781">
        <ele>289.1</ele>
        <time>2020-05-26T18:22:05Z</time>
      </trkpt>
      <trkpt lat="48.73324" lon="7.3477">
        <ele>289.5</ele>
        <time>2020-05-26T18:22:03Z</time>
      </trkpt>
      <trkpt lat="48.73315" lon="7.34757">
        <ele>290.5</ele>
        <time>2020-05-26T18:22:01Z</time>
      </trkpt>
      <trkpt lat="48.73306" lon="7.34746">
        <ele>292.1</ele>
        <time>2020-05-26T18:21:59Z</time>
      </trkpt>
      <trkpt lat="48.73298" lon="7.34735">
        <ele>293.3</ele>
        <time>2020-05-26T18:21:57Z</time>
      </trkpt>
      <trkpt lat="48.73293" lon="7.34727">
        <ele>294.8</ele>
        <time>2020-05-26T18:21:55Z</time>
      </trkpt>
      <trkpt lat="48.73287" lon="7.34719">
        <ele>296.1</ele>
        <time>2020-05-26T18:21:53Z</time>
      </trkpt>
      <trkpt lat="48.73281" lon="7.34716">
        <ele>297.5</ele>
        <time>2020-05-26T18:21:51Z</time>
      </trkpt>
      <trkpt lat="48.73273" lon="7.3471">
        <ele>299.3</ele>
        <time>2020-05-26T18:21:49Z</time>
      </trkpt>
      <trkpt lat="48.73267" lon="7.34703">
        <ele>301</ele>
        <time>2020-05-26T18:21:47Z</time>
      </trkpt>
      <trkpt lat="48.73259" lon="7.34695">
        <ele>303.3</ele>
        <time>2020-05-26T18:21:45Z</time>
      </trkpt>
      <trkpt lat="48.73247" lon="7.34687">
        <ele>304.7</ele>
        <time>2020-05-26T18:21:43Z</time>
      </trkpt>
      <trkpt lat="48.73236" lon="7.34682">
        <ele>306.5</ele>
        <time>2020-05-26T18:21:41Z</time>
      </trkpt>
      <trkpt lat="48.73226" lon="7.34675">
        <ele>308.1</ele>
        <time>2020-05-26T18:21:39Z</time>
      </trkpt>
      <trkpt lat="48.73217" lon="7.34664">
        <ele>309.1</ele>
        <time>2020-05-26T18:21:37Z</time>
      </trkpt>
      <trkpt lat="48.73208" lon="7.34656">
        <ele>311</ele>
        <time>2020-05-26T18:21:35Z</time>
      </trkpt>
      <trkpt lat="48.73202" lon="7.34648">
        <ele>312.9</ele>
        <time>2020-05-26T18:21:33Z</time>
      </trkpt>
      <trkpt lat="48.73197" lon="7.34641">
        <ele>314.9</ele>
        <time>2020-05-26T18:21:31Z</time>
      </trkpt>
      <trkpt lat="48.73192" lon="7.34633">
        <ele>315.6</ele>
        <time>2020-05-26T18:21:29Z</time>
      </trkpt>
      <trkpt lat="48.73187" lon="7.34627">
        <ele>315.7</ele>
        <time>2020-05-26T18:21:27Z</time>
      </trkpt>
      <trkpt lat="48.7318" lon="7.34623">
        <ele>316.3</ele>
        <time>2020-05-26T18:21:25Z</time>
      </trkpt>
      <trkpt lat="48.73169" lon="7.34621">
        <ele>316.6</ele>
        <time>2020-05-26T18:21:23Z</time>
      </trkpt>
      <trkpt lat="48.73158" lon="7.34616">
        <ele>316.3</ele>
        <time>2020-05-26T18:21:21Z</time>
      </trkpt>
      <trkpt lat="48.73147" lon="7.34609">
        <ele>316.3</ele>
        <time>2020-05-26T18:21:19Z</time>
      </trkpt>
      <trkpt lat="48.73138" lon="7.34604">
        <ele>315.5</ele>
        <time>2020-05-26T18:21:17Z</time>
      </trkpt>
      <trkpt lat="48.73131" lon="7.34599">
        <ele>314.4</ele>
        <time>2020-05-26T18:21:15Z</time>
      </trkpt>
      <trkpt lat="48.73124" lon="7.34593">
        <ele>312.4</ele>
        <time>2020-05-26T18:21:13Z</time>
      </trkpt>
      <trkpt lat="48.73118" lon="7.34587">
        <ele>310.9</ele>
        <time>2020-05-26T18:21:11Z</time>
      </trkpt>
      <trkpt lat="48.73111" lon="7.34581">
        <ele>310.5</ele>
        <time>2020-05-26T18:21:09Z</time>
      </trkpt>
      <trkpt lat="48.73105" lon="7.34576">
        <ele>309.4</ele>
        <time>2020-05-26T18:21:07Z</time>
      </trkpt>
      <trkpt lat="48.73099" lon="7.34569">
        <ele>307.3</ele>
        <time>2020-05-26T18:21:05Z</time>
      </trkpt>
      <trkpt lat="48.73091" lon="7.34559">
        <ele>309.2</ele>
        <time>2020-05-26T18:21:03Z</time>
      </trkpt>
      <trkpt lat="48.73081" lon="7.34548">
        <ele>309.6</ele>
        <time>2020-05-26T18:21:01Z</time>
      </trkpt>
      <trkpt lat="48.73068" lon="7.34534">
        <ele>334.1</ele>
        <time>2020-05-26T18:20:59Z</time>
      </trkpt>
      <trkpt lat="48.73059" lon="7.3452">
        <ele>335.1</ele>
        <time>2020-05-26T18:20:57Z</time>
      </trkpt>
      <trkpt lat="48.73052" lon="7.34505">
        <ele>336.3</ele>
        <time>2020-05-26T18:20:55Z</time>
      </trkpt>
      <trkpt lat="48.73046" lon="7.34494">
        <ele>337.7</ele>
        <time>2020-05-26T18:20:53Z</time>
      </trkpt>
      <trkpt lat="48.73037" lon="7.34483">
        <ele>337.2</ele>
        <time>2020-05-26T18:20:51Z</time>
      </trkpt>
      <trkpt lat="48.73031" lon="7.34477">
        <ele>337.4</ele>
        <time>2020-05-26T18:20:49Z</time>
      </trkpt>
      <trkpt lat="48.73025" lon="7.34472">
        <ele>336.3</ele>
        <time>2020-05-26T18:20:47Z</time>
      </trkpt>
      <trkpt lat="48.73019" lon="7.34467">
        <ele>336</ele>
        <time>2020-05-26T18:20:45Z</time>
      </trkpt>
      <trkpt lat="48.73012" lon="7.3446">
        <ele>335.8</ele>
        <time>2020-05-26T18:20:43Z</time>
      </trkpt>
      <trkpt lat="48.73004" lon="7.34452">
        <ele>335.5</ele>
        <time>2020-05-26T18:20:41Z</time>
      </trkpt>
      <trkpt lat="48.72994" lon="7.34448">
        <ele>336.1</ele>
        <time>2020-05-26T18:20:39Z</time>
      </trkpt>
      <trkpt lat="48.72984" lon="7.34448">
        <ele>336.5</ele>
        <time>2020-05-26T18:20:37Z</time>
      </trkpt>
      <trkpt lat="48.72973" lon="7.34451">
        <ele>336.2</ele>
        <time>2020-05-26T18:20:35Z</time>
      </trkpt>
      <trkpt lat="48.72965" lon="7.34453">
        <ele>337.1</ele>
        <time>2020-05-26T18:20:33Z</time>
      </trkpt>
      <trkpt lat="48.72958" lon="7.34453">
        <ele>337.5</ele>
        <time>2020-05-26T18:20:31Z</time>
      </trkpt>
      <trkpt lat="48.7295" lon="7.34452">
        <ele>341.2</ele>
        <time>2020-05-26T18:20:29Z</time>
      </trkpt>
      <trkpt lat="48.7294" lon="7.34446">
        <ele>344.4</ele>
        <time>2020-05-26T18:20:27Z</time>
      </trkpt>
      <trkpt lat="48.72931" lon="7.34439">
        <ele>361.8</ele>
        <time>2020-05-26T18:20:25Z</time>
      </trkpt>
      <trkpt lat="48.72921" lon="7.34429">
        <ele>365.1</ele>
        <time>2020-05-26T18:20:23Z</time>
      </trkpt>
      <trkpt lat="48.72907" lon="7.34419">
        <ele>368.3</ele>
        <time>2020-05-26T18:20:21Z</time>
      </trkpt>
      <trkpt lat="48.72895" lon="7.3441">
        <ele>371.8</ele>
        <time>2020-05-26T18:20:19Z</time>
      </trkpt>
      <trkpt lat="48.72882" lon="7.34401">
        <ele>374.4</ele>
        <time>2020-05-26T18:20:17Z</time>
      </trkpt>
      <trkpt lat="48.72869" lon="7.34396">
        <ele>377.1</ele>
        <time>2020-05-26T18:20:15Z</time>
      </trkpt>
      <trkpt lat="48.72858" lon="7.34388">
        <ele>380.1</ele>
        <time>2020-05-26T18:20:13Z</time>
      </trkpt>
      <trkpt lat="48.72846" lon="7.34377">
        <ele>381.6</ele>
        <time>2020-05-26T18:20:11Z</time>
      </trkpt>
      <trkpt lat="48.72832" lon="7.34365">
        <ele>374.5</ele>
        <time>2020-05-26T18:20:09Z</time>
      </trkpt>
      <trkpt lat="48.72819" lon="7.34355">
        <ele>375.9</ele>
        <time>2020-05-26T18:20:07Z</time>
      </trkpt>
      <trkpt lat="48.72807" lon="7.34346">
        <ele>377.5</ele>
        <time>2020-05-26T18:20:05Z</time>
      </trkpt>
      <trkpt lat="48.72795" lon="7.34338">
        <ele>379.8</ele>
        <time>2020-05-26T18:20:03Z</time>
      </trkpt>
      <trkpt lat="48.72785" lon="7.34329">
        <ele>381.6</ele>
        <time>2020-05-26T18:20:01Z</time>
      </trkpt>
      <trkpt lat="48.72776" lon="7.34321">
        <ele>383.5</ele>
        <time>2020-05-26T18:19:59Z</time>
      </trkpt>
      <trkpt lat="48.72769" lon="7.3431">
        <ele>384.7</ele>
        <time>2020-05-26T18:19:57Z</time>
      </trkpt>
      <trkpt lat="48.72763" lon="7.34301">
        <ele>387.5</ele>
        <time>2020-05-26T18:19:55Z</time>
      </trkpt>
      <trkpt lat="48.72757" lon="7.3429">
        <ele>388.9</ele>
        <time>2020-05-26T18:19:53Z</time>
      </trkpt>
      <trkpt lat="48.72752" lon="7.34278">
        <ele>390.6</ele>
        <time>2020-05-26T18:19:51Z</time>
      </trkpt>
      <trkpt lat="48.72745" lon="7.34266">
        <ele>392.1</ele>
        <time>2020-05-26T18:19:49Z</time>
      </trkpt>
      <trkpt lat="48.72738" lon="7.34255">
        <ele>392.4</ele>
        <time>2020-05-26T18:19:47Z</time>
      </trkpt>
      <trkpt lat="48.72732" lon="7.34248">
        <ele>393.7</ele>
        <time>2020-05-26T18:19:45Z</time>
      </trkpt>
      <trkpt lat="48.72726" lon="7.34239">
        <ele>394.2</ele>
        <time>2020-05-26T18:19:43Z</time>
      </trkpt>
      <trkpt lat="48.72717" lon="7.34225">
        <ele>395.2</ele>
        <time>2020-05-26T18:19:41Z</time>
      </trkpt>
      <trkpt lat="48.72708" lon="7.34211">
        <ele>396.9</ele>
        <time>2020-05-26T18:19:39Z</time>
      </trkpt>
      <trkpt lat="48.727" lon="7.34198">
        <ele>399.6</ele>
        <time>2020-05-26T18:19:37Z</time>
      </trkpt>
      <trkpt lat="48.72692" lon="7.34184">
        <ele>401.6</ele>
        <time>2020-05-26T18:19:35Z</time>
      </trkpt>
      <trkpt lat="48.72686" lon="7.34172">
        <ele>404.2</ele>
        <time>2020-05-26T18:19:33Z</time>
      </trkpt>
      <trkpt lat="48.72681" lon="7.34156">
        <ele>405.5</ele>
        <time>2020-05-26T18:19:31Z</time>
      </trkpt>
      <trkpt lat="48.72677" lon="7.34141">
        <ele>407.3</ele>
        <time>2020-05-26T18:19:29Z</time>
      </trkpt>
      <trkpt lat="48.72673" lon="7.34128">
        <ele>408.5</ele>
        <time>2020-05-26T18:19:27Z</time>
      </trkpt>
      <trkpt lat="48.72671" lon="7.34117">
        <ele>409.2</ele>
        <time>2020-05-26T18:19:25Z</time>
      </trkpt>
      <trkpt lat="48.7267" lon="7.34106">
        <ele>410.5</ele>
        <time>2020-05-26T18:19:23Z</time>
      </trkpt>
      <trkpt lat="48.72664" lon="7.34093">
        <ele>411.7</ele>
        <time>2020-05-26T18:19:21Z</time>
      </trkpt>
      <trkpt lat="48.72656" lon="7.3408">
        <ele>412.7</ele>
        <time>2020-05-26T18:19:19Z</time>
      </trkpt>
      <trkpt lat="48.72647" lon="7.34069">
        <ele>414.5</ele>
        <time>2020-05-26T18:19:17Z</time>
      </trkpt>
      <trkpt lat="48.72638" lon="7.34059">
        <ele>415.9</ele>
        <time>2020-05-26T18:19:15Z</time>
      </trkpt>
      <trkpt lat="48.72628" lon="7.34049">
        <ele>416.6</ele>
        <time>2020-05-26T18:19:13Z</time>
      </trkpt>
      <trkpt lat="48.72618" lon="7.34038">
        <ele>417.6</ele>
        <time>2020-05-26T18:19:11Z</time>
      </trkpt>
      <trkpt lat="48.72608" lon="7.34026">
        <ele>418.6</ele>
        <time>2020-05-26T18:19:09Z</time>
      </trkpt>
      <trkpt lat="48.72597" lon="7.34012">
        <ele>418.5</ele>
        <time>2020-05-26T18:19:07Z</time>
      </trkpt>
      <trkpt lat="48.72587" lon="7.34">
        <ele>418.9</ele>
        <time>2020-05-26T18:19:05Z</time>
      </trkpt>
      <trkpt lat="48.72577" lon="7.33987">
        <ele>420</ele>
        <time>2020-05-26T18:19:03Z</time>
      </trkpt>
      <trkpt lat="48.72567" lon="7.33976">
        <ele>421.1</ele>
        <time>2020-05-26T18:19:01Z</time>
      </trkpt>
      <trkpt lat="48.72556" lon="7.33967">
        <ele>422.8</ele>
        <time>2020-05-26T18:18:59Z</time>
      </trkpt>
      <trkpt lat="48.72546" lon="7.33955">
        <ele>423.5</ele>
        <time>2020-05-26T18:18:57Z</time>
      </trkpt>
      <trkpt lat="48.72536" lon="7.33942">
        <ele>424.2</ele>
        <time>2020-05-26T18:18:55Z</time>
      </trkpt>
      <trkpt lat="48.72527" lon="7.3393">
        <ele>425.2</ele>
        <time>2020-05-26T18:18:53Z</time>
      </trkpt>
      <trkpt lat="48.72519" lon="7.33918">
        <ele>426.1</ele>
        <time>2020-05-26T18:18:51Z</time>
      </trkpt>
      <trkpt lat="48.72509" lon="7.33906">
        <ele>426.5</ele>
        <time>2020-05-26T18:18:49Z</time>
      </trkpt>
      <trkpt lat="48.725" lon="7.33894">
        <ele>427.8</ele>
        <time>2020-05-26T18:18:47Z</time>
      </trkpt>
      <trkpt lat="48.72491" lon="7.33883">
        <ele>428.2</ele>
        <time>2020-05-26T18:18:45Z</time>
      </trkpt>
      <trkpt lat="48.72481" lon="7.33873">
        <ele>429.2</ele>
        <time>2020-05-26T18:18:43Z</time>
      </trkpt>
      <trkpt lat="48.72472" lon="7.33863">
        <ele>430.4</ele>
        <time>2020-05-26T18:18:41Z</time>
      </trkpt>
      <trkpt lat="48.72464" lon="7.33853">
        <ele>431.7</ele>
        <time>2020-05-26T18:18:39Z</time>
      </trkpt>
      <trkpt lat="48.72456" lon="7.33847">
        <ele>432.8</ele>
        <time>2020-05-26T18:18:37Z</time>
      </trkpt>
      <trkpt lat="48.72447" lon="7.33838">
        <ele>432.6</ele>
        <time>2020-05-26T18:18:35Z</time>
      </trkpt>
      <trkpt lat="48.72439" lon="7.33831">
        <ele>433</ele>
        <time>2020-05-26T18:18:33Z</time>
      </trkpt>
      <trkpt lat="48.72431" lon="7.33821">
        <ele>432.7</ele>
        <time>2020-05-26T18:18:31Z</time>
      </trkpt>
      <trkpt lat="48.72424" lon="7.3381">
        <ele>433.6</ele>
        <time>2020-05-26T18:18:29Z</time>
      </trkpt>
      <trkpt lat="48.72416" lon="7.33803">
        <ele>433.7</ele>
        <time>2020-05-26T18:18:27Z</time>
      </trkpt>
      <trkpt lat="48.72408" lon="7.33793">
        <ele>433.3</ele>
        <time>2020-05-26T18:18:25Z</time>
      </trkpt>
      <trkpt lat="48.724" lon="7.33785">
        <ele>433.1</ele>
        <time>2020-05-26T18:18:23Z</time>
      </trkpt>
      <trkpt lat="48.72393" lon="7.33776">
        <ele>433.8</ele>
        <time>2020-05-26T18:18:21Z</time>
      </trkpt>
      <trkpt lat="48.72386" lon="7.33767">
        <ele>434.1</ele>
        <time>2020-05-26T18:18:19Z</time>
      </trkpt>
      <trkpt lat="48.72379" lon="7.33758">
        <ele>434.4</ele>
        <time>2020-05-26T18:18:17Z</time>
      </trkpt>
      <trkpt lat="48.72371" lon="7.33746">
        <ele>434.6</ele>
        <time>2020-05-26T18:18:15Z</time>
      </trkpt>
      <trkpt lat="48.72364" lon="7.33734">
        <ele>434.5</ele>
        <time>2020-05-26T18:18:13Z</time>
      </trkpt>
      <trkpt lat="48.72357" lon="7.33721">
        <ele>434</ele>
        <time>2020-05-26T18:18:11Z</time>
      </trkpt>
      <trkpt lat="48.7235" lon="7.33709">
        <ele>433.8</ele>
        <time>2020-05-26T18:18:09Z</time>
      </trkpt>
      <trkpt lat="48.72342" lon="7.33698">
        <ele>433.3</ele>
        <time>2020-05-26T18:18:07Z</time>
      </trkpt>
      <trkpt lat="48.72337" lon="7.33689">
        <ele>433.8</ele>
        <time>2020-05-26T18:18:05Z</time>
      </trkpt>
      <trkpt lat="48.7233" lon="7.3368">
        <ele>434.1</ele>
        <time>2020-05-26T18:18:03Z</time>
      </trkpt>
      <trkpt lat="48.72324" lon="7.33673">
        <ele>434.2</ele>
        <time>2020-05-26T18:18:01Z</time>
      </trkpt>
      <trkpt lat="48.72316" lon="7.33667">
        <ele>434</ele>
        <time>2020-05-26T18:17:59Z</time>
      </trkpt>
      <trkpt lat="48.7231" lon="7.33664">
        <ele>433.8</ele>
        <time>2020-05-26T18:17:57Z</time>
      </trkpt>
      <trkpt lat="48.72304" lon="7.33661">
        <ele>433.6</ele>
        <time>2020-05-26T18:17:55Z</time>
      </trkpt>
      <trkpt lat="48.72299" lon="7.33659">
        <ele>432.8</ele>
        <time>2020-05-26T18:17:53Z</time>
      </trkpt>
      <trkpt lat="48.72294" lon="7.33657">
        <ele>432.5</ele>
        <time>2020-05-26T18:17:51Z</time>
      </trkpt>
      <trkpt lat="48.72287" lon="7.33652">
        <ele>432.1</ele>
        <time>2020-05-26T18:17:49Z</time>
      </trkpt>
      <trkpt lat="48.72281" lon="7.33649">
        <ele>431.4</ele>
        <time>2020-05-26T18:17:47Z</time>
      </trkpt>
      <trkpt lat="48.72275" lon="7.33646">
        <ele>432.2</ele>
        <time>2020-05-26T18:17:45Z</time>
      </trkpt>
      <trkpt lat="48.72269" lon="7.33642">
        <ele>434.2</ele>
        <time>2020-05-26T18:17:42Z</time>
      </trkpt>
      <trkpt lat="48.72264" lon="7.3364">
        <ele>434.3</ele>
        <time>2020-05-26T18:17:35Z</time>
      </trkpt>
      <trkpt lat="48.7226" lon="7.33634">
        <ele>431.9</ele>
        <time>2020-05-26T18:17:29Z</time>
      </trkpt>
      <trkpt lat="48.72258" lon="7.33628">
        <ele>430.6</ele>
        <time>2020-05-26T18:17:26Z</time>
      </trkpt>
      <trkpt lat="48.72255" lon="7.33623">
        <ele>429.9</ele>
        <time>2020-05-26T18:17:24Z</time>
      </trkpt>
      <trkpt lat="48.72251" lon="7.33618">
        <ele>428.9</ele>
        <time>2020-05-26T18:17:22Z</time>
      </trkpt>
      <trkpt lat="48.72244" lon="7.33613">
        <ele>428.7</ele>
        <time>2020-05-26T18:17:20Z</time>
      </trkpt>
      <trkpt lat="48.72238" lon="7.33607">
        <ele>428.5</ele>
        <time>2020-05-26T18:17:18Z</time>
      </trkpt>
      <trkpt lat="48.72231" lon="7.33605">
        <ele>428.3</ele>
        <time>2020-05-26T18:17:16Z</time>
      </trkpt>
      <trkpt lat="48.72222" lon="7.33602">
        <ele>427.3</ele>
        <time>2020-05-26T18:17:14Z</time>
      </trkpt>
      <trkpt lat="48.72214" lon="7.33603">
        <ele>427.9</ele>
        <time>2020-05-26T18:17:12Z</time>
      </trkpt>
      <trkpt lat="48.72207" lon="7.336">
        <ele>428</ele>
        <time>2020-05-26T18:17:10Z</time>
      </trkpt>
      <trkpt lat="48.72199" lon="7.33598">
        <ele>427.7</ele>
        <time>2020-05-26T18:17:08Z</time>
      </trkpt>
      <trkpt lat="48.7219" lon="7.33593">
        <ele>428</ele>
        <time>2020-05-26T18:17:06Z</time>
      </trkpt>
      <trkpt lat="48.72181" lon="7.3359">
        <ele>427.9</ele>
        <time>2020-05-26T18:17:04Z</time>
      </trkpt>
      <trkpt lat="48.72172" lon="7.33585">
        <ele>427.6</ele>
        <time>2020-05-26T18:17:02Z</time>
      </trkpt>
      <trkpt lat="48.72163" lon="7.33578">
        <ele>427.9</ele>
        <time>2020-05-26T18:17:00Z</time>
      </trkpt>
      <trkpt lat="48.72151" lon="7.33568">
        <ele>428.3</ele>
        <time>2020-05-26T18:16:58Z</time>
      </trkpt>
      <trkpt lat="48.72138" lon="7.33557">
        <ele>429.4</ele>
        <time>2020-05-26T18:16:56Z</time>
      </trkpt>
      <trkpt lat="48.72128" lon="7.33545">
        <ele>430.3</ele>
        <time>2020-05-26T18:16:54Z</time>
      </trkpt>
      <trkpt lat="48.72119" lon="7.33531">
        <ele>431.3</ele>
        <time>2020-05-26T18:16:52Z</time>
      </trkpt>
      <trkpt lat="48.72107" lon="7.33517">
        <ele>432</ele>
        <time>2020-05-26T18:16:50Z</time>
      </trkpt>
      <trkpt lat="48.72094" lon="7.33508">
        <ele>432.6</ele>
        <time>2020-05-26T18:16:48Z</time>
      </trkpt>
      <trkpt lat="48.7208" lon="7.33502">
        <ele>432.6</ele>
        <time>2020-05-26T18:16:46Z</time>
      </trkpt>
      <trkpt lat="48.72068" lon="7.33498">
        <ele>432.7</ele>
        <time>2020-05-26T18:16:44Z</time>
      </trkpt>
      <trkpt lat="48.72058" lon="7.33494">
        <ele>432.4</ele>
        <time>2020-05-26T18:16:42Z</time>
      </trkpt>
      <trkpt lat="48.7205" lon="7.33489">
        <ele>432.1</ele>
        <time>2020-05-26T18:16:40Z</time>
      </trkpt>
      <trkpt lat="48.72041" lon="7.33483">
        <ele>431.8</ele>
        <time>2020-05-26T18:16:38Z</time>
      </trkpt>
      <trkpt lat="48.72032" lon="7.3347">
        <ele>431.9</ele>
        <time>2020-05-26T18:16:36Z</time>
      </trkpt>
      <trkpt lat="48.72025" lon="7.33456">
        <ele>432.2</ele>
        <time>2020-05-26T18:16:34Z</time>
      </trkpt>
      <trkpt lat="48.72016" lon="7.33443">
        <ele>433</ele>
        <time>2020-05-26T18:16:32Z</time>
      </trkpt>
      <trkpt lat="48.72006" lon="7.33434">
        <ele>433.5</ele>
        <time>2020-05-26T18:16:30Z</time>
      </trkpt>
      <trkpt lat="48.71994" lon="7.33426">
        <ele>434.2</ele>
        <time>2020-05-26T18:16:28Z</time>
      </trkpt>
      <trkpt lat="48.71984" lon="7.33416">
        <ele>434.1</ele>
        <time>2020-05-26T18:16:26Z</time>
      </trkpt>
      <trkpt lat="48.71974" lon="7.33408">
        <ele>434.1</ele>
        <time>2020-05-26T18:16:24Z</time>
      </trkpt>
      <trkpt lat="48.71965" lon="7.33401">
        <ele>433.9</ele>
        <time>2020-05-26T18:16:22Z</time>
      </trkpt>
      <trkpt lat="48.71957" lon="7.334">
        <ele>433.2</ele>
        <time>2020-05-26T18:16:20Z</time>
      </trkpt>
      <trkpt lat="48.7195" lon="7.334">
        <ele>432.1</ele>
        <time>2020-05-26T18:16:18Z</time>
      </trkpt>
      <trkpt lat="48.71943" lon="7.33398">
        <ele>431</ele>
        <time>2020-05-26T18:16:16Z</time>
      </trkpt>
      <trkpt lat="48.71936" lon="7.33394">
        <ele>430.1</ele>
        <time>2020-05-26T18:16:14Z</time>
      </trkpt>
      <trkpt lat="48.71929" lon="7.33391">
        <ele>429.1</ele>
        <time>2020-05-26T18:16:12Z</time>
      </trkpt>
      <trkpt lat="48.71924" lon="7.33389">
        <ele>427.1</ele>
        <time>2020-05-26T18:16:10Z</time>
      </trkpt>
      <trkpt lat="48.71918" lon="7.33387">
        <ele>425.9</ele>
        <time>2020-05-26T18:16:08Z</time>
      </trkpt>
      <trkpt lat="48.71912" lon="7.33383">
        <ele>425.4</ele>
        <time>2020-05-26T18:16:06Z</time>
      </trkpt>
      <trkpt lat="48.71906" lon="7.3338">
        <ele>425.7</ele>
        <time>2020-05-26T18:16:04Z</time>
      </trkpt>
      <trkpt lat="48.71899" lon="7.33377">
        <ele>425.7</ele>
        <time>2020-05-26T18:16:02Z</time>
      </trkpt>
      <trkpt lat="48.71891" lon="7.33372">
        <ele>426.3</ele>
        <time>2020-05-26T18:16:00Z</time>
      </trkpt>
      <trkpt lat="48.71881" lon="7.33365">
        <ele>427.1</ele>
        <time>2020-05-26T18:15:58Z</time>
      </trkpt>
      <trkpt lat="48.71872" lon="7.33362">
        <ele>429.8</ele>
        <time>2020-05-26T18:15:56Z</time>
      </trkpt>
      <trkpt lat="48.71863" lon="7.33359">
        <ele>432.8</ele>
        <time>2020-05-26T18:15:54Z</time>
      </trkpt>
      <trkpt lat="48.71854" lon="7.33354">
        <ele>435.3</ele>
        <time>2020-05-26T18:15:52Z</time>
      </trkpt>
      <trkpt lat="48.71845" lon="7.33349">
        <ele>437.5</ele>
        <time>2020-05-26T18:15:50Z</time>
      </trkpt>
      <trkpt lat="48.71837" lon="7.33343">
        <ele>439</ele>
        <time>2020-05-26T18:15:48Z</time>
      </trkpt>
      <trkpt lat="48.71828" lon="7.33336">
        <ele>438.8</ele>
        <time>2020-05-26T18:15:46Z</time>
      </trkpt>
      <trkpt lat="48.71819" lon="7.33328">
        <ele>432</ele>
        <time>2020-05-26T18:15:44Z</time>
      </trkpt>
      <trkpt lat="48.71811" lon="7.33317">
        <ele>431.8</ele>
        <time>2020-05-26T18:15:42Z</time>
      </trkpt>
      <trkpt lat="48.718" lon="7.33308">
        <ele>432.5</ele>
        <time>2020-05-26T18:15:40Z</time>
      </trkpt>
      <trkpt lat="48.7179" lon="7.33302">
        <ele>433.4</ele>
        <time>2020-05-26T18:15:38Z</time>
      </trkpt>
      <trkpt lat="48.7178" lon="7.33296">
        <ele>435.5</ele>
        <time>2020-05-26T18:15:36Z</time>
      </trkpt>
      <trkpt lat="48.71768" lon="7.3329">
        <ele>437</ele>
        <time>2020-05-26T18:15:34Z</time>
      </trkpt>
      <trkpt lat="48.71758" lon="7.33278">
        <ele>436.7</ele>
        <time>2020-05-26T18:15:32Z</time>
      </trkpt>
      <trkpt lat="48.71751" lon="7.3327">
        <ele>436.6</ele>
        <time>2020-05-26T18:15:30Z</time>
      </trkpt>
      <trkpt lat="48.71746" lon="7.33264">
        <ele>436.6</ele>
        <time>2020-05-26T18:15:28Z</time>
      </trkpt>
      <trkpt lat="48.71743" lon="7.33259">
        <ele>436.2</ele>
        <time>2020-05-26T18:15:26Z</time>
      </trkpt>
      <trkpt lat="48.71739" lon="7.33253">
        <ele>435.1</ele>
        <time>2020-05-26T18:15:23Z</time>
      </trkpt>
      <trkpt lat="48.71736" lon="7.33247">
        <ele>435.6</ele>
        <time>2020-05-26T18:15:16Z</time>
      </trkpt>
      <trkpt lat="48.71731" lon="7.33244">
        <ele>437</ele>
        <time>2020-05-26T18:15:13Z</time>
      </trkpt>
      <trkpt lat="48.71725" lon="7.33243">
        <ele>437</ele>
        <time>2020-05-26T18:15:11Z</time>
      </trkpt>
      <trkpt lat="48.71717" lon="7.33242">
        <ele>438.1</ele>
        <time>2020-05-26T18:15:09Z</time>
      </trkpt>
      <trkpt lat="48.71709" lon="7.33239">
        <ele>438.8</ele>
        <time>2020-05-26T18:15:07Z</time>
      </trkpt>
      <trkpt lat="48.71699" lon="7.33236">
        <ele>439.6</ele>
        <time>2020-05-26T18:15:05Z</time>
      </trkpt>
      <trkpt lat="48.7169" lon="7.33232">
        <ele>440.1</ele>
        <time>2020-05-26T18:15:03Z</time>
      </trkpt>
      <trkpt lat="48.71679" lon="7.3323">
        <ele>440.1</ele>
        <time>2020-05-26T18:15:01Z</time>
      </trkpt>
      <trkpt lat="48.71668" lon="7.33228">
        <ele>440.4</ele>
        <time>2020-05-26T18:14:59Z</time>
      </trkpt>
      <trkpt lat="48.71655" lon="7.33226">
        <ele>441.1</ele>
        <time>2020-05-26T18:14:57Z</time>
      </trkpt>
      <trkpt lat="48.71642" lon="7.33225">
        <ele>442</ele>
        <time>2020-05-26T18:14:55Z</time>
      </trkpt>
      <trkpt lat="48.71631" lon="7.33224">
        <ele>442.7</ele>
        <time>2020-05-26T18:14:53Z</time>
      </trkpt>
      <trkpt lat="48.71622" lon="7.33225">
        <ele>443.9</ele>
        <time>2020-05-26T18:14:51Z</time>
      </trkpt>
      <trkpt lat="48.71616" lon="7.33226">
        <ele>444.7</ele>
        <time>2020-05-26T18:14:49Z</time>
      </trkpt>
      <trkpt lat="48.71609" lon="7.33223">
        <ele>445.7</ele>
        <time>2020-05-26T18:14:47Z</time>
      </trkpt>
      <trkpt lat="48.716" lon="7.3322">
        <ele>447</ele>
        <time>2020-05-26T18:14:45Z</time>
      </trkpt>
      <trkpt lat="48.71592" lon="7.33218">
        <ele>448.5</ele>
        <time>2020-05-26T18:14:43Z</time>
      </trkpt>
      <trkpt lat="48.71584" lon="7.33216">
        <ele>450.9</ele>
        <time>2020-05-26T18:14:41Z</time>
      </trkpt>
      <trkpt lat="48.71577" lon="7.33216">
        <ele>453.7</ele>
        <time>2020-05-26T18:14:39Z</time>
      </trkpt>
      <trkpt lat="48.71569" lon="7.33217">
        <ele>455.7</ele>
        <time>2020-05-26T18:14:37Z</time>
      </trkpt>
      <trkpt lat="48.71563" lon="7.33218">
        <ele>457.2</ele>
        <time>2020-05-26T18:14:35Z</time>
      </trkpt>
      <trkpt lat="48.71558" lon="7.33217">
        <ele>458.7</ele>
        <time>2020-05-26T18:14:33Z</time>
      </trkpt>
      <trkpt lat="48.71553" lon="7.33213">
        <ele>459.9</ele>
        <time>2020-05-26T18:14:31Z</time>
      </trkpt>
      <trkpt lat="48.71549" lon="7.33209">
        <ele>460.7</ele>
        <time>2020-05-26T18:14:29Z</time>
      </trkpt>
      <trkpt lat="48.71543" lon="7.33211">
        <ele>461.9</ele>
        <time>2020-05-26T18:14:26Z</time>
      </trkpt>
      <trkpt lat="48.71539" lon="7.33216">
        <ele>462.4</ele>
        <time>2020-05-26T18:14:24Z</time>
      </trkpt>
      <trkpt lat="48.71535" lon="7.33222">
        <ele>462.2</ele>
        <time>2020-05-26T18:14:20Z</time>
      </trkpt>
      <trkpt lat="48.71529" lon="7.33225">
        <ele>461.7</ele>
        <time>2020-05-26T18:14:18Z</time>
      </trkpt>
      <trkpt lat="48.7152" lon="7.33226">
        <ele>461.7</ele>
        <time>2020-05-26T18:14:16Z</time>
      </trkpt>
      <trkpt lat="48.7151" lon="7.33226">
        <ele>461.8</ele>
        <time>2020-05-26T18:14:14Z</time>
      </trkpt>
      <trkpt lat="48.71504" lon="7.33225">
        <ele>462</ele>
        <time>2020-05-26T18:14:12Z</time>
      </trkpt>
      <trkpt lat="48.71498" lon="7.33225">
        <ele>461.9</ele>
        <time>2020-05-26T18:14:10Z</time>
      </trkpt>
      <trkpt lat="48.71491" lon="7.33226">
        <ele>461.5</ele>
        <time>2020-05-26T18:14:08Z</time>
      </trkpt>
      <trkpt lat="48.71485" lon="7.33226">
        <ele>461.9</ele>
        <time>2020-05-26T18:14:06Z</time>
      </trkpt>
      <trkpt lat="48.71479" lon="7.33227">
        <ele>461.2</ele>
        <time>2020-05-26T18:14:03Z</time>
      </trkpt>
      <trkpt lat="48.71474" lon="7.33229">
        <ele>460.4</ele>
        <time>2020-05-26T18:14:00Z</time>
      </trkpt>
      <trkpt lat="48.71468" lon="7.33232">
        <ele>458.8</ele>
        <time>2020-05-26T18:13:55Z</time>
      </trkpt>
      <trkpt lat="48.71464" lon="7.33235">
        <ele>456.6</ele>
        <time>2020-05-26T18:13:49Z</time>
      </trkpt>
      <trkpt lat="48.71459" lon="7.33236">
        <ele>455.6</ele>
        <time>2020-05-26T18:13:43Z</time>
      </trkpt>
      <trkpt lat="48.71454" lon="7.33239">
        <ele>455.3</ele>
        <time>2020-05-26T18:13:38Z</time>
      </trkpt>
      <trkpt lat="48.7145" lon="7.33244">
        <ele>454.4</ele>
        <time>2020-05-26T18:13:32Z</time>
      </trkpt>
      <trkpt lat="48.71446" lon="7.33246">
        <ele>453.8</ele>
        <time>2020-05-26T18:13:29Z</time>
      </trkpt>
      <trkpt lat="48.7144" lon="7.33248">
        <ele>453.2</ele>
        <time>2020-05-26T18:13:26Z</time>
      </trkpt>
      <trkpt lat="48.71435" lon="7.3325">
        <ele>452.6</ele>
        <time>2020-05-26T18:13:23Z</time>
      </trkpt>
      <trkpt lat="48.71429" lon="7.33252">
        <ele>452.1</ele>
        <time>2020-05-26T18:13:20Z</time>
      </trkpt>
      <trkpt lat="48.71425" lon="7.33252">
        <ele>451.1</ele>
        <time>2020-05-26T18:13:17Z</time>
      </trkpt>
      <trkpt lat="48.7142" lon="7.33249">
        <ele>452.3</ele>
        <time>2020-05-26T18:13:09Z</time>
      </trkpt>
      <trkpt lat="48.71415" lon="7.33248">
        <ele>450.5</ele>
        <time>2020-05-26T18:13:05Z</time>
      </trkpt>
      <trkpt lat="48.7141" lon="7.33246">
        <ele>448.9</ele>
        <time>2020-05-26T18:13:01Z</time>
      </trkpt>
      <trkpt lat="48.71405" lon="7.33245">
        <ele>447.8</ele>
        <time>2020-05-26T18:12:58Z</time>
      </trkpt>
      <trkpt lat="48.71399" lon="7.33244">
        <ele>445.7</ele>
        <time>2020-05-26T18:12:54Z</time>
      </trkpt>
      <trkpt lat="48.71395" lon="7.33243">
        <ele>444.1</ele>
        <time>2020-05-26T18:12:49Z</time>
      </trkpt>
      <trkpt lat="48.71391" lon="7.33238">
        <ele>443.2</ele>
        <time>2020-05-26T18:12:37Z</time>
      </trkpt>
      <trkpt lat="48.71387" lon="7.33232">
        <ele>443.2</ele>
        <time>2020-05-26T18:12:32Z</time>
      </trkpt>
      <trkpt lat="48.71383" lon="7.33228">
        <ele>441.3</ele>
        <time>2020-05-26T18:12:28Z</time>
      </trkpt>
      <trkpt lat="48.71378" lon="7.33225">
        <ele>439.1</ele>
        <time>2020-05-26T18:12:24Z</time>
      </trkpt>
      <trkpt lat="48.71372" lon="7.33222">
        <ele>436.9</ele>
        <time>2020-05-26T18:12:20Z</time>
      </trkpt>
      <trkpt lat="48.71367" lon="7.33219">
        <ele>435.2</ele>
        <time>2020-05-26T18:12:17Z</time>
      </trkpt>
      <trkpt lat="48.71362" lon="7.33213">
        <ele>434</ele>
        <time>2020-05-26T18:12:14Z</time>
      </trkpt>
      <trkpt lat="48.71357" lon="7.33208">
        <ele>433</ele>
        <time>2020-05-26T18:12:10Z</time>
      </trkpt>
      <trkpt lat="48.71353" lon="7.33205">
        <ele>432.5</ele>
        <time>2020-05-26T18:12:07Z</time>
      </trkpt>
      <trkpt lat="48.71348" lon="7.33204">
        <ele>433.3</ele>
        <time>2020-05-26T18:12:03Z</time>
      </trkpt>
      <trkpt lat="48.71344" lon="7.33205">
        <ele>432.5</ele>
        <time>2020-05-26T18:11:59Z</time>
      </trkpt>
      <trkpt lat="48.71338" lon="7.33205">
        <ele>431.6</ele>
        <time>2020-05-26T18:11:56Z</time>
      </trkpt>
      <trkpt lat="48.71333" lon="7.33203">
        <ele>431.1</ele>
        <time>2020-05-26T18:11:53Z</time>
      </trkpt>
      <trkpt lat="48.71327" lon="7.33202">
        <ele>431.6</ele>
        <time>2020-05-26T18:11:50Z</time>
      </trkpt>
      <trkpt lat="48.71321" lon="7.332">
        <ele>432</ele>
        <time>2020-05-26T18:11:47Z</time>
      </trkpt>
      <trkpt lat="48.71315" lon="7.33198">
        <ele>432</ele>
        <time>2020-05-26T18:11:44Z</time>
      </trkpt>
      <trkpt lat="48.71309" lon="7.33196">
        <ele>431.4</ele>
        <time>2020-05-26T18:11:41Z</time>
      </trkpt>
      <trkpt lat="48.71304" lon="7.33194">
        <ele>430.2</ele>
        <time>2020-05-26T18:11:38Z</time>
      </trkpt>
      <trkpt lat="48.71299" lon="7.33193">
        <ele>429.5</ele>
        <time>2020-05-26T18:11:35Z</time>
      </trkpt>
      <trkpt lat="48.71294" lon="7.33192">
        <ele>429.2</ele>
        <time>2020-05-26T18:11:32Z</time>
      </trkpt>
      <trkpt lat="48.71289" lon="7.33192">
        <ele>428.4</ele>
        <time>2020-05-26T18:11:29Z</time>
      </trkpt>
      <trkpt lat="48.71284" lon="7.33191">
        <ele>426.7</ele>
        <time>2020-05-26T18:11:26Z</time>
      </trkpt>
      <trkpt lat="48.71279" lon="7.33192">
        <ele>426.3</ele>
        <time>2020-05-26T18:11:23Z</time>
      </trkpt>
      <trkpt lat="48.71272" lon="7.33194">
        <ele>426.3</ele>
        <time>2020-05-26T18:11:20Z</time>
      </trkpt>
      <trkpt lat="48.71267" lon="7.33194">
        <ele>425.6</ele>
        <time>2020-05-26T18:11:18Z</time>
      </trkpt>
      <trkpt lat="48.71262" lon="7.33194">
        <ele>424.7</ele>
        <time>2020-05-26T18:11:16Z</time>
      </trkpt>
      <trkpt lat="48.71256" lon="7.33193">
        <ele>424.7</ele>
        <time>2020-05-26T18:11:14Z</time>
      </trkpt>
      <trkpt lat="48.7125" lon="7.33192">
        <ele>424</ele>
        <time>2020-05-26T18:11:12Z</time>
      </trkpt>
      <trkpt lat="48.71244" lon="7.33191">
        <ele>423.6</ele>
        <time>2020-05-26T18:11:10Z</time>
      </trkpt>
      <trkpt lat="48.71237" lon="7.33189">
        <ele>423.6</ele>
        <time>2020-05-26T18:11:08Z</time>
      </trkpt>
      <trkpt lat="48.71231" lon="7.33186">
        <ele>423.7</ele>
        <time>2020-05-26T18:11:06Z</time>
      </trkpt>
      <trkpt lat="48.71225" lon="7.33183">
        <ele>424</ele>
        <time>2020-05-26T18:11:04Z</time>
      </trkpt>
      <trkpt lat="48.7122" lon="7.33179">
        <ele>424.1</ele>
        <time>2020-05-26T18:11:02Z</time>
      </trkpt>
      <trkpt lat="48.71215" lon="7.33175">
        <ele>424.6</ele>
        <time>2020-05-26T18:11:00Z</time>
      </trkpt>
      <trkpt lat="48.7121" lon="7.33172">
        <ele>424.6</ele>
        <time>2020-05-26T18:10:58Z</time>
      </trkpt>
      <trkpt lat="48.71204" lon="7.33169">
        <ele>424.5</ele>
        <time>2020-05-26T18:10:55Z</time>
      </trkpt>
      <trkpt lat="48.712" lon="7.33164">
        <ele>424.6</ele>
        <time>2020-05-26T18:10:52Z</time>
      </trkpt>
      <trkpt lat="48.71194" lon="7.33162">
        <ele>424.8</ele>
        <time>2020-05-26T18:10:47Z</time>
      </trkpt>
      <trkpt lat="48.71189" lon="7.33162">
        <ele>423.8</ele>
        <time>2020-05-26T18:10:45Z</time>
      </trkpt>
      <trkpt lat="48.71181" lon="7.33162">
        <ele>423.8</ele>
        <time>2020-05-26T18:10:43Z</time>
      </trkpt>
      <trkpt lat="48.71169" lon="7.33162">
        <ele>423.7</ele>
        <time>2020-05-26T18:10:41Z</time>
      </trkpt>
      <trkpt lat="48.71157" lon="7.33165">
        <ele>423.8</ele>
        <time>2020-05-26T18:10:39Z</time>
      </trkpt>
      <trkpt lat="48.71144" lon="7.33169">
        <ele>424.7</ele>
        <time>2020-05-26T18:10:37Z</time>
      </trkpt>
      <trkpt lat="48.71131" lon="7.33177">
        <ele>425.4</ele>
        <time>2020-05-26T18:10:35Z</time>
      </trkpt>
      <trkpt lat="48.71114" lon="7.33187">
        <ele>425.4</ele>
        <time>2020-05-26T18:10:33Z</time>
      </trkpt>
      <trkpt lat="48.71101" lon="7.33194">
        <ele>426.1</ele>
        <time>2020-05-26T18:10:31Z</time>
      </trkpt>
      <trkpt lat="48.71087" lon="7.33201">
        <ele>427.1</ele>
        <time>2020-05-26T18:10:29Z</time>
      </trkpt>
      <trkpt lat="48.71072" lon="7.33208">
        <ele>428</ele>
        <time>2020-05-26T18:10:27Z</time>
      </trkpt>
      <trkpt lat="48.71059" lon="7.33216">
        <ele>430.6</ele>
        <time>2020-05-26T18:10:25Z</time>
      </trkpt>
      <trkpt lat="48.71047" lon="7.33219">
        <ele>431.7</ele>
        <time>2020-05-26T18:10:23Z</time>
      </trkpt>
      <trkpt lat="48.71034" lon="7.33223">
        <ele>434.8</ele>
        <time>2020-05-26T18:10:21Z</time>
      </trkpt>
      <trkpt lat="48.7102" lon="7.33227">
        <ele>434.4</ele>
        <time>2020-05-26T18:10:19Z</time>
      </trkpt>
      <trkpt lat="48.71005" lon="7.33228">
        <ele>435.2</ele>
        <time>2020-05-26T18:10:17Z</time>
      </trkpt>
      <trkpt lat="48.70991" lon="7.33225">
        <ele>436.1</ele>
        <time>2020-05-26T18:10:15Z</time>
      </trkpt>
      <trkpt lat="48.70977" lon="7.33219">
        <ele>437.2</ele>
        <time>2020-05-26T18:10:13Z</time>
      </trkpt>
      <trkpt lat="48.70966" lon="7.33216">
        <ele>438.3</ele>
        <time>2020-05-26T18:10:11Z</time>
      </trkpt>
      <trkpt lat="48.70957" lon="7.33212">
        <ele>439.5</ele>
        <time>2020-05-26T18:10:09Z</time>
      </trkpt>
      <trkpt lat="48.70946" lon="7.33208">
        <ele>440.7</ele>
        <time>2020-05-26T18:10:07Z</time>
      </trkpt>
      <trkpt lat="48.70934" lon="7.33203">
        <ele>442.2</ele>
        <time>2020-05-26T18:10:05Z</time>
      </trkpt>
      <trkpt lat="48.70922" lon="7.33197">
        <ele>442.8</ele>
        <time>2020-05-26T18:10:03Z</time>
      </trkpt>
      <trkpt lat="48.70911" lon="7.33191">
        <ele>442.8</ele>
        <time>2020-05-26T18:10:01Z</time>
      </trkpt>
      <trkpt lat="48.709" lon="7.33185">
        <ele>440</ele>
        <time>2020-05-26T18:09:59Z</time>
      </trkpt>
      <trkpt lat="48.70887" lon="7.33179">
        <ele>440.7</ele>
        <time>2020-05-26T18:09:57Z</time>
      </trkpt>
      <trkpt lat="48.70876" lon="7.33172">
        <ele>441.6</ele>
        <time>2020-05-26T18:09:55Z</time>
      </trkpt>
      <trkpt lat="48.70866" lon="7.33164">
        <ele>442.4</ele>
        <time>2020-05-26T18:09:53Z</time>
      </trkpt>
      <trkpt lat="48.70853" lon="7.33158">
        <ele>443.9</ele>
        <time>2020-05-26T18:09:51Z</time>
      </trkpt>
      <trkpt lat="48.7084" lon="7.33153">
        <ele>445.6</ele>
        <time>2020-05-26T18:09:49Z</time>
      </trkpt>
      <trkpt lat="48.70828" lon="7.33147">
        <ele>447.1</ele>
        <time>2020-05-26T18:09:47Z</time>
      </trkpt>
      <trkpt lat="48.70815" lon="7.33139">
        <ele>449.3</ele>
        <time>2020-05-26T18:09:45Z</time>
      </trkpt>
      <trkpt lat="48.70802" lon="7.33131">
        <ele>449.1</ele>
        <time>2020-05-26T18:09:43Z</time>
      </trkpt>
      <trkpt lat="48.70792" lon="7.33119">
        <ele>448.7</ele>
        <time>2020-05-26T18:09:41Z</time>
      </trkpt>
      <trkpt lat="48.70782" lon="7.33102">
        <ele>444.8</ele>
        <time>2020-05-26T18:09:39Z</time>
      </trkpt>
      <trkpt lat="48.70771" lon="7.33089">
        <ele>445.6</ele>
        <time>2020-05-26T18:09:37Z</time>
      </trkpt>
      <trkpt lat="48.7076" lon="7.33075">
        <ele>445.6</ele>
        <time>2020-05-26T18:09:35Z</time>
      </trkpt>
      <trkpt lat="48.70749" lon="7.3306">
        <ele>446</ele>
        <time>2020-05-26T18:09:33Z</time>
      </trkpt>
      <trkpt lat="48.70738" lon="7.33046">
        <ele>445.1</ele>
        <time>2020-05-26T18:09:31Z</time>
      </trkpt>
      <trkpt lat="48.70729" lon="7.33033">
        <ele>444.6</ele>
        <time>2020-05-26T18:09:29Z</time>
      </trkpt>
      <trkpt lat="48.70721" lon="7.33021">
        <ele>437.9</ele>
        <time>2020-05-26T18:09:27Z</time>
      </trkpt>
      <trkpt lat="48.70709" lon="7.33008">
        <ele>438</ele>
        <time>2020-05-26T18:09:25Z</time>
      </trkpt>
      <trkpt lat="48.70697" lon="7.32997">
        <ele>437.9</ele>
        <time>2020-05-26T18:09:23Z</time>
      </trkpt>
      <trkpt lat="48.70686" lon="7.32985">
        <ele>437.6</ele>
        <time>2020-05-26T18:09:21Z</time>
      </trkpt>
      <trkpt lat="48.70675" lon="7.32976">
        <ele>437.7</ele>
        <time>2020-05-26T18:09:19Z</time>
      </trkpt>
      <trkpt lat="48.70663" lon="7.32971">
        <ele>438.4</ele>
        <time>2020-05-26T18:09:17Z</time>
      </trkpt>
      <trkpt lat="48.70652" lon="7.32965">
        <ele>438</ele>
        <time>2020-05-26T18:09:15Z</time>
      </trkpt>
      <trkpt lat="48.70641" lon="7.32958">
        <ele>437.1</ele>
        <time>2020-05-26T18:09:13Z</time>
      </trkpt>
      <trkpt lat="48.70631" lon="7.32958">
        <ele>435.4</ele>
        <time>2020-05-26T18:09:11Z</time>
      </trkpt>
      <trkpt lat="48.70621" lon="7.32955">
        <ele>432.5</ele>
        <time>2020-05-26T18:09:09Z</time>
      </trkpt>
      <trkpt lat="48.70612" lon="7.32952">
        <ele>425.2</ele>
        <time>2020-05-26T18:09:07Z</time>
      </trkpt>
      <trkpt lat="48.70603" lon="7.3295">
        <ele>420.2</ele>
        <time>2020-05-26T18:09:05Z</time>
      </trkpt>
      <trkpt lat="48.70596" lon="7.32948">
        <ele>406.3</ele>
        <time>2020-05-26T18:09:02Z</time>
      </trkpt>
      <trkpt lat="48.70591" lon="7.32948">
        <ele>442</ele>
        <time>2020-05-26T18:08:54Z</time>
      </trkpt>
      <trkpt lat="48.70586" lon="7.32949">
        <ele>443.1</ele>
        <time>2020-05-26T18:08:46Z</time>
      </trkpt>
      <trkpt lat="48.70581" lon="7.3295">
        <ele>442.7</ele>
        <time>2020-05-26T18:08:42Z</time>
      </trkpt>
      <trkpt lat="48.70575" lon="7.32948">
        <ele>441.5</ele>
        <time>2020-05-26T18:08:39Z</time>
      </trkpt>
      <trkpt lat="48.7057" lon="7.32945">
        <ele>441.6</ele>
        <time>2020-05-26T18:08:37Z</time>
      </trkpt>
      <trkpt lat="48.70563" lon="7.32943">
        <ele>440.5</ele>
        <time>2020-05-26T18:08:35Z</time>
      </trkpt>
      <trkpt lat="48.70557" lon="7.32941">
        <ele>439.5</ele>
        <time>2020-05-26T18:08:33Z</time>
      </trkpt>
      <trkpt lat="48.70552" lon="7.32939">
        <ele>439.1</ele>
        <time>2020-05-26T18:08:31Z</time>
      </trkpt>
      <trkpt lat="48.70547" lon="7.32938">
        <ele>439</ele>
        <time>2020-05-26T18:08:29Z</time>
      </trkpt>
      <trkpt lat="48.70542" lon="7.32937">
        <ele>438.8</ele>
        <time>2020-05-26T18:08:27Z</time>
      </trkpt>
      <trkpt lat="48.70535" lon="7.32936">
        <ele>439.2</ele>
        <time>2020-05-26T18:08:24Z</time>
      </trkpt>
      <trkpt lat="48.70531" lon="7.32934">
        <ele>439.8</ele>
        <time>2020-05-26T18:08:22Z</time>
      </trkpt>
      <trkpt lat="48.70525" lon="7.32931">
        <ele>439.1</ele>
        <time>2020-05-26T18:08:19Z</time>
      </trkpt>
      <trkpt lat="48.7052" lon="7.32928">
        <ele>437.7</ele>
        <time>2020-05-26T18:08:17Z</time>
      </trkpt>
      <trkpt lat="48.70514" lon="7.32925">
        <ele>435.9</ele>
        <time>2020-05-26T18:08:15Z</time>
      </trkpt>
      <trkpt lat="48.70507" lon="7.32923">
        <ele>435.8</ele>
        <time>2020-05-26T18:08:13Z</time>
      </trkpt>
      <trkpt lat="48.70499" lon="7.32922">
        <ele>435.9</ele>
        <time>2020-05-26T18:08:11Z</time>
      </trkpt>
      <trkpt lat="48.70492" lon="7.32921">
        <ele>436.5</ele>
        <time>2020-05-26T18:08:09Z</time>
      </trkpt>
      <trkpt lat="48.70485" lon="7.3292">
        <ele>437.6</ele>
        <time>2020-05-26T18:08:07Z</time>
      </trkpt>
      <trkpt lat="48.7048" lon="7.32919">
        <ele>438.5</ele>
        <time>2020-05-26T18:08:05Z</time>
      </trkpt>
      <trkpt lat="48.70475" lon="7.32919">
        <ele>438.7</ele>
        <time>2020-05-26T18:08:03Z</time>
      </trkpt>
      <trkpt lat="48.70469" lon="7.32917">
        <ele>439.1</ele>
        <time>2020-05-26T18:08:01Z</time>
      </trkpt>
      <trkpt lat="48.70463" lon="7.32915">
        <ele>439.6</ele>
        <time>2020-05-26T18:07:59Z</time>
      </trkpt>
      <trkpt lat="48.70457" lon="7.32912">
        <ele>439.4</ele>
        <time>2020-05-26T18:07:57Z</time>
      </trkpt>
      <trkpt lat="48.70451" lon="7.32909">
        <ele>439.3</ele>
        <time>2020-05-26T18:07:55Z</time>
      </trkpt>
      <trkpt lat="48.70445" lon="7.32906">
        <ele>438.7</ele>
        <time>2020-05-26T18:07:53Z</time>
      </trkpt>
      <trkpt lat="48.70439" lon="7.32904">
        <ele>431.5</ele>
        <time>2020-05-26T18:07:51Z</time>
      </trkpt>
      <trkpt lat="48.70433" lon="7.32902">
        <ele>432.7</ele>
        <time>2020-05-26T18:07:49Z</time>
      </trkpt>
      <trkpt lat="48.70427" lon="7.329">
        <ele>433.7</ele>
        <time>2020-05-26T18:07:47Z</time>
      </trkpt>
      <trkpt lat="48.7042" lon="7.32899">
        <ele>434.9</ele>
        <time>2020-05-26T18:07:45Z</time>
      </trkpt>
      <trkpt lat="48.70413" lon="7.32897">
        <ele>437.9</ele>
        <time>2020-05-26T18:07:43Z</time>
      </trkpt>
      <trkpt lat="48.70407" lon="7.32897">
        <ele>440.7</ele>
        <time>2020-05-26T18:07:41Z</time>
      </trkpt>
      <trkpt lat="48.704" lon="7.32896">
        <ele>447.3</ele>
        <time>2020-05-26T18:07:39Z</time>
      </trkpt>
      <trkpt lat="48.70392" lon="7.32894">
        <ele>449.1</ele>
        <time>2020-05-26T18:07:37Z</time>
      </trkpt>
      <trkpt lat="48.70384" lon="7.32892">
        <ele>446.4</ele>
        <time>2020-05-26T18:07:35Z</time>
      </trkpt>
      <trkpt lat="48.70378" lon="7.3289">
        <ele>447.6</ele>
        <time>2020-05-26T18:07:33Z</time>
      </trkpt>
      <trkpt lat="48.70372" lon="7.32891">
        <ele>447.9</ele>
        <time>2020-05-26T18:07:31Z</time>
      </trkpt>
      <trkpt lat="48.70366" lon="7.32891">
        <ele>446.9</ele>
        <time>2020-05-26T18:07:29Z</time>
      </trkpt>
      <trkpt lat="48.70361" lon="7.32891">
        <ele>444.2</ele>
        <time>2020-05-26T18:07:27Z</time>
      </trkpt>
      <trkpt lat="48.70356" lon="7.3289">
        <ele>445.9</ele>
        <time>2020-05-26T18:07:25Z</time>
      </trkpt>
      <trkpt lat="48.7035" lon="7.3289">
        <ele>446.5</ele>
        <time>2020-05-26T18:07:23Z</time>
      </trkpt>
      <trkpt lat="48.70345" lon="7.3289">
        <ele>446.3</ele>
        <time>2020-05-26T18:07:21Z</time>
      </trkpt>
      <trkpt lat="48.70339" lon="7.3289">
        <ele>441.2</ele>
        <time>2020-05-26T18:07:19Z</time>
      </trkpt>
      <trkpt lat="48.70335" lon="7.32891">
        <ele>439.8</ele>
        <time>2020-05-26T18:07:17Z</time>
      </trkpt>
      <trkpt lat="48.7033" lon="7.32891">
        <ele>436.5</ele>
        <time>2020-05-26T18:07:15Z</time>
      </trkpt>
      <trkpt lat="48.70324" lon="7.32891">
        <ele>425.8</ele>
        <time>2020-05-26T18:07:13Z</time>
      </trkpt>
      <trkpt lat="48.70318" lon="7.3289">
        <ele>425.5</ele>
        <time>2020-05-26T18:07:11Z</time>
      </trkpt>
      <trkpt lat="48.70313" lon="7.32889">
        <ele>426</ele>
        <time>2020-05-26T18:07:09Z</time>
      </trkpt>
      <trkpt lat="48.70308" lon="7.32888">
        <ele>426.8</ele>
        <time>2020-05-26T18:07:07Z</time>
      </trkpt>
      <trkpt lat="48.70303" lon="7.32887">
        <ele>426.2</ele>
        <time>2020-05-26T18:07:05Z</time>
      </trkpt>
      <trkpt lat="48.70297" lon="7.32886">
        <ele>426</ele>
        <time>2020-05-26T18:07:02Z</time>
      </trkpt>
      <trkpt lat="48.70292" lon="7.32885">
        <ele>426.1</ele>
        <time>2020-05-26T18:07:00Z</time>
      </trkpt>
      <trkpt lat="48.70287" lon="7.32885">
        <ele>426.2</ele>
        <time>2020-05-26T18:06:58Z</time>
      </trkpt>
      <trkpt lat="48.70281" lon="7.32885">
        <ele>426.5</ele>
        <time>2020-05-26T18:06:55Z</time>
      </trkpt>
      <trkpt lat="48.70276" lon="7.32887">
        <ele>427</ele>
        <time>2020-05-26T18:06:53Z</time>
      </trkpt>
      <trkpt lat="48.70271" lon="7.3289">
        <ele>427.7</ele>
        <time>2020-05-26T18:06:51Z</time>
      </trkpt>
      <trkpt lat="48.70265" lon="7.32893">
        <ele>429</ele>
        <time>2020-05-26T18:06:49Z</time>
      </trkpt>
      <trkpt lat="48.70259" lon="7.32895">
        <ele>430.6</ele>
        <time>2020-05-26T18:06:46Z</time>
      </trkpt>
      <trkpt lat="48.70254" lon="7.32896">
        <ele>430.9</ele>
        <time>2020-05-26T18:06:44Z</time>
      </trkpt>
      <trkpt lat="48.7025" lon="7.32897">
        <ele>431.5</ele>
        <time>2020-05-26T18:06:42Z</time>
      </trkpt>
      <trkpt lat="48.70245" lon="7.32899">
        <ele>431.6</ele>
        <time>2020-05-26T18:06:40Z</time>
      </trkpt>
      <trkpt lat="48.7024" lon="7.32901">
        <ele>430.8</ele>
        <time>2020-05-26T18:06:38Z</time>
      </trkpt>
      <trkpt lat="48.70234" lon="7.32903">
        <ele>428.7</ele>
        <time>2020-05-26T18:06:36Z</time>
      </trkpt>
      <trkpt lat="48.70229" lon="7.32905">
        <ele>419.3</ele>
        <time>2020-05-26T18:06:34Z</time>
      </trkpt>
      <trkpt lat="48.70224" lon="7.32906">
        <ele>417.4</ele>
        <time>2020-05-26T18:06:32Z</time>
      </trkpt>
      <trkpt lat="48.70219" lon="7.32907">
        <ele>415.5</ele>
        <time>2020-05-26T18:06:30Z</time>
      </trkpt>
      <trkpt lat="48.70212" lon="7.32907">
        <ele>411.6</ele>
        <time>2020-05-26T18:06:27Z</time>
      </trkpt>
      <trkpt lat="48.70206" lon="7.32907">
        <ele>406.2</ele>
        <time>2020-05-26T18:06:24Z</time>
      </trkpt>
      <trkpt lat="48.70199" lon="7.32907">
        <ele>399.7</ele>
        <time>2020-05-26T18:06:21Z</time>
      </trkpt>
      <trkpt lat="48.70193" lon="7.32909">
        <ele>393.9</ele>
        <time>2020-05-26T18:06:18Z</time>
      </trkpt>
      <trkpt lat="48.70187" lon="7.32911">
        <ele>390.3</ele>
        <time>2020-05-26T18:06:15Z</time>
      </trkpt>
      <trkpt lat="48.70183" lon="7.32912">
        <ele>386.4</ele>
        <time>2020-05-26T18:06:13Z</time>
      </trkpt>
      <trkpt lat="48.70178" lon="7.32913">
        <ele>382.9</ele>
        <time>2020-05-26T18:06:11Z</time>
      </trkpt>
      <trkpt lat="48.70173" lon="7.32914">
        <ele>383</ele>
        <time>2020-05-26T18:06:09Z</time>
      </trkpt>
      <trkpt lat="48.70168" lon="7.32915">
        <ele>385.1</ele>
        <time>2020-05-26T18:06:07Z</time>
      </trkpt>
      <trkpt lat="48.70163" lon="7.32917">
        <ele>424.3</ele>
        <time>2020-05-26T18:06:05Z</time>
      </trkpt>
      <trkpt lat="48.70158" lon="7.32918">
        <ele>423.2</ele>
        <time>2020-05-26T18:06:03Z</time>
      </trkpt>
      <trkpt lat="48.70153" lon="7.32919">
        <ele>423</ele>
        <time>2020-05-26T18:06:01Z</time>
      </trkpt>
      <trkpt lat="48.70147" lon="7.32921">
        <ele>415.9</ele>
        <time>2020-05-26T18:05:59Z</time>
      </trkpt>
      <trkpt lat="48.70141" lon="7.32922">
        <ele>416</ele>
        <time>2020-05-26T18:05:57Z</time>
      </trkpt>
      <trkpt lat="48.70135" lon="7.32923">
        <ele>416.5</ele>
        <time>2020-05-26T18:05:55Z</time>
      </trkpt>
      <trkpt lat="48.70129" lon="7.32925">
        <ele>416.8</ele>
        <time>2020-05-26T18:05:53Z</time>
      </trkpt>
      <trkpt lat="48.70125" lon="7.32926">
        <ele>416.2</ele>
        <time>2020-05-26T18:05:51Z</time>
      </trkpt>
      <trkpt lat="48.70119" lon="7.32927">
        <ele>416</ele>
        <time>2020-05-26T18:05:48Z</time>
      </trkpt>
      <trkpt lat="48.70114" lon="7.3293">
        <ele>416.1</ele>
        <time>2020-05-26T18:05:45Z</time>
      </trkpt>
      <trkpt lat="48.70109" lon="7.32931">
        <ele>416.5</ele>
        <time>2020-05-26T18:05:43Z</time>
      </trkpt>
      <trkpt lat="48.70104" lon="7.32933">
        <ele>416.9</ele>
        <time>2020-05-26T18:05:41Z</time>
      </trkpt>
      <trkpt lat="48.70098" lon="7.32935">
        <ele>417.4</ele>
        <time>2020-05-26T18:05:39Z</time>
      </trkpt>
      <trkpt lat="48.70092" lon="7.32937">
        <ele>417.7</ele>
        <time>2020-05-26T18:05:37Z</time>
      </trkpt>
      <trkpt lat="48.70086" lon="7.32938">
        <ele>418.2</ele>
        <time>2020-05-26T18:05:35Z</time>
      </trkpt>
      <trkpt lat="48.70082" lon="7.32939">
        <ele>418.4</ele>
        <time>2020-05-26T18:05:33Z</time>
      </trkpt>
      <trkpt lat="48.70075" lon="7.32941">
        <ele>417.8</ele>
        <time>2020-05-26T18:05:31Z</time>
      </trkpt>
      <trkpt lat="48.70069" lon="7.32944">
        <ele>417.4</ele>
        <time>2020-05-26T18:05:29Z</time>
      </trkpt>
      <trkpt lat="48.70063" lon="7.32947">
        <ele>417.5</ele>
        <time>2020-05-26T18:05:27Z</time>
      </trkpt>
      <trkpt lat="48.70056" lon="7.32951">
        <ele>417.5</ele>
        <time>2020-05-26T18:05:25Z</time>
      </trkpt>
      <trkpt lat="48.7005" lon="7.32956">
        <ele>418.3</ele>
        <time>2020-05-26T18:05:23Z</time>
      </trkpt>
      <trkpt lat="48.70044" lon="7.3296">
        <ele>418.2</ele>
        <time>2020-05-26T18:05:21Z</time>
      </trkpt>
      <trkpt lat="48.70036" lon="7.32964">
        <ele>417.3</ele>
        <time>2020-05-26T18:05:18Z</time>
      </trkpt>
      <trkpt lat="48.70031" lon="7.32966">
        <ele>415.8</ele>
        <time>2020-05-26T18:05:15Z</time>
      </trkpt>
      <trkpt lat="48.70025" lon="7.3297">
        <ele>415</ele>
        <time>2020-05-26T18:05:13Z</time>
      </trkpt>
      <trkpt lat="48.70019" lon="7.32973">
        <ele>414.7</ele>
        <time>2020-05-26T18:05:11Z</time>
      </trkpt>
      <trkpt lat="48.70012" lon="7.32977">
        <ele>414.9</ele>
        <time>2020-05-26T18:05:09Z</time>
      </trkpt>
      <trkpt lat="48.70007" lon="7.32981">
        <ele>414.7</ele>
        <time>2020-05-26T18:05:07Z</time>
      </trkpt>
      <trkpt lat="48.70001" lon="7.32984">
        <ele>414.8</ele>
        <time>2020-05-26T18:05:05Z</time>
      </trkpt>
      <trkpt lat="48.69996" lon="7.32987">
        <ele>414.4</ele>
        <time>2020-05-26T18:05:03Z</time>
      </trkpt>
      <trkpt lat="48.6999" lon="7.3299">
        <ele>414.5</ele>
        <time>2020-05-26T18:05:01Z</time>
      </trkpt>
      <trkpt lat="48.69983" lon="7.32991">
        <ele>414.3</ele>
        <time>2020-05-26T18:04:59Z</time>
      </trkpt>
      <trkpt lat="48.69975" lon="7.32989">
        <ele>414.9</ele>
        <time>2020-05-26T18:04:57Z</time>
      </trkpt>
      <trkpt lat="48.69969" lon="7.32988">
        <ele>414.9</ele>
        <time>2020-05-26T18:04:55Z</time>
      </trkpt>
      <trkpt lat="48.69962" lon="7.32987">
        <ele>414.8</ele>
        <time>2020-05-26T18:04:53Z</time>
      </trkpt>
      <trkpt lat="48.69957" lon="7.32987">
        <ele>414.7</ele>
        <time>2020-05-26T18:04:51Z</time>
      </trkpt>
      <trkpt lat="48.69951" lon="7.32987">
        <ele>414.6</ele>
        <time>2020-05-26T18:04:49Z</time>
      </trkpt>
      <trkpt lat="48.69945" lon="7.32987">
        <ele>415</ele>
        <time>2020-05-26T18:04:47Z</time>
      </trkpt>
      <trkpt lat="48.69938" lon="7.32985">
        <ele>415.7</ele>
        <time>2020-05-26T18:04:45Z</time>
      </trkpt>
      <trkpt lat="48.69931" lon="7.32985">
        <ele>416.2</ele>
        <time>2020-05-26T18:04:43Z</time>
      </trkpt>
      <trkpt lat="48.69925" lon="7.32985">
        <ele>416.7</ele>
        <time>2020-05-26T18:04:41Z</time>
      </trkpt>
      <trkpt lat="48.69919" lon="7.32985">
        <ele>416.9</ele>
        <time>2020-05-26T18:04:39Z</time>
      </trkpt>
      <trkpt lat="48.69913" lon="7.32985">
        <ele>417.9</ele>
        <time>2020-05-26T18:04:37Z</time>
      </trkpt>
      <trkpt lat="48.69907" lon="7.32985">
        <ele>418.3</ele>
        <time>2020-05-26T18:04:35Z</time>
      </trkpt>
      <trkpt lat="48.699" lon="7.32983">
        <ele>419.1</ele>
        <time>2020-05-26T18:04:33Z</time>
      </trkpt>
      <trkpt lat="48.69893" lon="7.32981">
        <ele>419.2</ele>
        <time>2020-05-26T18:04:31Z</time>
      </trkpt>
      <trkpt lat="48.69886" lon="7.3298">
        <ele>418.4</ele>
        <time>2020-05-26T18:04:29Z</time>
      </trkpt>
      <trkpt lat="48.69879" lon="7.32978">
        <ele>417.2</ele>
        <time>2020-05-26T18:04:27Z</time>
      </trkpt>
      <trkpt lat="48.69872" lon="7.32975">
        <ele>404.3</ele>
        <time>2020-05-26T18:04:25Z</time>
      </trkpt>
      <trkpt lat="48.69865" lon="7.32972">
        <ele>403.9</ele>
        <time>2020-05-26T18:04:23Z</time>
      </trkpt>
      <trkpt lat="48.69859" lon="7.32968">
        <ele>403.4</ele>
        <time>2020-05-26T18:04:21Z</time>
      </trkpt>
      <trkpt lat="48.69854" lon="7.32965">
        <ele>403.1</ele>
        <time>2020-05-26T18:04:19Z</time>
      </trkpt>
      <trkpt lat="48.69849" lon="7.32961">
        <ele>402.9</ele>
        <time>2020-05-26T18:04:17Z</time>
      </trkpt>
      <trkpt lat="48.69845" lon="7.32957">
        <ele>402.8</ele>
        <time>2020-05-26T18:04:15Z</time>
      </trkpt>
      <trkpt lat="48.6984" lon="7.32951">
        <ele>401.9</ele>
        <time>2020-05-26T18:04:12Z</time>
      </trkpt>
      <trkpt lat="48.69837" lon="7.32946">
        <ele>401.8</ele>
        <time>2020-05-26T18:04:10Z</time>
      </trkpt>
      <trkpt lat="48.69832" lon="7.3294">
        <ele>401.5</ele>
        <time>2020-05-26T18:04:08Z</time>
      </trkpt>
      <trkpt lat="48.69827" lon="7.32934">
        <ele>401.2</ele>
        <time>2020-05-26T18:04:06Z</time>
      </trkpt>
      <trkpt lat="48.69823" lon="7.32929">
        <ele>400.6</ele>
        <time>2020-05-26T18:04:04Z</time>
      </trkpt>
      <trkpt lat="48.69819" lon="7.32923">
        <ele>399.2</ele>
        <time>2020-05-26T18:04:02Z</time>
      </trkpt>
      <trkpt lat="48.69813" lon="7.32915">
        <ele>398.2</ele>
        <time>2020-05-26T18:04:00Z</time>
      </trkpt>
      <trkpt lat="48.69809" lon="7.32907">
        <ele>397.2</ele>
        <time>2020-05-26T18:03:58Z</time>
      </trkpt>
      <trkpt lat="48.69805" lon="7.32899">
        <ele>396.7</ele>
        <time>2020-05-26T18:03:56Z</time>
      </trkpt>
      <trkpt lat="48.698" lon="7.32891">
        <ele>395.8</ele>
        <time>2020-05-26T18:03:54Z</time>
      </trkpt>
      <trkpt lat="48.69795" lon="7.32883">
        <ele>394.5</ele>
        <time>2020-05-26T18:03:52Z</time>
      </trkpt>
      <trkpt lat="48.69792" lon="7.32874">
        <ele>393.1</ele>
        <time>2020-05-26T18:03:50Z</time>
      </trkpt>
      <trkpt lat="48.69789" lon="7.32867">
        <ele>392.8</ele>
        <time>2020-05-26T18:03:48Z</time>
      </trkpt>
      <trkpt lat="48.69786" lon="7.3286">
        <ele>392.6</ele>
        <time>2020-05-26T18:03:46Z</time>
      </trkpt>
      <trkpt lat="48.69782" lon="7.32853">
        <ele>391.7</ele>
        <time>2020-05-26T18:03:43Z</time>
      </trkpt>
      <trkpt lat="48.69779" lon="7.32847">
        <ele>391.1</ele>
        <time>2020-05-26T18:03:41Z</time>
      </trkpt>
      <trkpt lat="48.69776" lon="7.3284">
        <ele>391</ele>
        <time>2020-05-26T18:03:39Z</time>
      </trkpt>
      <trkpt lat="48.69772" lon="7.32834">
        <ele>391.5</ele>
        <time>2020-05-26T18:03:37Z</time>
      </trkpt>
      <trkpt lat="48.69768" lon="7.32828">
        <ele>392.7</ele>
        <time>2020-05-26T18:03:35Z</time>
      </trkpt>
      <trkpt lat="48.69764" lon="7.32822">
        <ele>393.8</ele>
        <time>2020-05-26T18:03:33Z</time>
      </trkpt>
      <trkpt lat="48.69759" lon="7.32817">
        <ele>394.9</ele>
        <time>2020-05-26T18:03:31Z</time>
      </trkpt>
      <trkpt lat="48.69755" lon="7.32812">
        <ele>396.4</ele>
        <time>2020-05-26T18:03:29Z</time>
      </trkpt>
      <trkpt lat="48.69752" lon="7.32805">
        <ele>398.4</ele>
        <time>2020-05-26T18:03:27Z</time>
      </trkpt>
      <trkpt lat="48.69749" lon="7.32798">
        <ele>401.4</ele>
        <time>2020-05-26T18:03:24Z</time>
      </trkpt>
      <trkpt lat="48.69744" lon="7.32793">
        <ele>404.7</ele>
        <time>2020-05-26T18:03:21Z</time>
      </trkpt>
      <trkpt lat="48.6974" lon="7.3279">
        <ele>406.4</ele>
        <time>2020-05-26T18:03:19Z</time>
      </trkpt>
      <trkpt lat="48.69736" lon="7.32784">
        <ele>410.7</ele>
        <time>2020-05-26T18:03:16Z</time>
      </trkpt>
      <trkpt lat="48.69732" lon="7.32777">
        <ele>414.4</ele>
        <time>2020-05-26T18:03:13Z</time>
      </trkpt>
      <trkpt lat="48.69729" lon="7.3277">
        <ele>408.8</ele>
        <time>2020-05-26T18:03:11Z</time>
      </trkpt>
      <trkpt lat="48.69726" lon="7.3276">
        <ele>408.5</ele>
        <time>2020-05-26T18:03:09Z</time>
      </trkpt>
      <trkpt lat="48.69723" lon="7.32751">
        <ele>403.9</ele>
        <time>2020-05-26T18:03:07Z</time>
      </trkpt>
      <trkpt lat="48.69721" lon="7.32741">
        <ele>396</ele>
        <time>2020-05-26T18:03:05Z</time>
      </trkpt>
      <trkpt lat="48.69717" lon="7.32731">
        <ele>383</ele>
        <time>2020-05-26T18:03:03Z</time>
      </trkpt>
      <trkpt lat="48.69713" lon="7.32725">
        <ele>382.8</ele>
        <time>2020-05-26T18:03:01Z</time>
      </trkpt>
      <trkpt lat="48.69709" lon="7.32719">
        <ele>382.6</ele>
        <time>2020-05-26T18:02:58Z</time>
      </trkpt>
      <trkpt lat="48.69706" lon="7.32713">
        <ele>382.6</ele>
        <time>2020-05-26T18:02:55Z</time>
      </trkpt>
      <trkpt lat="48.69702" lon="7.32705">
        <ele>383</ele>
        <time>2020-05-26T18:02:52Z</time>
      </trkpt>
      <trkpt lat="48.69698" lon="7.32699">
        <ele>384.3</ele>
        <time>2020-05-26T18:02:49Z</time>
      </trkpt>
      <trkpt lat="48.69695" lon="7.32691">
        <ele>385</ele>
        <time>2020-05-26T18:02:46Z</time>
      </trkpt>
      <trkpt lat="48.69692" lon="7.32686">
        <ele>385</ele>
        <time>2020-05-26T18:02:44Z</time>
      </trkpt>
      <trkpt lat="48.69689" lon="7.32679">
        <ele>385.7</ele>
        <time>2020-05-26T18:02:42Z</time>
      </trkpt>
      <trkpt lat="48.69685" lon="7.32673">
        <ele>385.1</ele>
        <time>2020-05-26T18:02:40Z</time>
      </trkpt>
      <trkpt lat="48.6968" lon="7.32666">
        <ele>384.9</ele>
        <time>2020-05-26T18:02:38Z</time>
      </trkpt>
      <trkpt lat="48.69675" lon="7.32664">
        <ele>385.7</ele>
        <time>2020-05-26T18:02:34Z</time>
      </trkpt>
      <trkpt lat="48.69679" lon="7.32668">
        <ele>386.4</ele>
        <time>2020-05-26T18:02:31Z</time>
      </trkpt>
      <trkpt lat="48.69685" lon="7.32664">
        <ele>386.2</ele>
        <time>2020-05-26T18:02:29Z</time>
      </trkpt>
      <trkpt lat="48.69694" lon="7.3266">
        <ele>386.2</ele>
        <time>2020-05-26T18:02:27Z</time>
      </trkpt>
      <trkpt lat="48.69703" lon="7.32659">
        <ele>386.4</ele>
        <time>2020-05-26T18:02:25Z</time>
      </trkpt>
      <trkpt lat="48.69713" lon="7.32657">
        <ele>386.1</ele>
        <time>2020-05-26T18:02:23Z</time>
      </trkpt>
      <trkpt lat="48.69721" lon="7.32654">
        <ele>385.7</ele>
        <time>2020-05-26T18:02:21Z</time>
      </trkpt>
      <trkpt lat="48.69726" lon="7.32658">
        <ele>385.8</ele>
        <time>2020-05-26T18:02:15Z</time>
      </trkpt>
      <trkpt lat="48.69721" lon="7.32656">
        <ele>386.5</ele>
        <time>2020-05-26T18:02:12Z</time>
      </trkpt>
      <trkpt lat="48.69715" lon="7.32656">
        <ele>386.3</ele>
        <time>2020-05-26T18:02:09Z</time>
      </trkpt>
      <trkpt lat="48.69709" lon="7.32654">
        <ele>385.8</ele>
        <time>2020-05-26T18:02:06Z</time>
      </trkpt>
      <trkpt lat="48.69704" lon="7.32652">
        <ele>385.2</ele>
        <time>2020-05-26T18:02:03Z</time>
      </trkpt>
      <trkpt lat="48.69699" lon="7.32651">
        <ele>385.6</ele>
        <time>2020-05-26T18:02:00Z</time>
      </trkpt>
      <trkpt lat="48.69694" lon="7.32652">
        <ele>386.5</ele>
        <time>2020-05-26T18:01:56Z</time>
      </trkpt>
      <trkpt lat="48.6969" lon="7.32651">
        <ele>383.3</ele>
        <time>2020-05-26T18:01:42Z</time>
      </trkpt>
      <trkpt lat="48.69685" lon="7.32652">
        <ele>383</ele>
        <time>2020-05-26T18:01:39Z</time>
      </trkpt>
      <trkpt lat="48.6968" lon="7.32652">
        <ele>383.2</ele>
        <time>2020-05-26T18:01:37Z</time>
      </trkpt>
      <trkpt lat="48.69674" lon="7.3265">
        <ele>382.8</ele>
        <time>2020-05-26T18:01:35Z</time>
      </trkpt>
      <trkpt lat="48.69667" lon="7.32646">
        <ele>383.4</ele>
        <time>2020-05-26T18:01:33Z</time>
      </trkpt>
      <trkpt lat="48.69658" lon="7.32641">
        <ele>383.6</ele>
        <time>2020-05-26T18:01:31Z</time>
      </trkpt>
      <trkpt lat="48.69647" lon="7.32639">
        <ele>384.4</ele>
        <time>2020-05-26T18:01:29Z</time>
      </trkpt>
      <trkpt lat="48.69637" lon="7.3264">
        <ele>385</ele>
        <time>2020-05-26T18:01:27Z</time>
      </trkpt>
      <trkpt lat="48.69628" lon="7.32643">
        <ele>385</ele>
        <time>2020-05-26T18:01:25Z</time>
      </trkpt>
      <trkpt lat="48.69619" lon="7.32647">
        <ele>384.8</ele>
        <time>2020-05-26T18:01:23Z</time>
      </trkpt>
      <trkpt lat="48.69612" lon="7.32648">
        <ele>384.9</ele>
        <time>2020-05-26T18:01:21Z</time>
      </trkpt>
      <trkpt lat="48.69607" lon="7.32647">
        <ele>384.9</ele>
        <time>2020-05-26T18:01:08Z</time>
      </trkpt>
      <trkpt lat="48.69605" lon="7.3264">
        <ele>386.2</ele>
        <time>2020-05-26T18:00:58Z</time>
      </trkpt>
      <trkpt lat="48.696" lon="7.3263">
        <ele>387.1</ele>
        <time>2020-05-26T18:00:55Z</time>
      </trkpt>
      <trkpt lat="48.69597" lon="7.32619">
        <ele>387.8</ele>
        <time>2020-05-26T18:00:53Z</time>
      </trkpt>
      <trkpt lat="48.69588" lon="7.32611">
        <ele>388.6</ele>
        <time>2020-05-26T18:00:50Z</time>
      </trkpt>
      <trkpt lat="48.69581" lon="7.32612">
        <ele>389.2</ele>
        <time>2020-05-26T18:00:48Z</time>
      </trkpt>
      <trkpt lat="48.69574" lon="7.32613">
        <ele>390</ele>
        <time>2020-05-26T18:00:46Z</time>
      </trkpt>
      <trkpt lat="48.69567" lon="7.32615">
        <ele>389.8</ele>
        <time>2020-05-26T18:00:44Z</time>
      </trkpt>
      <trkpt lat="48.6956" lon="7.32619">
        <ele>390.2</ele>
        <time>2020-05-26T18:00:42Z</time>
      </trkpt>
      <trkpt lat="48.69553" lon="7.32624">
        <ele>390.2</ele>
        <time>2020-05-26T18:00:40Z</time>
      </trkpt>
      <trkpt lat="48.69545" lon="7.32629">
        <ele>391.1</ele>
        <time>2020-05-26T18:00:38Z</time>
      </trkpt>
      <trkpt lat="48.69537" lon="7.32633">
        <ele>391.4</ele>
        <time>2020-05-26T18:00:36Z</time>
      </trkpt>
      <trkpt lat="48.69529" lon="7.32635">
        <ele>392.3</ele>
        <time>2020-05-26T18:00:34Z</time>
      </trkpt>
      <trkpt lat="48.69519" lon="7.32634">
        <ele>392.3</ele>
        <time>2020-05-26T18:00:32Z</time>
      </trkpt>
      <trkpt lat="48.6951" lon="7.32628">
        <ele>392.5</ele>
        <time>2020-05-26T18:00:30Z</time>
      </trkpt>
      <trkpt lat="48.69502" lon="7.32624">
        <ele>392.6</ele>
        <time>2020-05-26T18:00:28Z</time>
      </trkpt>
      <trkpt lat="48.69495" lon="7.32622">
        <ele>392.9</ele>
        <time>2020-05-26T18:00:26Z</time>
      </trkpt>
      <trkpt lat="48.69488" lon="7.3262">
        <ele>393.2</ele>
        <time>2020-05-26T18:00:24Z</time>
      </trkpt>
      <trkpt lat="48.69483" lon="7.32616">
        <ele>394.3</ele>
        <time>2020-05-26T18:00:22Z</time>
      </trkpt>
      <trkpt lat="48.69477" lon="7.32611">
        <ele>395.6</ele>
        <time>2020-05-26T18:00:19Z</time>
      </trkpt>
      <trkpt lat="48.69472" lon="7.32608">
        <ele>396.2</ele>
        <time>2020-05-26T17:59:57Z</time>
      </trkpt>
      <trkpt lat="48.69469" lon="7.32603">
        <ele>397.3</ele>
        <time>2020-05-26T17:59:50Z</time>
      </trkpt>
      <trkpt lat="48.69465" lon="7.32598">
        <ele>397.7</ele>
        <time>2020-05-26T17:59:48Z</time>
      </trkpt>
      <trkpt lat="48.69458" lon="7.32586">
        <ele>398.9</ele>
        <time>2020-05-26T17:59:46Z</time>
      </trkpt>
      <trkpt lat="48.69449" lon="7.32574">
        <ele>400.6</ele>
        <time>2020-05-26T17:59:44Z</time>
      </trkpt>
      <trkpt lat="48.69438" lon="7.32564">
        <ele>401.6</ele>
        <time>2020-05-26T17:59:42Z</time>
      </trkpt>
      <trkpt lat="48.69428" lon="7.32556">
        <ele>402.7</ele>
        <time>2020-05-26T17:59:40Z</time>
      </trkpt>
      <trkpt lat="48.69418" lon="7.32548">
        <ele>403.3</ele>
        <time>2020-05-26T17:59:38Z</time>
      </trkpt>
      <trkpt lat="48.69409" lon="7.3254">
        <ele>404.1</ele>
        <time>2020-05-26T17:59:36Z</time>
      </trkpt>
      <trkpt lat="48.694" lon="7.32532">
        <ele>406.5</ele>
        <time>2020-05-26T17:59:34Z</time>
      </trkpt>
      <trkpt lat="48.69393" lon="7.32528">
        <ele>408.5</ele>
        <time>2020-05-26T17:59:32Z</time>
      </trkpt>
      <trkpt lat="48.69387" lon="7.32522">
        <ele>410.1</ele>
        <time>2020-05-26T17:59:30Z</time>
      </trkpt>
      <trkpt lat="48.69381" lon="7.32519">
        <ele>411.8</ele>
        <time>2020-05-26T17:59:28Z</time>
      </trkpt>
      <trkpt lat="48.69373" lon="7.32515">
        <ele>413.4</ele>
        <time>2020-05-26T17:59:26Z</time>
      </trkpt>
      <trkpt lat="48.69365" lon="7.3251">
        <ele>414.7</ele>
        <time>2020-05-26T17:59:24Z</time>
      </trkpt>
      <trkpt lat="48.69357" lon="7.32505">
        <ele>416</ele>
        <time>2020-05-26T17:59:22Z</time>
      </trkpt>
      <trkpt lat="48.6935" lon="7.32503">
        <ele>417.5</ele>
        <time>2020-05-26T17:59:20Z</time>
      </trkpt>
      <trkpt lat="48.69345" lon="7.32497">
        <ele>419.8</ele>
        <time>2020-05-26T17:59:18Z</time>
      </trkpt>
      <trkpt lat="48.69341" lon="7.3249">
        <ele>421.9</ele>
        <time>2020-05-26T17:59:16Z</time>
      </trkpt>
      <trkpt lat="48.69335" lon="7.32481">
        <ele>423.5</ele>
        <time>2020-05-26T17:59:14Z</time>
      </trkpt>
      <trkpt lat="48.6933" lon="7.3247">
        <ele>424.9</ele>
        <time>2020-05-26T17:59:12Z</time>
      </trkpt>
      <trkpt lat="48.69326" lon="7.3246">
        <ele>426.7</ele>
        <time>2020-05-26T17:59:10Z</time>
      </trkpt>
      <trkpt lat="48.69322" lon="7.32454">
        <ele>428.4</ele>
        <time>2020-05-26T17:59:08Z</time>
      </trkpt>
      <trkpt lat="48.69318" lon="7.32446">
        <ele>430.5</ele>
        <time>2020-05-26T17:59:06Z</time>
      </trkpt>
      <trkpt lat="48.69314" lon="7.32436">
        <ele>432.1</ele>
        <time>2020-05-26T17:59:04Z</time>
      </trkpt>
      <trkpt lat="48.6931" lon="7.32424">
        <ele>434.2</ele>
        <time>2020-05-26T17:59:02Z</time>
      </trkpt>
      <trkpt lat="48.69302" lon="7.32415">
        <ele>435.7</ele>
        <time>2020-05-26T17:59:00Z</time>
      </trkpt>
      <trkpt lat="48.69293" lon="7.32405">
        <ele>437.5</ele>
        <time>2020-05-26T17:58:58Z</time>
      </trkpt>
      <trkpt lat="48.69286" lon="7.32393">
        <ele>439</ele>
        <time>2020-05-26T17:58:56Z</time>
      </trkpt>
      <trkpt lat="48.6928" lon="7.32381">
        <ele>439.7</ele>
        <time>2020-05-26T17:58:54Z</time>
      </trkpt>
      <trkpt lat="48.69274" lon="7.3237">
        <ele>440.3</ele>
        <time>2020-05-26T17:58:52Z</time>
      </trkpt>
      <trkpt lat="48.69269" lon="7.32353">
        <ele>440.5</ele>
        <time>2020-05-26T17:58:50Z</time>
      </trkpt>
      <trkpt lat="48.69262" lon="7.32336">
        <ele>440.5</ele>
        <time>2020-05-26T17:58:48Z</time>
      </trkpt>
      <trkpt lat="48.69254" lon="7.32322">
        <ele>440.9</ele>
        <time>2020-05-26T17:58:46Z</time>
      </trkpt>
      <trkpt lat="48.69246" lon="7.32311">
        <ele>441.2</ele>
        <time>2020-05-26T17:58:44Z</time>
      </trkpt>
      <trkpt lat="48.69237" lon="7.32302">
        <ele>441.3</ele>
        <time>2020-05-26T17:58:42Z</time>
      </trkpt>
      <trkpt lat="48.69229" lon="7.32294">
        <ele>441.9</ele>
        <time>2020-05-26T17:58:40Z</time>
      </trkpt>
      <trkpt lat="48.6922" lon="7.32284">
        <ele>441.9</ele>
        <time>2020-05-26T17:58:38Z</time>
      </trkpt>
      <trkpt lat="48.6921" lon="7.32272">
        <ele>440.9</ele>
        <time>2020-05-26T17:58:36Z</time>
      </trkpt>
      <trkpt lat="48.69204" lon="7.32255">
        <ele>438.7</ele>
        <time>2020-05-26T17:58:34Z</time>
      </trkpt>
      <trkpt lat="48.69197" lon="7.32239">
        <ele>433.1</ele>
        <time>2020-05-26T17:58:32Z</time>
      </trkpt>
      <trkpt lat="48.69189" lon="7.32225">
        <ele>427.1</ele>
        <time>2020-05-26T17:58:30Z</time>
      </trkpt>
      <trkpt lat="48.69183" lon="7.3221">
        <ele>413.3</ele>
        <time>2020-05-26T17:58:28Z</time>
      </trkpt>
      <trkpt lat="48.69179" lon="7.32193">
        <ele>408.2</ele>
        <time>2020-05-26T17:58:26Z</time>
      </trkpt>
      <trkpt lat="48.69174" lon="7.32177">
        <ele>403</ele>
        <time>2020-05-26T17:58:24Z</time>
      </trkpt>
      <trkpt lat="48.69171" lon="7.32163">
        <ele>402.4</ele>
        <time>2020-05-26T17:58:22Z</time>
      </trkpt>
      <trkpt lat="48.69169" lon="7.3215">
        <ele>398.9</ele>
        <time>2020-05-26T17:58:20Z</time>
      </trkpt>
      <trkpt lat="48.69165" lon="7.32132">
        <ele>427.6</ele>
        <time>2020-05-26T17:58:18Z</time>
      </trkpt>
      <trkpt lat="48.69161" lon="7.32119">
        <ele>421.3</ele>
        <time>2020-05-26T17:58:16Z</time>
      </trkpt>
      <trkpt lat="48.69159" lon="7.32107">
        <ele>414.6</ele>
        <time>2020-05-26T17:58:14Z</time>
      </trkpt>
      <trkpt lat="48.69156" lon="7.32092">
        <ele>405.1</ele>
        <time>2020-05-26T17:58:12Z</time>
      </trkpt>
      <trkpt lat="48.69154" lon="7.32075">
        <ele>400.4</ele>
        <time>2020-05-26T17:58:10Z</time>
      </trkpt>
      <trkpt lat="48.69148" lon="7.32062">
        <ele>393.5</ele>
        <time>2020-05-26T17:58:08Z</time>
      </trkpt>
      <trkpt lat="48.69145" lon="7.3205">
        <ele>389.6</ele>
        <time>2020-05-26T17:58:06Z</time>
      </trkpt>
      <trkpt lat="48.69142" lon="7.3204">
        <ele>403.4</ele>
        <time>2020-05-26T17:58:04Z</time>
      </trkpt>
      <trkpt lat="48.69139" lon="7.3203">
        <ele>400.9</ele>
        <time>2020-05-26T17:58:02Z</time>
      </trkpt>
      <trkpt lat="48.69135" lon="7.32022">
        <ele>393.6</ele>
        <time>2020-05-26T17:58:00Z</time>
      </trkpt>
      <trkpt lat="48.6913" lon="7.32014">
        <ele>416.4</ele>
        <time>2020-05-26T17:57:58Z</time>
      </trkpt>
      <trkpt lat="48.69124" lon="7.32005">
        <ele>407.9</ele>
        <time>2020-05-26T17:57:56Z</time>
      </trkpt>
      <trkpt lat="48.69119" lon="7.31997">
        <ele>402.3</ele>
        <time>2020-05-26T17:57:54Z</time>
      </trkpt>
      <trkpt lat="48.69114" lon="7.31992">
        <ele>398</ele>
        <time>2020-05-26T17:57:52Z</time>
      </trkpt>
      <trkpt lat="48.6911" lon="7.3199">
        <ele>411.1</ele>
        <time>2020-05-26T17:57:50Z</time>
      </trkpt>
      <trkpt lat="48.69104" lon="7.31989">
        <ele>405.8</ele>
        <time>2020-05-26T17:57:48Z</time>
      </trkpt>
      <trkpt lat="48.69096" lon="7.31988">
        <ele>428.2</ele>
        <time>2020-05-26T17:57:46Z</time>
      </trkpt>
      <trkpt lat="48.69086" lon="7.31987">
        <ele>431</ele>
        <time>2020-05-26T17:57:44Z</time>
      </trkpt>
      <trkpt lat="48.69072" lon="7.31988">
        <ele>477.8</ele>
        <time>2020-05-26T17:57:42Z</time>
      </trkpt>
      <trkpt lat="48.69061" lon="7.31986">
        <ele>479</ele>
        <time>2020-05-26T17:57:40Z</time>
      </trkpt>
      <trkpt lat="48.69051" lon="7.31984">
        <ele>480.6</ele>
        <time>2020-05-26T17:57:38Z</time>
      </trkpt>
      <trkpt lat="48.69041" lon="7.31978">
        <ele>481.5</ele>
        <time>2020-05-26T17:57:36Z</time>
      </trkpt>
      <trkpt lat="48.69034" lon="7.31975">
        <ele>482</ele>
        <time>2020-05-26T17:57:34Z</time>
      </trkpt>
      <trkpt lat="48.69028" lon="7.31972">
        <ele>482.2</ele>
        <time>2020-05-26T17:57:32Z</time>
      </trkpt>
      <trkpt lat="48.69023" lon="7.31967">
        <ele>479.4</ele>
        <time>2020-05-26T17:57:21Z</time>
      </trkpt>
      <trkpt lat="48.69019" lon="7.31964">
        <ele>479.5</ele>
        <time>2020-05-26T17:57:18Z</time>
      </trkpt>
      <trkpt lat="48.69012" lon="7.31962">
        <ele>480.7</ele>
        <time>2020-05-26T17:57:16Z</time>
      </trkpt>
      <trkpt lat="48.69002" lon="7.31961">
        <ele>481.7</ele>
        <time>2020-05-26T17:57:14Z</time>
      </trkpt>
      <trkpt lat="48.68994" lon="7.31958">
        <ele>482.8</ele>
        <time>2020-05-26T17:57:12Z</time>
      </trkpt>
      <trkpt lat="48.68987" lon="7.31955">
        <ele>482.6</ele>
        <time>2020-05-26T17:57:10Z</time>
      </trkpt>
      <trkpt lat="48.6898" lon="7.31952">
        <ele>482.4</ele>
        <time>2020-05-26T17:57:08Z</time>
      </trkpt>
      <trkpt lat="48.68971" lon="7.31947">
        <ele>482.1</ele>
        <time>2020-05-26T17:57:06Z</time>
      </trkpt>
      <trkpt lat="48.68964" lon="7.31943">
        <ele>482.3</ele>
        <time>2020-05-26T17:57:04Z</time>
      </trkpt>
      <trkpt lat="48.68954" lon="7.31939">
        <ele>482.8</ele>
        <time>2020-05-26T17:57:01Z</time>
      </trkpt>
      <trkpt lat="48.68948" lon="7.31936">
        <ele>481.9</ele>
        <time>2020-05-26T17:56:59Z</time>
      </trkpt>
      <trkpt lat="48.68944" lon="7.31934">
        <ele>480.3</ele>
        <time>2020-05-26T17:56:57Z</time>
      </trkpt>
      <trkpt lat="48.68938" lon="7.31933">
        <ele>479</ele>
        <time>2020-05-26T17:56:55Z</time>
      </trkpt>
      <trkpt lat="48.68932" lon="7.3193">
        <ele>478</ele>
        <time>2020-05-26T17:56:53Z</time>
      </trkpt>
      <trkpt lat="48.68926" lon="7.31928">
        <ele>477.2</ele>
        <time>2020-05-26T17:56:51Z</time>
      </trkpt>
      <trkpt lat="48.68919" lon="7.31927">
        <ele>476.9</ele>
        <time>2020-05-26T17:56:49Z</time>
      </trkpt>
      <trkpt lat="48.68914" lon="7.31925">
        <ele>476.8</ele>
        <time>2020-05-26T17:56:47Z</time>
      </trkpt>
      <trkpt lat="48.68908" lon="7.31923">
        <ele>477.4</ele>
        <time>2020-05-26T17:56:45Z</time>
      </trkpt>
      <trkpt lat="48.68904" lon="7.31919">
        <ele>476.5</ele>
        <time>2020-05-26T17:56:43Z</time>
      </trkpt>
      <trkpt lat="48.68898" lon="7.31914">
        <ele>476.1</ele>
        <time>2020-05-26T17:56:40Z</time>
      </trkpt>
      <trkpt lat="48.68893" lon="7.31912">
        <ele>478.3</ele>
        <time>2020-05-26T17:56:38Z</time>
      </trkpt>
      <trkpt lat="48.68888" lon="7.31909">
        <ele>477.8</ele>
        <time>2020-05-26T17:56:36Z</time>
      </trkpt>
      <trkpt lat="48.68884" lon="7.31906">
        <ele>476.7</ele>
        <time>2020-05-26T17:56:34Z</time>
      </trkpt>
      <trkpt lat="48.68878" lon="7.31903">
        <ele>475.8</ele>
        <time>2020-05-26T17:56:32Z</time>
      </trkpt>
      <trkpt lat="48.68873" lon="7.319">
        <ele>474.3</ele>
        <time>2020-05-26T17:56:30Z</time>
      </trkpt>
      <trkpt lat="48.68869" lon="7.31897">
        <ele>473.1</ele>
        <time>2020-05-26T17:56:28Z</time>
      </trkpt>
      <trkpt lat="48.68864" lon="7.31893">
        <ele>472.3</ele>
        <time>2020-05-26T17:56:26Z</time>
      </trkpt>
      <trkpt lat="48.6886" lon="7.3189">
        <ele>473</ele>
        <time>2020-05-26T17:56:24Z</time>
      </trkpt>
      <trkpt lat="48.68856" lon="7.31886">
        <ele>472.4</ele>
        <time>2020-05-26T17:56:22Z</time>
      </trkpt>
      <trkpt lat="48.68852" lon="7.31881">
        <ele>471.6</ele>
        <time>2020-05-26T17:56:20Z</time>
      </trkpt>
      <trkpt lat="48.68847" lon="7.31877">
        <ele>470.7</ele>
        <time>2020-05-26T17:56:18Z</time>
      </trkpt>
      <trkpt lat="48.68842" lon="7.31871">
        <ele>469.5</ele>
        <time>2020-05-26T17:56:15Z</time>
      </trkpt>
      <trkpt lat="48.68839" lon="7.31866">
        <ele>469.6</ele>
        <time>2020-05-26T17:56:13Z</time>
      </trkpt>
      <trkpt lat="48.68833" lon="7.3186">
        <ele>468.8</ele>
        <time>2020-05-26T17:56:10Z</time>
      </trkpt>
      <trkpt lat="48.6883" lon="7.31857">
        <ele>469.4</ele>
        <time>2020-05-26T17:56:08Z</time>
      </trkpt>
      <trkpt lat="48.68824" lon="7.31852">
        <ele>468.7</ele>
        <time>2020-05-26T17:56:05Z</time>
      </trkpt>
      <trkpt lat="48.6882" lon="7.31847">
        <ele>467.8</ele>
        <time>2020-05-26T17:56:03Z</time>
      </trkpt>
      <trkpt lat="48.68815" lon="7.31842">
        <ele>466.7</ele>
        <time>2020-05-26T17:56:01Z</time>
      </trkpt>
      <trkpt lat="48.68811" lon="7.31837">
        <ele>466.3</ele>
        <time>2020-05-26T17:55:59Z</time>
      </trkpt>
      <trkpt lat="48.68808" lon="7.31832">
        <ele>466</ele>
        <time>2020-05-26T17:55:57Z</time>
      </trkpt>
      <trkpt lat="48.68805" lon="7.31827">
        <ele>465.5</ele>
        <time>2020-05-26T17:55:55Z</time>
      </trkpt>
      <trkpt lat="48.68802" lon="7.31821">
        <ele>464.6</ele>
        <time>2020-05-26T17:55:53Z</time>
      </trkpt>
      <trkpt lat="48.68797" lon="7.31814">
        <ele>463.6</ele>
        <time>2020-05-26T17:55:51Z</time>
      </trkpt>
      <trkpt lat="48.68792" lon="7.31807">
        <ele>462.8</ele>
        <time>2020-05-26T17:55:49Z</time>
      </trkpt>
      <trkpt lat="48.68788" lon="7.31799">
        <ele>462.5</ele>
        <time>2020-05-26T17:55:47Z</time>
      </trkpt>
      <trkpt lat="48.68784" lon="7.31793">
        <ele>462</ele>
        <time>2020-05-26T17:55:45Z</time>
      </trkpt>
      <trkpt lat="48.6878" lon="7.31786">
        <ele>461.9</ele>
        <time>2020-05-26T17:55:43Z</time>
      </trkpt>
      <trkpt lat="48.68777" lon="7.3178">
        <ele>462.1</ele>
        <time>2020-05-26T17:55:41Z</time>
      </trkpt>
      <trkpt lat="48.68773" lon="7.31773">
        <ele>462.7</ele>
        <time>2020-05-26T17:55:39Z</time>
      </trkpt>
      <trkpt lat="48.6877" lon="7.31767">
        <ele>462.7</ele>
        <time>2020-05-26T17:55:37Z</time>
      </trkpt>
      <trkpt lat="48.68766" lon="7.3176">
        <ele>463</ele>
        <time>2020-05-26T17:55:35Z</time>
      </trkpt>
      <trkpt lat="48.68762" lon="7.31753">
        <ele>463.7</ele>
        <time>2020-05-26T17:55:33Z</time>
      </trkpt>
      <trkpt lat="48.68758" lon="7.31746">
        <ele>463.9</ele>
        <time>2020-05-26T17:55:31Z</time>
      </trkpt>
      <trkpt lat="48.68754" lon="7.31739">
        <ele>464</ele>
        <time>2020-05-26T17:55:29Z</time>
      </trkpt>
      <trkpt lat="48.6875" lon="7.31733">
        <ele>464.5</ele>
        <time>2020-05-26T17:55:27Z</time>
      </trkpt>
      <trkpt lat="48.68745" lon="7.31726">
        <ele>464.9</ele>
        <time>2020-05-26T17:55:25Z</time>
      </trkpt>
      <trkpt lat="48.6874" lon="7.3172">
        <ele>464.8</ele>
        <time>2020-05-26T17:55:23Z</time>
      </trkpt>
      <trkpt lat="48.68735" lon="7.31715">
        <ele>464</ele>
        <time>2020-05-26T17:55:21Z</time>
      </trkpt>
      <trkpt lat="48.68729" lon="7.31709">
        <ele>463.5</ele>
        <time>2020-05-26T17:55:19Z</time>
      </trkpt>
      <trkpt lat="48.68725" lon="7.31701">
        <ele>462.6</ele>
        <time>2020-05-26T17:55:17Z</time>
      </trkpt>
      <trkpt lat="48.6872" lon="7.31693">
        <ele>461.9</ele>
        <time>2020-05-26T17:55:15Z</time>
      </trkpt>
      <trkpt lat="48.68715" lon="7.31687">
        <ele>461.7</ele>
        <time>2020-05-26T17:55:13Z</time>
      </trkpt>
      <trkpt lat="48.68711" lon="7.31679">
        <ele>462.2</ele>
        <time>2020-05-26T17:55:11Z</time>
      </trkpt>
      <trkpt lat="48.68708" lon="7.31671">
        <ele>461.8</ele>
        <time>2020-05-26T17:55:09Z</time>
      </trkpt>
      <trkpt lat="48.68703" lon="7.31664">
        <ele>460.7</ele>
        <time>2020-05-26T17:55:07Z</time>
      </trkpt>
      <trkpt lat="48.68698" lon="7.31655">
        <ele>460.5</ele>
        <time>2020-05-26T17:55:05Z</time>
      </trkpt>
      <trkpt lat="48.68692" lon="7.31645">
        <ele>460.4</ele>
        <time>2020-05-26T17:55:03Z</time>
      </trkpt>
      <trkpt lat="48.68686" lon="7.31635">
        <ele>461.4</ele>
        <time>2020-05-26T17:55:01Z</time>
      </trkpt>
      <trkpt lat="48.68679" lon="7.31626">
        <ele>461.8</ele>
        <time>2020-05-26T17:54:59Z</time>
      </trkpt>
      <trkpt lat="48.6867" lon="7.31615">
        <ele>463.5</ele>
        <time>2020-05-26T17:54:57Z</time>
      </trkpt>
      <trkpt lat="48.68663" lon="7.31609">
        <ele>463.6</ele>
        <time>2020-05-26T17:54:55Z</time>
      </trkpt>
      <trkpt lat="48.68658" lon="7.31604">
        <ele>464</ele>
        <time>2020-05-26T17:54:53Z</time>
      </trkpt>
      <trkpt lat="48.68653" lon="7.316">
        <ele>464.4</ele>
        <time>2020-05-26T17:54:51Z</time>
      </trkpt>
      <trkpt lat="48.68648" lon="7.31596">
        <ele>464.6</ele>
        <time>2020-05-26T17:54:49Z</time>
      </trkpt>
      <trkpt lat="48.68642" lon="7.31591">
        <ele>464.8</ele>
        <time>2020-05-26T17:54:47Z</time>
      </trkpt>
      <trkpt lat="48.68635" lon="7.31586">
        <ele>464.3</ele>
        <time>2020-05-26T17:54:44Z</time>
      </trkpt>
      <trkpt lat="48.6863" lon="7.31583">
        <ele>464.8</ele>
        <time>2020-05-26T17:54:40Z</time>
      </trkpt>
      <trkpt lat="48.68626" lon="7.31579">
        <ele>462</ele>
        <time>2020-05-26T17:53:35Z</time>
      </trkpt>
      <trkpt lat="48.68624" lon="7.31573">
        <ele>458.6</ele>
        <time>2020-05-26T17:53:29Z</time>
      </trkpt>
      <trkpt lat="48.68618" lon="7.31568">
        <ele>459.1</ele>
        <time>2020-05-26T17:53:27Z</time>
      </trkpt>
      <trkpt lat="48.68608" lon="7.31563">
        <ele>460.1</ele>
        <time>2020-05-26T17:53:25Z</time>
      </trkpt>
      <trkpt lat="48.68596" lon="7.31558">
        <ele>459.9</ele>
        <time>2020-05-26T17:53:23Z</time>
      </trkpt>
      <trkpt lat="48.68583" lon="7.31551">
        <ele>459.9</ele>
        <time>2020-05-26T17:53:21Z</time>
      </trkpt>
      <trkpt lat="48.68568" lon="7.31543">
        <ele>460</ele>
        <time>2020-05-26T17:53:19Z</time>
      </trkpt>
      <trkpt lat="48.68553" lon="7.31538">
        <ele>460.8</ele>
        <time>2020-05-26T17:53:17Z</time>
      </trkpt>
      <trkpt lat="48.68537" lon="7.31533">
        <ele>461.5</ele>
        <time>2020-05-26T17:53:15Z</time>
      </trkpt>
      <trkpt lat="48.68525" lon="7.31529">
        <ele>461.6</ele>
        <time>2020-05-26T17:53:13Z</time>
      </trkpt>
      <trkpt lat="48.68514" lon="7.31526">
        <ele>463.1</ele>
        <time>2020-05-26T17:53:11Z</time>
      </trkpt>
      <trkpt lat="48.68505" lon="7.31523">
        <ele>464.6</ele>
        <time>2020-05-26T17:53:09Z</time>
      </trkpt>
      <trkpt lat="48.68493" lon="7.3152">
        <ele>464.2</ele>
        <time>2020-05-26T17:53:07Z</time>
      </trkpt>
      <trkpt lat="48.68482" lon="7.31518">
        <ele>465</ele>
        <time>2020-05-26T17:53:05Z</time>
      </trkpt>
      <trkpt lat="48.68473" lon="7.31516">
        <ele>465.2</ele>
        <time>2020-05-26T17:53:03Z</time>
      </trkpt>
      <trkpt lat="48.68462" lon="7.31512">
        <ele>465.6</ele>
        <time>2020-05-26T17:53:01Z</time>
      </trkpt>
      <trkpt lat="48.68453" lon="7.31505">
        <ele>466.5</ele>
        <time>2020-05-26T17:52:59Z</time>
      </trkpt>
      <trkpt lat="48.68444" lon="7.31499">
        <ele>467.9</ele>
        <time>2020-05-26T17:52:57Z</time>
      </trkpt>
      <trkpt lat="48.68436" lon="7.31492">
        <ele>469.4</ele>
        <time>2020-05-26T17:52:55Z</time>
      </trkpt>
      <trkpt lat="48.68427" lon="7.31487">
        <ele>470.4</ele>
        <time>2020-05-26T17:52:53Z</time>
      </trkpt>
      <trkpt lat="48.68418" lon="7.31482">
        <ele>471.7</ele>
        <time>2020-05-26T17:52:51Z</time>
      </trkpt>
      <trkpt lat="48.68408" lon="7.31476">
        <ele>472.7</ele>
        <time>2020-05-26T17:52:49Z</time>
      </trkpt>
      <trkpt lat="48.68399" lon="7.31467">
        <ele>473.3</ele>
        <time>2020-05-26T17:52:47Z</time>
      </trkpt>
      <trkpt lat="48.68392" lon="7.3146">
        <ele>473.1</ele>
        <time>2020-05-26T17:52:45Z</time>
      </trkpt>
      <trkpt lat="48.68383" lon="7.31452">
        <ele>473.3</ele>
        <time>2020-05-26T17:52:43Z</time>
      </trkpt>
      <trkpt lat="48.68372" lon="7.31442">
        <ele>473.1</ele>
        <time>2020-05-26T17:52:41Z</time>
      </trkpt>
      <trkpt lat="48.68363" lon="7.31434">
        <ele>473.3</ele>
        <time>2020-05-26T17:52:39Z</time>
      </trkpt>
      <trkpt lat="48.68356" lon="7.31426">
        <ele>473.8</ele>
        <time>2020-05-26T17:52:37Z</time>
      </trkpt>
      <trkpt lat="48.68347" lon="7.31415">
        <ele>474</ele>
        <time>2020-05-26T17:52:35Z</time>
      </trkpt>
      <trkpt lat="48.68338" lon="7.31405">
        <ele>474.4</ele>
        <time>2020-05-26T17:52:33Z</time>
      </trkpt>
      <trkpt lat="48.68329" lon="7.31398">
        <ele>474.6</ele>
        <time>2020-05-26T17:52:31Z</time>
      </trkpt>
      <trkpt lat="48.6832" lon="7.3139">
        <ele>474.3</ele>
        <time>2020-05-26T17:52:29Z</time>
      </trkpt>
      <trkpt lat="48.68311" lon="7.31384">
        <ele>474.4</ele>
        <time>2020-05-26T17:52:27Z</time>
      </trkpt>
      <trkpt lat="48.68302" lon="7.31379">
        <ele>474.8</ele>
        <time>2020-05-26T17:52:25Z</time>
      </trkpt>
      <trkpt lat="48.68294" lon="7.31371">
        <ele>475.6</ele>
        <time>2020-05-26T17:52:23Z</time>
      </trkpt>
      <trkpt lat="48.68287" lon="7.31362">
        <ele>475.4</ele>
        <time>2020-05-26T17:52:21Z</time>
      </trkpt>
      <trkpt lat="48.68281" lon="7.31357">
        <ele>475.8</ele>
        <time>2020-05-26T17:52:19Z</time>
      </trkpt>
      <trkpt lat="48.68277" lon="7.31351">
        <ele>475.8</ele>
        <time>2020-05-26T17:52:17Z</time>
      </trkpt>
      <trkpt lat="48.68273" lon="7.31345">
        <ele>476.5</ele>
        <time>2020-05-26T17:52:14Z</time>
      </trkpt>
      <trkpt lat="48.68269" lon="7.3134">
        <ele>479.6</ele>
        <time>2020-05-26T17:52:07Z</time>
      </trkpt>
      <trkpt lat="48.68265" lon="7.31335">
        <ele>479.8</ele>
        <time>2020-05-26T17:52:05Z</time>
      </trkpt>
      <trkpt lat="48.6826" lon="7.31329">
        <ele>479.5</ele>
        <time>2020-05-26T17:52:03Z</time>
      </trkpt>
      <trkpt lat="48.68254" lon="7.31324">
        <ele>479.4</ele>
        <time>2020-05-26T17:52:01Z</time>
      </trkpt>
      <trkpt lat="48.68245" lon="7.31319">
        <ele>480</ele>
        <time>2020-05-26T17:51:59Z</time>
      </trkpt>
      <trkpt lat="48.68236" lon="7.31311">
        <ele>478.8</ele>
        <time>2020-05-26T17:51:56Z</time>
      </trkpt>
      <trkpt lat="48.6823" lon="7.31303">
        <ele>477.9</ele>
        <time>2020-05-26T17:51:54Z</time>
      </trkpt>
      <trkpt lat="48.68222" lon="7.31286">
        <ele>476.6</ele>
        <time>2020-05-26T17:51:51Z</time>
      </trkpt>
      <trkpt lat="48.68219" lon="7.31278">
        <ele>474.8</ele>
        <time>2020-05-26T17:51:49Z</time>
      </trkpt>
      <trkpt lat="48.68214" lon="7.31269">
        <ele>473.7</ele>
        <time>2020-05-26T17:51:47Z</time>
      </trkpt>
      <trkpt lat="48.68208" lon="7.31255">
        <ele>471.6</ele>
        <time>2020-05-26T17:51:44Z</time>
      </trkpt>
      <trkpt lat="48.68204" lon="7.31244">
        <ele>472.3</ele>
        <time>2020-05-26T17:51:42Z</time>
      </trkpt>
      <trkpt lat="48.68199" lon="7.31233">
        <ele>472.3</ele>
        <time>2020-05-26T17:51:40Z</time>
      </trkpt>
      <trkpt lat="48.68189" lon="7.31217">
        <ele>471.2</ele>
        <time>2020-05-26T17:51:37Z</time>
      </trkpt>
      <trkpt lat="48.68184" lon="7.31208">
        <ele>470.6</ele>
        <time>2020-05-26T17:51:35Z</time>
      </trkpt>
      <trkpt lat="48.68177" lon="7.31201">
        <ele>470.7</ele>
        <time>2020-05-26T17:51:33Z</time>
      </trkpt>
      <trkpt lat="48.68172" lon="7.31192">
        <ele>471.5</ele>
        <time>2020-05-26T17:51:31Z</time>
      </trkpt>
      <trkpt lat="48.68168" lon="7.31184">
        <ele>471.5</ele>
        <time>2020-05-26T17:51:29Z</time>
      </trkpt>
      <trkpt lat="48.68161" lon="7.31175">
        <ele>471.3</ele>
        <time>2020-05-26T17:51:27Z</time>
      </trkpt>
      <trkpt lat="48.68157" lon="7.31168">
        <ele>471.4</ele>
        <time>2020-05-26T17:51:24Z</time>
      </trkpt>
      <trkpt lat="48.68156" lon="7.31162">
        <ele>474.4</ele>
        <time>2020-05-26T17:51:02Z</time>
      </trkpt>
      <trkpt lat="48.68152" lon="7.31157">
        <ele>474.4</ele>
        <time>2020-05-26T17:50:57Z</time>
      </trkpt>
      <trkpt lat="48.68147" lon="7.31156">
        <ele>474.5</ele>
        <time>2020-05-26T17:50:54Z</time>
      </trkpt>
      <trkpt lat="48.68142" lon="7.31157">
        <ele>475.3</ele>
        <time>2020-05-26T17:50:52Z</time>
      </trkpt>
      <trkpt lat="48.68133" lon="7.31154">
        <ele>476.3</ele>
        <time>2020-05-26T17:50:49Z</time>
      </trkpt>
      <trkpt lat="48.68125" lon="7.31139">
        <ele>477.4</ele>
        <time>2020-05-26T17:50:46Z</time>
      </trkpt>
      <trkpt lat="48.68119" lon="7.31129">
        <ele>478.1</ele>
        <time>2020-05-26T17:50:44Z</time>
      </trkpt>
      <trkpt lat="48.68111" lon="7.3112">
        <ele>478.5</ele>
        <time>2020-05-26T17:50:42Z</time>
      </trkpt>
      <trkpt lat="48.68103" lon="7.31113">
        <ele>479</ele>
        <time>2020-05-26T17:50:40Z</time>
      </trkpt>
      <trkpt lat="48.68095" lon="7.31107">
        <ele>478.8</ele>
        <time>2020-05-26T17:50:38Z</time>
      </trkpt>
      <trkpt lat="48.68088" lon="7.31099">
        <ele>478.7</ele>
        <time>2020-05-26T17:50:36Z</time>
      </trkpt>
      <trkpt lat="48.68078" lon="7.31089">
        <ele>478.1</ele>
        <time>2020-05-26T17:50:34Z</time>
      </trkpt>
      <trkpt lat="48.6807" lon="7.31077">
        <ele>477.9</ele>
        <time>2020-05-26T17:50:32Z</time>
      </trkpt>
      <trkpt lat="48.68061" lon="7.31066">
        <ele>478.2</ele>
        <time>2020-05-26T17:50:30Z</time>
      </trkpt>
      <trkpt lat="48.68053" lon="7.31055">
        <ele>479.2</ele>
        <time>2020-05-26T17:50:28Z</time>
      </trkpt>
      <trkpt lat="48.68046" lon="7.31044">
        <ele>480.8</ele>
        <time>2020-05-26T17:50:26Z</time>
      </trkpt>
      <trkpt lat="48.68041" lon="7.31029">
        <ele>481</ele>
        <time>2020-05-26T17:50:24Z</time>
      </trkpt>
      <trkpt lat="48.68036" lon="7.3101">
        <ele>481</ele>
        <time>2020-05-26T17:50:22Z</time>
      </trkpt>
      <trkpt lat="48.68032" lon="7.30994">
        <ele>480.8</ele>
        <time>2020-05-26T17:50:20Z</time>
      </trkpt>
      <trkpt lat="48.68031" lon="7.30978">
        <ele>481.7</ele>
        <time>2020-05-26T17:50:18Z</time>
      </trkpt>
      <trkpt lat="48.68031" lon="7.30963">
        <ele>482.1</ele>
        <time>2020-05-26T17:50:16Z</time>
      </trkpt>
      <trkpt lat="48.68031" lon="7.30948">
        <ele>482.6</ele>
        <time>2020-05-26T17:50:14Z</time>
      </trkpt>
      <trkpt lat="48.68033" lon="7.30932">
        <ele>483.1</ele>
        <time>2020-05-26T17:50:12Z</time>
      </trkpt>
      <trkpt lat="48.68037" lon="7.30914">
        <ele>483.7</ele>
        <time>2020-05-26T17:50:10Z</time>
      </trkpt>
      <trkpt lat="48.68043" lon="7.30897">
        <ele>484.8</ele>
        <time>2020-05-26T17:50:08Z</time>
      </trkpt>
      <trkpt lat="48.68048" lon="7.30881">
        <ele>485</ele>
        <time>2020-05-26T17:50:06Z</time>
      </trkpt>
      <trkpt lat="48.68053" lon="7.30868">
        <ele>485.3</ele>
        <time>2020-05-26T17:50:04Z</time>
      </trkpt>
      <trkpt lat="48.68059" lon="7.30856">
        <ele>485.7</ele>
        <time>2020-05-26T17:50:02Z</time>
      </trkpt>
      <trkpt lat="48.68066" lon="7.30834">
        <ele>487.2</ele>
        <time>2020-05-26T17:49:59Z</time>
      </trkpt>
      <trkpt lat="48.68071" lon="7.3082">
        <ele>488.2</ele>
        <time>2020-05-26T17:49:57Z</time>
      </trkpt>
      <trkpt lat="48.68074" lon="7.30804">
        <ele>489.3</ele>
        <time>2020-05-26T17:49:55Z</time>
      </trkpt>
      <trkpt lat="48.68075" lon="7.30789">
        <ele>490.1</ele>
        <time>2020-05-26T17:49:53Z</time>
      </trkpt>
      <trkpt lat="48.68076" lon="7.30773">
        <ele>490.7</ele>
        <time>2020-05-26T17:49:51Z</time>
      </trkpt>
      <trkpt lat="48.68076" lon="7.30757">
        <ele>490.9</ele>
        <time>2020-05-26T17:49:49Z</time>
      </trkpt>
      <trkpt lat="48.68073" lon="7.30739">
        <ele>491.2</ele>
        <time>2020-05-26T17:49:47Z</time>
      </trkpt>
      <trkpt lat="48.68071" lon="7.30726">
        <ele>490.9</ele>
        <time>2020-05-26T17:49:45Z</time>
      </trkpt>
      <trkpt lat="48.68069" lon="7.30713">
        <ele>490.5</ele>
        <time>2020-05-26T17:49:43Z</time>
      </trkpt>
      <trkpt lat="48.68066" lon="7.30698">
        <ele>490.6</ele>
        <time>2020-05-26T17:49:41Z</time>
      </trkpt>
      <trkpt lat="48.68063" lon="7.30684">
        <ele>490.7</ele>
        <time>2020-05-26T17:49:39Z</time>
      </trkpt>
      <trkpt lat="48.6806" lon="7.30673">
        <ele>491.2</ele>
        <time>2020-05-26T17:49:37Z</time>
      </trkpt>
      <trkpt lat="48.68059" lon="7.30662">
        <ele>491.9</ele>
        <time>2020-05-26T17:49:35Z</time>
      </trkpt>
      <trkpt lat="48.68058" lon="7.30653">
        <ele>492.6</ele>
        <time>2020-05-26T17:49:33Z</time>
      </trkpt>
      <trkpt lat="48.68053" lon="7.30636">
        <ele>493.2</ele>
        <time>2020-05-26T17:49:30Z</time>
      </trkpt>
      <trkpt lat="48.68045" lon="7.30614">
        <ele>493.4</ele>
        <time>2020-05-26T17:49:27Z</time>
      </trkpt>
      <trkpt lat="48.68039" lon="7.30598">
        <ele>493.5</ele>
        <time>2020-05-26T17:49:25Z</time>
      </trkpt>
      <trkpt lat="48.68032" lon="7.30574">
        <ele>493.6</ele>
        <time>2020-05-26T17:49:22Z</time>
      </trkpt>
      <trkpt lat="48.68026" lon="7.30558">
        <ele>493.4</ele>
        <time>2020-05-26T17:49:20Z</time>
      </trkpt>
      <trkpt lat="48.6802" lon="7.30535">
        <ele>493.1</ele>
        <time>2020-05-26T17:49:17Z</time>
      </trkpt>
      <trkpt lat="48.68015" lon="7.30523">
        <ele>493</ele>
        <time>2020-05-26T17:49:15Z</time>
      </trkpt>
      <trkpt lat="48.6801" lon="7.3051">
        <ele>493</ele>
        <time>2020-05-26T17:49:13Z</time>
      </trkpt>
      <trkpt lat="48.68005" lon="7.30497">
        <ele>493</ele>
        <time>2020-05-26T17:49:11Z</time>
      </trkpt>
      <trkpt lat="48.67999" lon="7.30483">
        <ele>493</ele>
        <time>2020-05-26T17:49:09Z</time>
      </trkpt>
      <trkpt lat="48.67994" lon="7.3047">
        <ele>493.2</ele>
        <time>2020-05-26T17:49:07Z</time>
      </trkpt>
      <trkpt lat="48.67989" lon="7.30456">
        <ele>492.9</ele>
        <time>2020-05-26T17:49:05Z</time>
      </trkpt>
      <trkpt lat="48.6798" lon="7.30436">
        <ele>493</ele>
        <time>2020-05-26T17:49:02Z</time>
      </trkpt>
      <trkpt lat="48.67975" lon="7.30426">
        <ele>493.7</ele>
        <time>2020-05-26T17:49:00Z</time>
      </trkpt>
      <trkpt lat="48.67971" lon="7.30417">
        <ele>494.6</ele>
        <time>2020-05-26T17:48:58Z</time>
      </trkpt>
      <trkpt lat="48.67967" lon="7.30408">
        <ele>495</ele>
        <time>2020-05-26T17:48:56Z</time>
      </trkpt>
      <trkpt lat="48.67963" lon="7.30399">
        <ele>494.9</ele>
        <time>2020-05-26T17:48:54Z</time>
      </trkpt>
      <trkpt lat="48.67959" lon="7.30392">
        <ele>495</ele>
        <time>2020-05-26T17:48:52Z</time>
      </trkpt>
      <trkpt lat="48.67955" lon="7.30385">
        <ele>494.8</ele>
        <time>2020-05-26T17:48:50Z</time>
      </trkpt>
      <trkpt lat="48.6795" lon="7.30375">
        <ele>495</ele>
        <time>2020-05-26T17:48:47Z</time>
      </trkpt>
      <trkpt lat="48.67946" lon="7.30367">
        <ele>494.9</ele>
        <time>2020-05-26T17:48:45Z</time>
      </trkpt>
      <trkpt lat="48.67943" lon="7.30359">
        <ele>495</ele>
        <time>2020-05-26T17:48:43Z</time>
      </trkpt>
      <trkpt lat="48.6794" lon="7.30351">
        <ele>494.6</ele>
        <time>2020-05-26T17:48:41Z</time>
      </trkpt>
      <trkpt lat="48.67938" lon="7.30343">
        <ele>494.4</ele>
        <time>2020-05-26T17:48:39Z</time>
      </trkpt>
      <trkpt lat="48.67936" lon="7.30334">
        <ele>493.9</ele>
        <time>2020-05-26T17:48:37Z</time>
      </trkpt>
      <trkpt lat="48.67932" lon="7.30325">
        <ele>493.7</ele>
        <time>2020-05-26T17:48:35Z</time>
      </trkpt>
      <trkpt lat="48.67929" lon="7.30317">
        <ele>493.4</ele>
        <time>2020-05-26T17:48:33Z</time>
      </trkpt>
      <trkpt lat="48.67925" lon="7.3031">
        <ele>493</ele>
        <time>2020-05-26T17:48:31Z</time>
      </trkpt>
      <trkpt lat="48.67921" lon="7.30302">
        <ele>492.7</ele>
        <time>2020-05-26T17:48:29Z</time>
      </trkpt>
      <trkpt lat="48.67915" lon="7.30289">
        <ele>492.3</ele>
        <time>2020-05-26T17:48:26Z</time>
      </trkpt>
      <trkpt lat="48.6791" lon="7.30279">
        <ele>491.5</ele>
        <time>2020-05-26T17:48:23Z</time>
      </trkpt>
      <trkpt lat="48.67907" lon="7.30273">
        <ele>491.1</ele>
        <time>2020-05-26T17:48:21Z</time>
      </trkpt>
      <trkpt lat="48.67904" lon="7.30267">
        <ele>490.5</ele>
        <time>2020-05-26T17:48:19Z</time>
      </trkpt>
      <trkpt lat="48.679" lon="7.3026">
        <ele>490.7</ele>
        <time>2020-05-26T17:48:17Z</time>
      </trkpt>
      <trkpt lat="48.67893" lon="7.3025">
        <ele>490.4</ele>
        <time>2020-05-26T17:48:14Z</time>
      </trkpt>
      <trkpt lat="48.67888" lon="7.30243">
        <ele>490.3</ele>
        <time>2020-05-26T17:48:12Z</time>
      </trkpt>
      <trkpt lat="48.67884" lon="7.30235">
        <ele>490.1</ele>
        <time>2020-05-26T17:48:10Z</time>
      </trkpt>
      <trkpt lat="48.67876" lon="7.30224">
        <ele>490.3</ele>
        <time>2020-05-26T17:48:07Z</time>
      </trkpt>
      <trkpt lat="48.67871" lon="7.30217">
        <ele>490.1</ele>
        <time>2020-05-26T17:48:05Z</time>
      </trkpt>
      <trkpt lat="48.67863" lon="7.30204">
        <ele>490.1</ele>
        <time>2020-05-26T17:48:02Z</time>
      </trkpt>
      <trkpt lat="48.6786" lon="7.30194">
        <ele>489.8</ele>
        <time>2020-05-26T17:48:00Z</time>
      </trkpt>
      <trkpt lat="48.67856" lon="7.30185">
        <ele>489.9</ele>
        <time>2020-05-26T17:47:58Z</time>
      </trkpt>
      <trkpt lat="48.67851" lon="7.30177">
        <ele>489.8</ele>
        <time>2020-05-26T17:47:56Z</time>
      </trkpt>
      <trkpt lat="48.67847" lon="7.30169">
        <ele>489.6</ele>
        <time>2020-05-26T17:47:54Z</time>
      </trkpt>
      <trkpt lat="48.67843" lon="7.30161">
        <ele>489.2</ele>
        <time>2020-05-26T17:47:52Z</time>
      </trkpt>
      <trkpt lat="48.67842" lon="7.30155">
        <ele>488.7</ele>
        <time>2020-05-26T17:47:49Z</time>
      </trkpt>
      <trkpt lat="48.67841" lon="7.30147">
        <ele>486.5</ele>
        <time>2020-05-26T17:47:43Z</time>
      </trkpt>
      <trkpt lat="48.67841" lon="7.3014">
        <ele>484.3</ele>
        <time>2020-05-26T17:47:38Z</time>
      </trkpt>
      <trkpt lat="48.67837" lon="7.3014">
        <ele>487.5</ele>
        <time>2020-05-26T17:47:14Z</time>
      </trkpt>
      <trkpt lat="48.67835" lon="7.30134">
        <ele>486.9</ele>
        <time>2020-05-26T17:47:10Z</time>
      </trkpt>
      <trkpt lat="48.67834" lon="7.30125">
        <ele>489.9</ele>
        <time>2020-05-26T17:46:41Z</time>
      </trkpt>
      <trkpt lat="48.67831" lon="7.30118">
        <ele>489.7</ele>
        <time>2020-05-26T17:46:37Z</time>
      </trkpt>
      <trkpt lat="48.67827" lon="7.3011">
        <ele>489</ele>
        <time>2020-05-26T17:46:35Z</time>
      </trkpt>
      <trkpt lat="48.67822" lon="7.30101">
        <ele>489</ele>
        <time>2020-05-26T17:46:33Z</time>
      </trkpt>
      <trkpt lat="48.67817" lon="7.30082">
        <ele>489.5</ele>
        <time>2020-05-26T17:46:30Z</time>
      </trkpt>
      <trkpt lat="48.67811" lon="7.30062">
        <ele>489.7</ele>
        <time>2020-05-26T17:46:27Z</time>
      </trkpt>
      <trkpt lat="48.67806" lon="7.30046">
        <ele>490.2</ele>
        <time>2020-05-26T17:46:25Z</time>
      </trkpt>
      <trkpt lat="48.67802" lon="7.30031">
        <ele>490.5</ele>
        <time>2020-05-26T17:46:23Z</time>
      </trkpt>
      <trkpt lat="48.67798" lon="7.30015">
        <ele>490.8</ele>
        <time>2020-05-26T17:46:21Z</time>
      </trkpt>
      <trkpt lat="48.67795" lon="7.30001">
        <ele>491</ele>
        <time>2020-05-26T17:46:19Z</time>
      </trkpt>
      <trkpt lat="48.67792" lon="7.29987">
        <ele>491.4</ele>
        <time>2020-05-26T17:46:17Z</time>
      </trkpt>
      <trkpt lat="48.67788" lon="7.29974">
        <ele>492</ele>
        <time>2020-05-26T17:46:15Z</time>
      </trkpt>
      <trkpt lat="48.67783" lon="7.29963">
        <ele>493.2</ele>
        <time>2020-05-26T17:46:13Z</time>
      </trkpt>
      <trkpt lat="48.67778" lon="7.29954">
        <ele>494.6</ele>
        <time>2020-05-26T17:46:11Z</time>
      </trkpt>
      <trkpt lat="48.67772" lon="7.29944">
        <ele>495.7</ele>
        <time>2020-05-26T17:46:09Z</time>
      </trkpt>
      <trkpt lat="48.67767" lon="7.29935">
        <ele>496.5</ele>
        <time>2020-05-26T17:46:07Z</time>
      </trkpt>
      <trkpt lat="48.67761" lon="7.29927">
        <ele>496.8</ele>
        <time>2020-05-26T17:46:05Z</time>
      </trkpt>
      <trkpt lat="48.67754" lon="7.2992">
        <ele>497.2</ele>
        <time>2020-05-26T17:46:03Z</time>
      </trkpt>
      <trkpt lat="48.67748" lon="7.29914">
        <ele>497.3</ele>
        <time>2020-05-26T17:46:01Z</time>
      </trkpt>
      <trkpt lat="48.67742" lon="7.29907">
        <ele>497.3</ele>
        <time>2020-05-26T17:45:59Z</time>
      </trkpt>
      <trkpt lat="48.67736" lon="7.29899">
        <ele>496.4</ele>
        <time>2020-05-26T17:45:57Z</time>
      </trkpt>
      <trkpt lat="48.67731" lon="7.29891">
        <ele>496</ele>
        <time>2020-05-26T17:45:55Z</time>
      </trkpt>
      <trkpt lat="48.67726" lon="7.29884">
        <ele>495.1</ele>
        <time>2020-05-26T17:45:53Z</time>
      </trkpt>
      <trkpt lat="48.67722" lon="7.29878">
        <ele>494.8</ele>
        <time>2020-05-26T17:45:51Z</time>
      </trkpt>
      <trkpt lat="48.67717" lon="7.29873">
        <ele>494.3</ele>
        <time>2020-05-26T17:45:49Z</time>
      </trkpt>
      <trkpt lat="48.67711" lon="7.2986">
        <ele>494.9</ele>
        <time>2020-05-26T17:45:46Z</time>
      </trkpt>
      <trkpt lat="48.67705" lon="7.29848">
        <ele>499.3</ele>
        <time>2020-05-26T17:45:44Z</time>
      </trkpt>
      <trkpt lat="48.67701" lon="7.29836">
        <ele>498.7</ele>
        <time>2020-05-26T17:45:42Z</time>
      </trkpt>
      <trkpt lat="48.67697" lon="7.29826">
        <ele>498.8</ele>
        <time>2020-05-26T17:45:40Z</time>
      </trkpt>
      <trkpt lat="48.67693" lon="7.29817">
        <ele>499</ele>
        <time>2020-05-26T17:45:38Z</time>
      </trkpt>
      <trkpt lat="48.67689" lon="7.29807">
        <ele>499.2</ele>
        <time>2020-05-26T17:45:36Z</time>
      </trkpt>
      <trkpt lat="48.67685" lon="7.29796">
        <ele>499.7</ele>
        <time>2020-05-26T17:45:34Z</time>
      </trkpt>
      <trkpt lat="48.6768" lon="7.29785">
        <ele>500.5</ele>
        <time>2020-05-26T17:45:32Z</time>
      </trkpt>
      <trkpt lat="48.67676" lon="7.29774">
        <ele>500.2</ele>
        <time>2020-05-26T17:45:30Z</time>
      </trkpt>
      <trkpt lat="48.67672" lon="7.29762">
        <ele>500</ele>
        <time>2020-05-26T17:45:28Z</time>
      </trkpt>
      <trkpt lat="48.67669" lon="7.29749">
        <ele>499.4</ele>
        <time>2020-05-26T17:45:26Z</time>
      </trkpt>
      <trkpt lat="48.67666" lon="7.29734">
        <ele>497.5</ele>
        <time>2020-05-26T17:45:24Z</time>
      </trkpt>
      <trkpt lat="48.67665" lon="7.2972">
        <ele>496.1</ele>
        <time>2020-05-26T17:45:22Z</time>
      </trkpt>
      <trkpt lat="48.67663" lon="7.29698">
        <ele>494.2</ele>
        <time>2020-05-26T17:45:19Z</time>
      </trkpt>
      <trkpt lat="48.67664" lon="7.29683">
        <ele>489.8</ele>
        <time>2020-05-26T17:45:16Z</time>
      </trkpt>
      <trkpt lat="48.67664" lon="7.29672">
        <ele>485.8</ele>
        <time>2020-05-26T17:45:14Z</time>
      </trkpt>
      <trkpt lat="48.67666" lon="7.29664">
        <ele>482.9</ele>
        <time>2020-05-26T17:45:12Z</time>
      </trkpt>
      <trkpt lat="48.67665" lon="7.29654">
        <ele>484.2</ele>
        <time>2020-05-26T17:45:10Z</time>
      </trkpt>
      <trkpt lat="48.67665" lon="7.29644">
        <ele>502.1</ele>
        <time>2020-05-26T17:45:08Z</time>
      </trkpt>
      <trkpt lat="48.67666" lon="7.29634">
        <ele>502.3</ele>
        <time>2020-05-26T17:45:06Z</time>
      </trkpt>
      <trkpt lat="48.67668" lon="7.29624">
        <ele>503.5</ele>
        <time>2020-05-26T17:45:04Z</time>
      </trkpt>
      <trkpt lat="48.67669" lon="7.29612">
        <ele>504.4</ele>
        <time>2020-05-26T17:45:02Z</time>
      </trkpt>
      <trkpt lat="48.6767" lon="7.29599">
        <ele>504.6</ele>
        <time>2020-05-26T17:45:00Z</time>
      </trkpt>
      <trkpt lat="48.67676" lon="7.29589">
        <ele>504.6</ele>
        <time>2020-05-26T17:44:58Z</time>
      </trkpt>
      <trkpt lat="48.67679" lon="7.29578">
        <ele>504</ele>
        <time>2020-05-26T17:44:56Z</time>
      </trkpt>
      <trkpt lat="48.67682" lon="7.29566">
        <ele>502.1</ele>
        <time>2020-05-26T17:44:54Z</time>
      </trkpt>
      <trkpt lat="48.67685" lon="7.29556">
        <ele>500.4</ele>
        <time>2020-05-26T17:44:52Z</time>
      </trkpt>
      <trkpt lat="48.67689" lon="7.29545">
        <ele>498.5</ele>
        <time>2020-05-26T17:44:50Z</time>
      </trkpt>
      <trkpt lat="48.67694" lon="7.29533">
        <ele>496.7</ele>
        <time>2020-05-26T17:44:48Z</time>
      </trkpt>
      <trkpt lat="48.67697" lon="7.29521">
        <ele>494.7</ele>
        <time>2020-05-26T17:44:46Z</time>
      </trkpt>
      <trkpt lat="48.67702" lon="7.29511">
        <ele>494.2</ele>
        <time>2020-05-26T17:44:44Z</time>
      </trkpt>
      <trkpt lat="48.67706" lon="7.29501">
        <ele>494.5</ele>
        <time>2020-05-26T17:44:42Z</time>
      </trkpt>
      <trkpt lat="48.67712" lon="7.29484">
        <ele>494.8</ele>
        <time>2020-05-26T17:44:39Z</time>
      </trkpt>
      <trkpt lat="48.67719" lon="7.29468">
        <ele>493.9</ele>
        <time>2020-05-26T17:44:36Z</time>
      </trkpt>
      <trkpt lat="48.67724" lon="7.29459">
        <ele>493.2</ele>
        <time>2020-05-26T17:44:34Z</time>
      </trkpt>
      <trkpt lat="48.67729" lon="7.29451">
        <ele>492.5</ele>
        <time>2020-05-26T17:44:32Z</time>
      </trkpt>
      <trkpt lat="48.67734" lon="7.29443">
        <ele>491.7</ele>
        <time>2020-05-26T17:44:30Z</time>
      </trkpt>
      <trkpt lat="48.67739" lon="7.29434">
        <ele>491.7</ele>
        <time>2020-05-26T17:44:28Z</time>
      </trkpt>
      <trkpt lat="48.67744" lon="7.29425">
        <ele>491.6</ele>
        <time>2020-05-26T17:44:26Z</time>
      </trkpt>
      <trkpt lat="48.67754" lon="7.29416">
        <ele>492</ele>
        <time>2020-05-26T17:44:23Z</time>
      </trkpt>
      <trkpt lat="48.6776" lon="7.29409">
        <ele>491.7</ele>
        <time>2020-05-26T17:44:21Z</time>
      </trkpt>
      <trkpt lat="48.67768" lon="7.29402">
        <ele>490.6</ele>
        <time>2020-05-26T17:44:19Z</time>
      </trkpt>
      <trkpt lat="48.67775" lon="7.29394">
        <ele>489.3</ele>
        <time>2020-05-26T17:44:17Z</time>
      </trkpt>
      <trkpt lat="48.67781" lon="7.29387">
        <ele>488.4</ele>
        <time>2020-05-26T17:44:15Z</time>
      </trkpt>
      <trkpt lat="48.67788" lon="7.29381">
        <ele>487.7</ele>
        <time>2020-05-26T17:44:13Z</time>
      </trkpt>
      <trkpt lat="48.67796" lon="7.29372">
        <ele>486.7</ele>
        <time>2020-05-26T17:44:10Z</time>
      </trkpt>
      <trkpt lat="48.67803" lon="7.29367">
        <ele>486.8</ele>
        <time>2020-05-26T17:44:08Z</time>
      </trkpt>
      <trkpt lat="48.6781" lon="7.29362">
        <ele>485.9</ele>
        <time>2020-05-26T17:44:06Z</time>
      </trkpt>
      <trkpt lat="48.67821" lon="7.29355">
        <ele>485.3</ele>
        <time>2020-05-26T17:44:03Z</time>
      </trkpt>
      <trkpt lat="48.67828" lon="7.29349">
        <ele>485.2</ele>
        <time>2020-05-26T17:44:01Z</time>
      </trkpt>
      <trkpt lat="48.67835" lon="7.29342">
        <ele>484.9</ele>
        <time>2020-05-26T17:43:59Z</time>
      </trkpt>
      <trkpt lat="48.67841" lon="7.29335">
        <ele>485</ele>
        <time>2020-05-26T17:43:57Z</time>
      </trkpt>
      <trkpt lat="48.67848" lon="7.29329">
        <ele>484.8</ele>
        <time>2020-05-26T17:43:55Z</time>
      </trkpt>
      <trkpt lat="48.67856" lon="7.2932">
        <ele>485</ele>
        <time>2020-05-26T17:43:53Z</time>
      </trkpt>
      <trkpt lat="48.67864" lon="7.29311">
        <ele>485.3</ele>
        <time>2020-05-26T17:43:51Z</time>
      </trkpt>
      <trkpt lat="48.6787" lon="7.29303">
        <ele>489.2</ele>
        <time>2020-05-26T17:43:49Z</time>
      </trkpt>
      <trkpt lat="48.67876" lon="7.29296">
        <ele>488.5</ele>
        <time>2020-05-26T17:43:47Z</time>
      </trkpt>
      <trkpt lat="48.67883" lon="7.29288">
        <ele>487.9</ele>
        <time>2020-05-26T17:43:45Z</time>
      </trkpt>
      <trkpt lat="48.6789" lon="7.29281">
        <ele>488.5</ele>
        <time>2020-05-26T17:43:43Z</time>
      </trkpt>
      <trkpt lat="48.67897" lon="7.29272">
        <ele>487.5</ele>
        <time>2020-05-26T17:43:41Z</time>
      </trkpt>
      <trkpt lat="48.67905" lon="7.29263">
        <ele>487</ele>
        <time>2020-05-26T17:43:39Z</time>
      </trkpt>
      <trkpt lat="48.67911" lon="7.29254">
        <ele>487.1</ele>
        <time>2020-05-26T17:43:37Z</time>
      </trkpt>
      <trkpt lat="48.67916" lon="7.29247">
        <ele>487.3</ele>
        <time>2020-05-26T17:43:35Z</time>
      </trkpt>
      <trkpt lat="48.67924" lon="7.2924">
        <ele>487.3</ele>
        <time>2020-05-26T17:43:33Z</time>
      </trkpt>
      <trkpt lat="48.67933" lon="7.29234">
        <ele>487.5</ele>
        <time>2020-05-26T17:43:31Z</time>
      </trkpt>
      <trkpt lat="48.67941" lon="7.29227">
        <ele>486.9</ele>
        <time>2020-05-26T17:43:29Z</time>
      </trkpt>
      <trkpt lat="48.67947" lon="7.2922">
        <ele>485.2</ele>
        <time>2020-05-26T17:43:27Z</time>
      </trkpt>
      <trkpt lat="48.67953" lon="7.29212">
        <ele>485.1</ele>
        <time>2020-05-26T17:43:25Z</time>
      </trkpt>
      <trkpt lat="48.67961" lon="7.29202">
        <ele>485.5</ele>
        <time>2020-05-26T17:43:23Z</time>
      </trkpt>
      <trkpt lat="48.67967" lon="7.29194">
        <ele>486.1</ele>
        <time>2020-05-26T17:43:21Z</time>
      </trkpt>
      <trkpt lat="48.67973" lon="7.29184">
        <ele>487.4</ele>
        <time>2020-05-26T17:43:19Z</time>
      </trkpt>
      <trkpt lat="48.67979" lon="7.29174">
        <ele>487.2</ele>
        <time>2020-05-26T17:43:17Z</time>
      </trkpt>
      <trkpt lat="48.67985" lon="7.29164">
        <ele>486.6</ele>
        <time>2020-05-26T17:43:15Z</time>
      </trkpt>
      <trkpt lat="48.67991" lon="7.29155">
        <ele>486.4</ele>
        <time>2020-05-26T17:43:13Z</time>
      </trkpt>
      <trkpt lat="48.67996" lon="7.29145">
        <ele>485.4</ele>
        <time>2020-05-26T17:43:11Z</time>
      </trkpt>
      <trkpt lat="48.68002" lon="7.29135">
        <ele>484.6</ele>
        <time>2020-05-26T17:43:09Z</time>
      </trkpt>
      <trkpt lat="48.68007" lon="7.29126">
        <ele>483.8</ele>
        <time>2020-05-26T17:43:07Z</time>
      </trkpt>
      <trkpt lat="48.68013" lon="7.29119">
        <ele>483.1</ele>
        <time>2020-05-26T17:43:05Z</time>
      </trkpt>
      <trkpt lat="48.68018" lon="7.29114">
        <ele>483.5</ele>
        <time>2020-05-26T17:43:03Z</time>
      </trkpt>
      <trkpt lat="48.68025" lon="7.29108">
        <ele>483.8</ele>
        <time>2020-05-26T17:43:01Z</time>
      </trkpt>
      <trkpt lat="48.68031" lon="7.29103">
        <ele>483.5</ele>
        <time>2020-05-26T17:42:59Z</time>
      </trkpt>
      <trkpt lat="48.68038" lon="7.29099">
        <ele>484.8</ele>
        <time>2020-05-26T17:42:57Z</time>
      </trkpt>
      <trkpt lat="48.68045" lon="7.29094">
        <ele>485.9</ele>
        <time>2020-05-26T17:42:55Z</time>
      </trkpt>
      <trkpt lat="48.68052" lon="7.29088">
        <ele>486</ele>
        <time>2020-05-26T17:42:53Z</time>
      </trkpt>
      <trkpt lat="48.68059" lon="7.29081">
        <ele>486</ele>
        <time>2020-05-26T17:42:51Z</time>
      </trkpt>
      <trkpt lat="48.68064" lon="7.29074">
        <ele>485.2</ele>
        <time>2020-05-26T17:42:49Z</time>
      </trkpt>
      <trkpt lat="48.68071" lon="7.29066">
        <ele>484.9</ele>
        <time>2020-05-26T17:42:47Z</time>
      </trkpt>
      <trkpt lat="48.6808" lon="7.29058">
        <ele>484.7</ele>
        <time>2020-05-26T17:42:45Z</time>
      </trkpt>
      <trkpt lat="48.68088" lon="7.2905">
        <ele>484.4</ele>
        <time>2020-05-26T17:42:43Z</time>
      </trkpt>
      <trkpt lat="48.68094" lon="7.29042">
        <ele>484</ele>
        <time>2020-05-26T17:42:41Z</time>
      </trkpt>
      <trkpt lat="48.68103" lon="7.29026">
        <ele>483.5</ele>
        <time>2020-05-26T17:42:38Z</time>
      </trkpt>
      <trkpt lat="48.68109" lon="7.29017">
        <ele>483.4</ele>
        <time>2020-05-26T17:42:36Z</time>
      </trkpt>
      <trkpt lat="48.68115" lon="7.29009">
        <ele>483.4</ele>
        <time>2020-05-26T17:42:34Z</time>
      </trkpt>
      <trkpt lat="48.6812" lon="7.29002">
        <ele>483.7</ele>
        <time>2020-05-26T17:42:32Z</time>
      </trkpt>
      <trkpt lat="48.68125" lon="7.28993">
        <ele>483.1</ele>
        <time>2020-05-26T17:42:30Z</time>
      </trkpt>
      <trkpt lat="48.68133" lon="7.28978">
        <ele>482.2</ele>
        <time>2020-05-26T17:42:27Z</time>
      </trkpt>
      <trkpt lat="48.6814" lon="7.28963">
        <ele>480.9</ele>
        <time>2020-05-26T17:42:24Z</time>
      </trkpt>
      <trkpt lat="48.68145" lon="7.28953">
        <ele>480.1</ele>
        <time>2020-05-26T17:42:22Z</time>
      </trkpt>
      <trkpt lat="48.68151" lon="7.28938">
        <ele>479.2</ele>
        <time>2020-05-26T17:42:19Z</time>
      </trkpt>
      <trkpt lat="48.68154" lon="7.28927">
        <ele>478.8</ele>
        <time>2020-05-26T17:42:17Z</time>
      </trkpt>
      <trkpt lat="48.68157" lon="7.28916">
        <ele>478.8</ele>
        <time>2020-05-26T17:42:15Z</time>
      </trkpt>
      <trkpt lat="48.68159" lon="7.28907">
        <ele>478.9</ele>
        <time>2020-05-26T17:42:13Z</time>
      </trkpt>
      <trkpt lat="48.68162" lon="7.28897">
        <ele>479</ele>
        <time>2020-05-26T17:42:11Z</time>
      </trkpt>
      <trkpt lat="48.68163" lon="7.28889">
        <ele>479.2</ele>
        <time>2020-05-26T17:42:09Z</time>
      </trkpt>
      <trkpt lat="48.68164" lon="7.2888">
        <ele>479.3</ele>
        <time>2020-05-26T17:42:07Z</time>
      </trkpt>
      <trkpt lat="48.68166" lon="7.28871">
        <ele>479.4</ele>
        <time>2020-05-26T17:42:05Z</time>
      </trkpt>
      <trkpt lat="48.68167" lon="7.28863">
        <ele>478.8</ele>
        <time>2020-05-26T17:42:03Z</time>
      </trkpt>
      <trkpt lat="48.68168" lon="7.28854">
        <ele>478.6</ele>
        <time>2020-05-26T17:42:01Z</time>
      </trkpt>
      <trkpt lat="48.6817" lon="7.28844">
        <ele>478.3</ele>
        <time>2020-05-26T17:41:59Z</time>
      </trkpt>
      <trkpt lat="48.68171" lon="7.28834">
        <ele>478</ele>
        <time>2020-05-26T17:41:57Z</time>
      </trkpt>
      <trkpt lat="48.68171" lon="7.28824">
        <ele>477.7</ele>
        <time>2020-05-26T17:41:55Z</time>
      </trkpt>
      <trkpt lat="48.68171" lon="7.28814">
        <ele>478</ele>
        <time>2020-05-26T17:41:53Z</time>
      </trkpt>
      <trkpt lat="48.68172" lon="7.28805">
        <ele>477.3</ele>
        <time>2020-05-26T17:41:51Z</time>
      </trkpt>
      <trkpt lat="48.68172" lon="7.28794">
        <ele>476.3</ele>
        <time>2020-05-26T17:41:48Z</time>
      </trkpt>
      <trkpt lat="48.68172" lon="7.28786">
        <ele>475.6</ele>
        <time>2020-05-26T17:41:46Z</time>
      </trkpt>
      <trkpt lat="48.68172" lon="7.28778">
        <ele>473.9</ele>
        <time>2020-05-26T17:41:43Z</time>
      </trkpt>
      <trkpt lat="48.68172" lon="7.28771">
        <ele>472.7</ele>
        <time>2020-05-26T17:41:40Z</time>
      </trkpt>
      <trkpt lat="48.68173" lon="7.28764">
        <ele>472.5</ele>
        <time>2020-05-26T17:41:37Z</time>
      </trkpt>
      <trkpt lat="48.68175" lon="7.28758">
        <ele>472.9</ele>
        <time>2020-05-26T17:41:35Z</time>
      </trkpt>
      <trkpt lat="48.68179" lon="7.28751">
        <ele>472.8</ele>
        <time>2020-05-26T17:41:33Z</time>
      </trkpt>
      <trkpt lat="48.68183" lon="7.28744">
        <ele>472.5</ele>
        <time>2020-05-26T17:41:31Z</time>
      </trkpt>
      <trkpt lat="48.68188" lon="7.28738">
        <ele>472.1</ele>
        <time>2020-05-26T17:41:29Z</time>
      </trkpt>
      <trkpt lat="48.68194" lon="7.28728">
        <ele>471.5</ele>
        <time>2020-05-26T17:41:26Z</time>
      </trkpt>
      <trkpt lat="48.68197" lon="7.28723">
        <ele>471</ele>
        <time>2020-05-26T17:41:24Z</time>
      </trkpt>
      <trkpt lat="48.682" lon="7.28716">
        <ele>470.9</ele>
        <time>2020-05-26T17:41:22Z</time>
      </trkpt>
      <trkpt lat="48.68204" lon="7.28709">
        <ele>470.3</ele>
        <time>2020-05-26T17:41:20Z</time>
      </trkpt>
      <trkpt lat="48.68209" lon="7.28702">
        <ele>468.9</ele>
        <time>2020-05-26T17:41:18Z</time>
      </trkpt>
      <trkpt lat="48.68213" lon="7.28697">
        <ele>468.6</ele>
        <time>2020-05-26T17:41:16Z</time>
      </trkpt>
      <trkpt lat="48.68218" lon="7.28692">
        <ele>468.6</ele>
        <time>2020-05-26T17:41:14Z</time>
      </trkpt>
      <trkpt lat="48.68223" lon="7.28687">
        <ele>469.4</ele>
        <time>2020-05-26T17:41:12Z</time>
      </trkpt>
      <trkpt lat="48.68229" lon="7.28685">
        <ele>470.2</ele>
        <time>2020-05-26T17:41:10Z</time>
      </trkpt>
      <trkpt lat="48.68235" lon="7.28684">
        <ele>470.7</ele>
        <time>2020-05-26T17:41:08Z</time>
      </trkpt>
      <trkpt lat="48.68241" lon="7.28686">
        <ele>472.1</ele>
        <time>2020-05-26T17:41:06Z</time>
      </trkpt>
      <trkpt lat="48.68247" lon="7.28687">
        <ele>473.3</ele>
        <time>2020-05-26T17:41:04Z</time>
      </trkpt>
      <trkpt lat="48.68254" lon="7.28689">
        <ele>473.9</ele>
        <time>2020-05-26T17:41:02Z</time>
      </trkpt>
      <trkpt lat="48.68259" lon="7.28688">
        <ele>472.6</ele>
        <time>2020-05-26T17:41:00Z</time>
      </trkpt>
      <trkpt lat="48.68265" lon="7.28686">
        <ele>471.6</ele>
        <time>2020-05-26T17:40:58Z</time>
      </trkpt>
      <trkpt lat="48.6827" lon="7.28684">
        <ele>470.9</ele>
        <time>2020-05-26T17:40:56Z</time>
      </trkpt>
      <trkpt lat="48.68276" lon="7.28683">
        <ele>469.8</ele>
        <time>2020-05-26T17:40:54Z</time>
      </trkpt>
      <trkpt lat="48.68282" lon="7.28681">
        <ele>469</ele>
        <time>2020-05-26T17:40:52Z</time>
      </trkpt>
      <trkpt lat="48.68287" lon="7.28678">
        <ele>467.9</ele>
        <time>2020-05-26T17:40:50Z</time>
      </trkpt>
      <trkpt lat="48.68292" lon="7.28675">
        <ele>467.1</ele>
        <time>2020-05-26T17:40:48Z</time>
      </trkpt>
      <trkpt lat="48.68297" lon="7.28673">
        <ele>466.5</ele>
        <time>2020-05-26T17:40:46Z</time>
      </trkpt>
      <trkpt lat="48.68303" lon="7.28671">
        <ele>466</ele>
        <time>2020-05-26T17:40:44Z</time>
      </trkpt>
      <trkpt lat="48.68309" lon="7.28669">
        <ele>466</ele>
        <time>2020-05-26T17:40:42Z</time>
      </trkpt>
      <trkpt lat="48.68314" lon="7.28664">
        <ele>464.5</ele>
        <time>2020-05-26T17:40:40Z</time>
      </trkpt>
      <trkpt lat="48.68322" lon="7.28659">
        <ele>462.7</ele>
        <time>2020-05-26T17:40:37Z</time>
      </trkpt>
      <trkpt lat="48.68332" lon="7.28654">
        <ele>462.1</ele>
        <time>2020-05-26T17:40:34Z</time>
      </trkpt>
      <trkpt lat="48.68336" lon="7.28649">
        <ele>461</ele>
        <time>2020-05-26T17:40:32Z</time>
      </trkpt>
      <trkpt lat="48.68341" lon="7.28644">
        <ele>460.3</ele>
        <time>2020-05-26T17:40:30Z</time>
      </trkpt>
      <trkpt lat="48.68345" lon="7.2864">
        <ele>460.3</ele>
        <time>2020-05-26T17:40:28Z</time>
      </trkpt>
      <trkpt lat="48.68353" lon="7.28635">
        <ele>460.6</ele>
        <time>2020-05-26T17:40:25Z</time>
      </trkpt>
      <trkpt lat="48.68358" lon="7.28631">
        <ele>460.8</ele>
        <time>2020-05-26T17:40:23Z</time>
      </trkpt>
      <trkpt lat="48.68364" lon="7.28625">
        <ele>460.6</ele>
        <time>2020-05-26T17:40:20Z</time>
      </trkpt>
      <trkpt lat="48.68371" lon="7.28619">
        <ele>459.8</ele>
        <time>2020-05-26T17:40:17Z</time>
      </trkpt>
      <trkpt lat="48.68376" lon="7.28615">
        <ele>459.4</ele>
        <time>2020-05-26T17:40:15Z</time>
      </trkpt>
      <trkpt lat="48.68382" lon="7.28612">
        <ele>459.1</ele>
        <time>2020-05-26T17:40:13Z</time>
      </trkpt>
      <trkpt lat="48.68387" lon="7.28609">
        <ele>458.8</ele>
        <time>2020-05-26T17:40:11Z</time>
      </trkpt>
      <trkpt lat="48.68395" lon="7.28603">
        <ele>458.6</ele>
        <time>2020-05-26T17:40:08Z</time>
      </trkpt>
      <trkpt lat="48.68402" lon="7.28598">
        <ele>458.3</ele>
        <time>2020-05-26T17:40:05Z</time>
      </trkpt>
      <trkpt lat="48.68406" lon="7.28595">
        <ele>458.2</ele>
        <time>2020-05-26T17:40:03Z</time>
      </trkpt>
      <trkpt lat="48.68412" lon="7.28592">
        <ele>457.4</ele>
        <time>2020-05-26T17:40:01Z</time>
      </trkpt>
      <trkpt lat="48.68417" lon="7.28587">
        <ele>457.2</ele>
        <time>2020-05-26T17:39:59Z</time>
      </trkpt>
      <trkpt lat="48.68423" lon="7.28582">
        <ele>456.5</ele>
        <time>2020-05-26T17:39:57Z</time>
      </trkpt>
      <trkpt lat="48.68428" lon="7.28579">
        <ele>457.1</ele>
        <time>2020-05-26T17:39:55Z</time>
      </trkpt>
      <trkpt lat="48.68433" lon="7.28574">
        <ele>457.4</ele>
        <time>2020-05-26T17:39:53Z</time>
      </trkpt>
      <trkpt lat="48.68438" lon="7.28569">
        <ele>456.5</ele>
        <time>2020-05-26T17:39:51Z</time>
      </trkpt>
      <trkpt lat="48.68443" lon="7.28563">
        <ele>457</ele>
        <time>2020-05-26T17:39:49Z</time>
      </trkpt>
      <trkpt lat="48.68448" lon="7.28558">
        <ele>457</ele>
        <time>2020-05-26T17:39:47Z</time>
      </trkpt>
      <trkpt lat="48.68452" lon="7.28552">
        <ele>457.1</ele>
        <time>2020-05-26T17:39:45Z</time>
      </trkpt>
      <trkpt lat="48.68457" lon="7.28546">
        <ele>456.8</ele>
        <time>2020-05-26T17:39:43Z</time>
      </trkpt>
      <trkpt lat="48.68462" lon="7.28541">
        <ele>456.6</ele>
        <time>2020-05-26T17:39:41Z</time>
      </trkpt>
      <trkpt lat="48.68468" lon="7.28531">
        <ele>456.6</ele>
        <time>2020-05-26T17:39:38Z</time>
      </trkpt>
      <trkpt lat="48.68472" lon="7.28526">
        <ele>456.6</ele>
        <time>2020-05-26T17:39:36Z</time>
      </trkpt>
      <trkpt lat="48.68476" lon="7.28521">
        <ele>459.4</ele>
        <time>2020-05-26T17:39:34Z</time>
      </trkpt>
      <trkpt lat="48.6848" lon="7.28516">
        <ele>459.4</ele>
        <time>2020-05-26T17:39:32Z</time>
      </trkpt>
      <trkpt lat="48.68484" lon="7.28509">
        <ele>459.7</ele>
        <time>2020-05-26T17:39:30Z</time>
      </trkpt>
      <trkpt lat="48.68489" lon="7.28501">
        <ele>459.9</ele>
        <time>2020-05-26T17:39:28Z</time>
      </trkpt>
      <trkpt lat="48.68493" lon="7.28493">
        <ele>459.2</ele>
        <time>2020-05-26T17:39:26Z</time>
      </trkpt>
      <trkpt lat="48.68498" lon="7.28486">
        <ele>458.4</ele>
        <time>2020-05-26T17:39:24Z</time>
      </trkpt>
      <trkpt lat="48.68505" lon="7.28478">
        <ele>457.2</ele>
        <time>2020-05-26T17:39:21Z</time>
      </trkpt>
      <trkpt lat="48.68511" lon="7.28473">
        <ele>457</ele>
        <time>2020-05-26T17:39:19Z</time>
      </trkpt>
      <trkpt lat="48.68517" lon="7.28467">
        <ele>457.1</ele>
        <time>2020-05-26T17:39:17Z</time>
      </trkpt>
      <trkpt lat="48.68522" lon="7.28462">
        <ele>456.7</ele>
        <time>2020-05-26T17:39:15Z</time>
      </trkpt>
      <trkpt lat="48.68526" lon="7.28458">
        <ele>456.6</ele>
        <time>2020-05-26T17:39:13Z</time>
      </trkpt>
      <trkpt lat="48.6853" lon="7.28453">
        <ele>456.2</ele>
        <time>2020-05-26T17:39:11Z</time>
      </trkpt>
      <trkpt lat="48.68534" lon="7.28449">
        <ele>456.4</ele>
        <time>2020-05-26T17:39:09Z</time>
      </trkpt>
      <trkpt lat="48.68538" lon="7.28446">
        <ele>456.5</ele>
        <time>2020-05-26T17:39:07Z</time>
      </trkpt>
      <trkpt lat="48.68543" lon="7.28443">
        <ele>456.3</ele>
        <time>2020-05-26T17:39:05Z</time>
      </trkpt>
      <trkpt lat="48.68548" lon="7.28438">
        <ele>456.3</ele>
        <time>2020-05-26T17:39:03Z</time>
      </trkpt>
      <trkpt lat="48.68553" lon="7.28434">
        <ele>456.8</ele>
        <time>2020-05-26T17:39:01Z</time>
      </trkpt>
      <trkpt lat="48.68558" lon="7.28428">
        <ele>457.1</ele>
        <time>2020-05-26T17:38:58Z</time>
      </trkpt>
      <trkpt lat="48.68562" lon="7.28424">
        <ele>456.9</ele>
        <time>2020-05-26T17:38:56Z</time>
      </trkpt>
      <trkpt lat="48.68567" lon="7.2842">
        <ele>456.5</ele>
        <time>2020-05-26T17:38:54Z</time>
      </trkpt>
      <trkpt lat="48.68571" lon="7.28416">
        <ele>456</ele>
        <time>2020-05-26T17:38:52Z</time>
      </trkpt>
      <trkpt lat="48.68576" lon="7.28412">
        <ele>455.3</ele>
        <time>2020-05-26T17:38:50Z</time>
      </trkpt>
      <trkpt lat="48.68581" lon="7.28407">
        <ele>455.4</ele>
        <time>2020-05-26T17:38:48Z</time>
      </trkpt>
      <trkpt lat="48.68585" lon="7.28401">
        <ele>454.8</ele>
        <time>2020-05-26T17:38:46Z</time>
      </trkpt>
      <trkpt lat="48.68592" lon="7.28393">
        <ele>453.8</ele>
        <time>2020-05-26T17:38:43Z</time>
      </trkpt>
      <trkpt lat="48.68598" lon="7.28389">
        <ele>452.6</ele>
        <time>2020-05-26T17:38:41Z</time>
      </trkpt>
      <trkpt lat="48.68603" lon="7.28385">
        <ele>451.7</ele>
        <time>2020-05-26T17:38:39Z</time>
      </trkpt>
      <trkpt lat="48.6861" lon="7.28378">
        <ele>450.7</ele>
        <time>2020-05-26T17:38:36Z</time>
      </trkpt>
      <trkpt lat="48.68616" lon="7.28376">
        <ele>450.7</ele>
        <time>2020-05-26T17:38:34Z</time>
      </trkpt>
      <trkpt lat="48.68621" lon="7.28376">
        <ele>450.4</ele>
        <time>2020-05-26T17:38:32Z</time>
      </trkpt>
      <trkpt lat="48.68627" lon="7.28378">
        <ele>449.9</ele>
        <time>2020-05-26T17:38:30Z</time>
      </trkpt>
      <trkpt lat="48.68632" lon="7.2838">
        <ele>449.3</ele>
        <time>2020-05-26T17:38:28Z</time>
      </trkpt>
      <trkpt lat="48.68639" lon="7.28383">
        <ele>449.3</ele>
        <time>2020-05-26T17:38:26Z</time>
      </trkpt>
      <trkpt lat="48.68645" lon="7.28386">
        <ele>448.9</ele>
        <time>2020-05-26T17:38:24Z</time>
      </trkpt>
      <trkpt lat="48.6865" lon="7.2839">
        <ele>448.7</ele>
        <time>2020-05-26T17:38:22Z</time>
      </trkpt>
      <trkpt lat="48.68654" lon="7.28395">
        <ele>448.2</ele>
        <time>2020-05-26T17:38:20Z</time>
      </trkpt>
      <trkpt lat="48.68661" lon="7.28399">
        <ele>447.8</ele>
        <time>2020-05-26T17:38:18Z</time>
      </trkpt>
      <trkpt lat="48.68665" lon="7.28403">
        <ele>446.9</ele>
        <time>2020-05-26T17:38:16Z</time>
      </trkpt>
      <trkpt lat="48.6867" lon="7.28408">
        <ele>446.6</ele>
        <time>2020-05-26T17:38:14Z</time>
      </trkpt>
      <trkpt lat="48.68674" lon="7.28414">
        <ele>446.1</ele>
        <time>2020-05-26T17:38:12Z</time>
      </trkpt>
      <trkpt lat="48.68678" lon="7.28421">
        <ele>445.2</ele>
        <time>2020-05-26T17:38:10Z</time>
      </trkpt>
      <trkpt lat="48.6868" lon="7.28427">
        <ele>444.5</ele>
        <time>2020-05-26T17:38:08Z</time>
      </trkpt>
      <trkpt lat="48.68683" lon="7.28434">
        <ele>444.9</ele>
        <time>2020-05-26T17:38:06Z</time>
      </trkpt>
      <trkpt lat="48.68686" lon="7.28442">
        <ele>444.7</ele>
        <time>2020-05-26T17:38:04Z</time>
      </trkpt>
      <trkpt lat="48.68689" lon="7.2845">
        <ele>444.8</ele>
        <time>2020-05-26T17:38:02Z</time>
      </trkpt>
      <trkpt lat="48.68691" lon="7.28457">
        <ele>445.5</ele>
        <time>2020-05-26T17:38:00Z</time>
      </trkpt>
      <trkpt lat="48.68694" lon="7.28464">
        <ele>446.6</ele>
        <time>2020-05-26T17:37:58Z</time>
      </trkpt>
      <trkpt lat="48.68698" lon="7.28472">
        <ele>447.4</ele>
        <time>2020-05-26T17:37:55Z</time>
      </trkpt>
      <trkpt lat="48.687" lon="7.28479">
        <ele>447.4</ele>
        <time>2020-05-26T17:37:53Z</time>
      </trkpt>
      <trkpt lat="48.68702" lon="7.28486">
        <ele>447.4</ele>
        <time>2020-05-26T17:37:51Z</time>
      </trkpt>
      <trkpt lat="48.68705" lon="7.28496">
        <ele>448.6</ele>
        <time>2020-05-26T17:37:48Z</time>
      </trkpt>
      <trkpt lat="48.68707" lon="7.28503">
        <ele>448.7</ele>
        <time>2020-05-26T17:37:46Z</time>
      </trkpt>
      <trkpt lat="48.68709" lon="7.2851">
        <ele>448.9</ele>
        <time>2020-05-26T17:37:44Z</time>
      </trkpt>
      <trkpt lat="48.68713" lon="7.2852">
        <ele>448.2</ele>
        <time>2020-05-26T17:37:41Z</time>
      </trkpt>
      <trkpt lat="48.68716" lon="7.28528">
        <ele>448</ele>
        <time>2020-05-26T17:37:39Z</time>
      </trkpt>
      <trkpt lat="48.68718" lon="7.28535">
        <ele>447.4</ele>
        <time>2020-05-26T17:37:37Z</time>
      </trkpt>
      <trkpt lat="48.68721" lon="7.28543">
        <ele>446.6</ele>
        <time>2020-05-26T17:37:35Z</time>
      </trkpt>
      <trkpt lat="48.68724" lon="7.28551">
        <ele>445.5</ele>
        <time>2020-05-26T17:37:33Z</time>
      </trkpt>
      <trkpt lat="48.68726" lon="7.28558">
        <ele>444.7</ele>
        <time>2020-05-26T17:37:31Z</time>
      </trkpt>
      <trkpt lat="48.68727" lon="7.28566">
        <ele>442.9</ele>
        <time>2020-05-26T17:37:29Z</time>
      </trkpt>
      <trkpt lat="48.68729" lon="7.28575">
        <ele>441.8</ele>
        <time>2020-05-26T17:37:27Z</time>
      </trkpt>
      <trkpt lat="48.68731" lon="7.28584">
        <ele>440.5</ele>
        <time>2020-05-26T17:37:25Z</time>
      </trkpt>
      <trkpt lat="48.68731" lon="7.28592">
        <ele>439.6</ele>
        <time>2020-05-26T17:37:23Z</time>
      </trkpt>
      <trkpt lat="48.68732" lon="7.28601">
        <ele>439.3</ele>
        <time>2020-05-26T17:37:21Z</time>
      </trkpt>
      <trkpt lat="48.68732" lon="7.2861">
        <ele>439.1</ele>
        <time>2020-05-26T17:37:19Z</time>
      </trkpt>
      <trkpt lat="48.68734" lon="7.28619">
        <ele>438.5</ele>
        <time>2020-05-26T17:37:17Z</time>
      </trkpt>
      <trkpt lat="48.68736" lon="7.28628">
        <ele>437.8</ele>
        <time>2020-05-26T17:37:15Z</time>
      </trkpt>
      <trkpt lat="48.68739" lon="7.28635">
        <ele>436.5</ele>
        <time>2020-05-26T17:37:13Z</time>
      </trkpt>
      <trkpt lat="48.68742" lon="7.28642">
        <ele>435.4</ele>
        <time>2020-05-26T17:37:11Z</time>
      </trkpt>
      <trkpt lat="48.68744" lon="7.2865">
        <ele>434.4</ele>
        <time>2020-05-26T17:37:09Z</time>
      </trkpt>
      <trkpt lat="48.68748" lon="7.28658">
        <ele>434.3</ele>
        <time>2020-05-26T17:37:07Z</time>
      </trkpt>
      <trkpt lat="48.68751" lon="7.28665">
        <ele>433.8</ele>
        <time>2020-05-26T17:37:05Z</time>
      </trkpt>
      <trkpt lat="48.68755" lon="7.28673">
        <ele>433.2</ele>
        <time>2020-05-26T17:37:03Z</time>
      </trkpt>
      <trkpt lat="48.68762" lon="7.28685">
        <ele>432.8</ele>
        <time>2020-05-26T17:37:00Z</time>
      </trkpt>
      <trkpt lat="48.68764" lon="7.28693">
        <ele>432.3</ele>
        <time>2020-05-26T17:36:58Z</time>
      </trkpt>
      <trkpt lat="48.68765" lon="7.287">
        <ele>432.3</ele>
        <time>2020-05-26T17:36:56Z</time>
      </trkpt>
      <trkpt lat="48.68767" lon="7.28706">
        <ele>432.1</ele>
        <time>2020-05-26T17:36:54Z</time>
      </trkpt>
      <trkpt lat="48.68771" lon="7.28713">
        <ele>431.2</ele>
        <time>2020-05-26T17:36:52Z</time>
      </trkpt>
      <trkpt lat="48.68776" lon="7.28719">
        <ele>430</ele>
        <time>2020-05-26T17:36:50Z</time>
      </trkpt>
      <trkpt lat="48.68781" lon="7.28725">
        <ele>429.3</ele>
        <time>2020-05-26T17:36:48Z</time>
      </trkpt>
      <trkpt lat="48.68785" lon="7.28734">
        <ele>428.7</ele>
        <time>2020-05-26T17:36:46Z</time>
      </trkpt>
      <trkpt lat="48.68789" lon="7.28745">
        <ele>427.7</ele>
        <time>2020-05-26T17:36:43Z</time>
      </trkpt>
      <trkpt lat="48.68792" lon="7.28752">
        <ele>427</ele>
        <time>2020-05-26T17:36:41Z</time>
      </trkpt>
      <trkpt lat="48.68795" lon="7.28759">
        <ele>426.3</ele>
        <time>2020-05-26T17:36:39Z</time>
      </trkpt>
      <trkpt lat="48.68799" lon="7.28765">
        <ele>425.7</ele>
        <time>2020-05-26T17:36:37Z</time>
      </trkpt>
      <trkpt lat="48.68802" lon="7.28773">
        <ele>425</ele>
        <time>2020-05-26T17:36:35Z</time>
      </trkpt>
      <trkpt lat="48.68806" lon="7.2878">
        <ele>425.2</ele>
        <time>2020-05-26T17:36:33Z</time>
      </trkpt>
      <trkpt lat="48.68809" lon="7.28786">
        <ele>424.7</ele>
        <time>2020-05-26T17:36:31Z</time>
      </trkpt>
      <trkpt lat="48.68813" lon="7.28793">
        <ele>424.5</ele>
        <time>2020-05-26T17:36:29Z</time>
      </trkpt>
      <trkpt lat="48.68817" lon="7.28801">
        <ele>424.6</ele>
        <time>2020-05-26T17:36:27Z</time>
      </trkpt>
      <trkpt lat="48.68822" lon="7.28807">
        <ele>425</ele>
        <time>2020-05-26T17:36:25Z</time>
      </trkpt>
      <trkpt lat="48.68828" lon="7.28814">
        <ele>425.1</ele>
        <time>2020-05-26T17:36:23Z</time>
      </trkpt>
      <trkpt lat="48.68834" lon="7.28822">
        <ele>425.9</ele>
        <time>2020-05-26T17:36:21Z</time>
      </trkpt>
      <trkpt lat="48.68839" lon="7.2883">
        <ele>426.9</ele>
        <time>2020-05-26T17:36:19Z</time>
      </trkpt>
      <trkpt lat="48.68844" lon="7.28838">
        <ele>428</ele>
        <time>2020-05-26T17:36:17Z</time>
      </trkpt>
      <trkpt lat="48.68848" lon="7.28844">
        <ele>429.1</ele>
        <time>2020-05-26T17:36:15Z</time>
      </trkpt>
      <trkpt lat="48.68855" lon="7.2885">
        <ele>430.5</ele>
        <time>2020-05-26T17:36:12Z</time>
      </trkpt>
      <trkpt lat="48.6886" lon="7.28855">
        <ele>431</ele>
        <time>2020-05-26T17:36:10Z</time>
      </trkpt>
      <trkpt lat="48.68864" lon="7.28861">
        <ele>431.5</ele>
        <time>2020-05-26T17:36:08Z</time>
      </trkpt>
      <trkpt lat="48.68868" lon="7.28868">
        <ele>432.4</ele>
        <time>2020-05-26T17:36:06Z</time>
      </trkpt>
      <trkpt lat="48.68872" lon="7.28874">
        <ele>432.6</ele>
        <time>2020-05-26T17:36:04Z</time>
      </trkpt>
      <trkpt lat="48.68877" lon="7.28879">
        <ele>432.7</ele>
        <time>2020-05-26T17:36:02Z</time>
      </trkpt>
      <trkpt lat="48.68883" lon="7.28886">
        <ele>433.1</ele>
        <time>2020-05-26T17:36:00Z</time>
      </trkpt>
      <trkpt lat="48.68888" lon="7.28891">
        <ele>434.4</ele>
        <time>2020-05-26T17:35:58Z</time>
      </trkpt>
      <trkpt lat="48.68893" lon="7.28896">
        <ele>434.7</ele>
        <time>2020-05-26T17:35:56Z</time>
      </trkpt>
      <trkpt lat="48.68897" lon="7.28901">
        <ele>435</ele>
        <time>2020-05-26T17:35:54Z</time>
      </trkpt>
      <trkpt lat="48.68904" lon="7.28908">
        <ele>435.1</ele>
        <time>2020-05-26T17:35:51Z</time>
      </trkpt>
      <trkpt lat="48.68912" lon="7.28913">
        <ele>434.7</ele>
        <time>2020-05-26T17:35:48Z</time>
      </trkpt>
      <trkpt lat="48.68919" lon="7.28914">
        <ele>434.3</ele>
        <time>2020-05-26T17:35:46Z</time>
      </trkpt>
      <trkpt lat="48.68926" lon="7.28914">
        <ele>433.7</ele>
        <time>2020-05-26T17:35:44Z</time>
      </trkpt>
      <trkpt lat="48.68932" lon="7.28913">
        <ele>433</ele>
        <time>2020-05-26T17:35:42Z</time>
      </trkpt>
      <trkpt lat="48.68941" lon="7.28912">
        <ele>431.5</ele>
        <time>2020-05-26T17:35:39Z</time>
      </trkpt>
      <trkpt lat="48.68947" lon="7.28912">
        <ele>429.9</ele>
        <time>2020-05-26T17:35:37Z</time>
      </trkpt>
      <trkpt lat="48.68954" lon="7.28913">
        <ele>429.5</ele>
        <time>2020-05-26T17:35:35Z</time>
      </trkpt>
      <trkpt lat="48.68959" lon="7.28916">
        <ele>428.8</ele>
        <time>2020-05-26T17:35:33Z</time>
      </trkpt>
      <trkpt lat="48.68963" lon="7.2892">
        <ele>427.9</ele>
        <time>2020-05-26T17:35:31Z</time>
      </trkpt>
      <trkpt lat="48.68968" lon="7.28921">
        <ele>427.2</ele>
        <time>2020-05-26T17:35:29Z</time>
      </trkpt>
      <trkpt lat="48.68973" lon="7.28923">
        <ele>426.5</ele>
        <time>2020-05-26T17:35:27Z</time>
      </trkpt>
      <trkpt lat="48.68977" lon="7.28925">
        <ele>424.9</ele>
        <time>2020-05-26T17:35:25Z</time>
      </trkpt>
      <trkpt lat="48.68982" lon="7.28927">
        <ele>424.3</ele>
        <time>2020-05-26T17:35:23Z</time>
      </trkpt>
      <trkpt lat="48.68988" lon="7.28927">
        <ele>423.6</ele>
        <time>2020-05-26T17:35:21Z</time>
      </trkpt>
      <trkpt lat="48.68993" lon="7.28928">
        <ele>422.7</ele>
        <time>2020-05-26T17:35:19Z</time>
      </trkpt>
      <trkpt lat="48.68999" lon="7.28928">
        <ele>421.8</ele>
        <time>2020-05-26T17:35:17Z</time>
      </trkpt>
      <trkpt lat="48.69004" lon="7.2893">
        <ele>420.9</ele>
        <time>2020-05-26T17:35:15Z</time>
      </trkpt>
      <trkpt lat="48.6901" lon="7.28932">
        <ele>420.5</ele>
        <time>2020-05-26T17:35:13Z</time>
      </trkpt>
      <trkpt lat="48.69016" lon="7.28933">
        <ele>419.8</ele>
        <time>2020-05-26T17:35:11Z</time>
      </trkpt>
      <trkpt lat="48.69021" lon="7.28935">
        <ele>419.1</ele>
        <time>2020-05-26T17:35:09Z</time>
      </trkpt>
      <trkpt lat="48.69027" lon="7.28936">
        <ele>418.1</ele>
        <time>2020-05-26T17:35:07Z</time>
      </trkpt>
      <trkpt lat="48.69032" lon="7.28936">
        <ele>417.9</ele>
        <time>2020-05-26T17:35:05Z</time>
      </trkpt>
      <trkpt lat="48.69038" lon="7.28936">
        <ele>417.9</ele>
        <time>2020-05-26T17:35:03Z</time>
      </trkpt>
      <trkpt lat="48.69043" lon="7.28937">
        <ele>417</ele>
        <time>2020-05-26T17:35:01Z</time>
      </trkpt>
      <trkpt lat="48.69049" lon="7.28938">
        <ele>416.8</ele>
        <time>2020-05-26T17:34:59Z</time>
      </trkpt>
      <trkpt lat="48.69054" lon="7.2894">
        <ele>416.5</ele>
        <time>2020-05-26T17:34:57Z</time>
      </trkpt>
      <trkpt lat="48.6906" lon="7.28941">
        <ele>415.9</ele>
        <time>2020-05-26T17:34:55Z</time>
      </trkpt>
      <trkpt lat="48.69065" lon="7.28941">
        <ele>415.8</ele>
        <time>2020-05-26T17:34:53Z</time>
      </trkpt>
      <trkpt lat="48.69071" lon="7.28941">
        <ele>415.7</ele>
        <time>2020-05-26T17:34:51Z</time>
      </trkpt>
      <trkpt lat="48.69078" lon="7.2894">
        <ele>415.1</ele>
        <time>2020-05-26T17:34:49Z</time>
      </trkpt>
      <trkpt lat="48.69084" lon="7.2894">
        <ele>415.9</ele>
        <time>2020-05-26T17:34:47Z</time>
      </trkpt>
      <trkpt lat="48.69091" lon="7.28942">
        <ele>415.5</ele>
        <time>2020-05-26T17:34:45Z</time>
      </trkpt>
      <trkpt lat="48.69097" lon="7.28943">
        <ele>416</ele>
        <time>2020-05-26T17:34:43Z</time>
      </trkpt>
      <trkpt lat="48.69102" lon="7.28944">
        <ele>416.8</ele>
        <time>2020-05-26T17:34:41Z</time>
      </trkpt>
      <trkpt lat="48.69108" lon="7.28944">
        <ele>417.3</ele>
        <time>2020-05-26T17:34:39Z</time>
      </trkpt>
      <trkpt lat="48.69114" lon="7.28944">
        <ele>418</ele>
        <time>2020-05-26T17:34:37Z</time>
      </trkpt>
      <trkpt lat="48.69119" lon="7.28943">
        <ele>418.8</ele>
        <time>2020-05-26T17:34:35Z</time>
      </trkpt>
      <trkpt lat="48.69125" lon="7.28942">
        <ele>418.5</ele>
        <time>2020-05-26T17:34:33Z</time>
      </trkpt>
      <trkpt lat="48.6913" lon="7.28941">
        <ele>418.9</ele>
        <time>2020-05-26T17:34:31Z</time>
      </trkpt>
      <trkpt lat="48.69136" lon="7.28939">
        <ele>418.6</ele>
        <time>2020-05-26T17:34:29Z</time>
      </trkpt>
      <trkpt lat="48.69142" lon="7.28938">
        <ele>418.6</ele>
        <time>2020-05-26T17:34:27Z</time>
      </trkpt>
      <trkpt lat="48.69147" lon="7.28935">
        <ele>417.7</ele>
        <time>2020-05-26T17:34:25Z</time>
      </trkpt>
      <trkpt lat="48.69151" lon="7.2893">
        <ele>417.2</ele>
        <time>2020-05-26T17:34:23Z</time>
      </trkpt>
      <trkpt lat="48.69155" lon="7.28924">
        <ele>416.1</ele>
        <time>2020-05-26T17:34:21Z</time>
      </trkpt>
      <trkpt lat="48.69158" lon="7.28917">
        <ele>415.9</ele>
        <time>2020-05-26T17:34:19Z</time>
      </trkpt>
      <trkpt lat="48.69162" lon="7.2891">
        <ele>415.5</ele>
        <time>2020-05-26T17:34:17Z</time>
      </trkpt>
      <trkpt lat="48.69165" lon="7.28903">
        <ele>415.1</ele>
        <time>2020-05-26T17:34:15Z</time>
      </trkpt>
      <trkpt lat="48.69167" lon="7.28895">
        <ele>414.8</ele>
        <time>2020-05-26T17:34:13Z</time>
      </trkpt>
      <trkpt lat="48.6917" lon="7.28887">
        <ele>415.4</ele>
        <time>2020-05-26T17:34:11Z</time>
      </trkpt>
      <trkpt lat="48.69171" lon="7.28878">
        <ele>415.9</ele>
        <time>2020-05-26T17:34:09Z</time>
      </trkpt>
      <trkpt lat="48.69173" lon="7.28869">
        <ele>415.6</ele>
        <time>2020-05-26T17:34:07Z</time>
      </trkpt>
      <trkpt lat="48.69174" lon="7.28861">
        <ele>415.7</ele>
        <time>2020-05-26T17:34:05Z</time>
      </trkpt>
      <trkpt lat="48.69174" lon="7.28853">
        <ele>415.8</ele>
        <time>2020-05-26T17:34:03Z</time>
      </trkpt>
      <trkpt lat="48.69174" lon="7.28844">
        <ele>415.5</ele>
        <time>2020-05-26T17:34:01Z</time>
      </trkpt>
      <trkpt lat="48.69173" lon="7.28835">
        <ele>415.7</ele>
        <time>2020-05-26T17:33:59Z</time>
      </trkpt>
      <trkpt lat="48.69172" lon="7.28826">
        <ele>415.5</ele>
        <time>2020-05-26T17:33:57Z</time>
      </trkpt>
      <trkpt lat="48.69172" lon="7.28818">
        <ele>415.7</ele>
        <time>2020-05-26T17:33:55Z</time>
      </trkpt>
      <trkpt lat="48.69171" lon="7.28809">
        <ele>416.1</ele>
        <time>2020-05-26T17:33:53Z</time>
      </trkpt>
      <trkpt lat="48.69171" lon="7.28801">
        <ele>416.9</ele>
        <time>2020-05-26T17:33:51Z</time>
      </trkpt>
      <trkpt lat="48.6917" lon="7.28793">
        <ele>416.9</ele>
        <time>2020-05-26T17:33:49Z</time>
      </trkpt>
      <trkpt lat="48.69169" lon="7.28786">
        <ele>415.7</ele>
        <time>2020-05-26T17:33:47Z</time>
      </trkpt>
      <trkpt lat="48.69169" lon="7.28779">
        <ele>416.4</ele>
        <time>2020-05-26T17:33:45Z</time>
      </trkpt>
      <trkpt lat="48.6917" lon="7.28772">
        <ele>415.8</ele>
        <time>2020-05-26T17:33:43Z</time>
      </trkpt>
      <trkpt lat="48.6917" lon="7.28764">
        <ele>415.3</ele>
        <time>2020-05-26T17:33:41Z</time>
      </trkpt>
      <trkpt lat="48.69169" lon="7.28756">
        <ele>414.4</ele>
        <time>2020-05-26T17:33:39Z</time>
      </trkpt>
      <trkpt lat="48.69167" lon="7.28747">
        <ele>413.8</ele>
        <time>2020-05-26T17:33:37Z</time>
      </trkpt>
      <trkpt lat="48.69166" lon="7.28739">
        <ele>412.6</ele>
        <time>2020-05-26T17:33:35Z</time>
      </trkpt>
      <trkpt lat="48.69164" lon="7.28732">
        <ele>412.3</ele>
        <time>2020-05-26T17:33:33Z</time>
      </trkpt>
      <trkpt lat="48.69164" lon="7.28724">
        <ele>413</ele>
        <time>2020-05-26T17:33:31Z</time>
      </trkpt>
      <trkpt lat="48.69163" lon="7.28716">
        <ele>412.4</ele>
        <time>2020-05-26T17:33:29Z</time>
      </trkpt>
      <trkpt lat="48.69162" lon="7.28706">
        <ele>411.9</ele>
        <time>2020-05-26T17:33:27Z</time>
      </trkpt>
      <trkpt lat="48.69161" lon="7.28696">
        <ele>412.7</ele>
        <time>2020-05-26T17:33:25Z</time>
      </trkpt>
      <trkpt lat="48.6916" lon="7.28687">
        <ele>413.2</ele>
        <time>2020-05-26T17:33:23Z</time>
      </trkpt>
      <trkpt lat="48.6916" lon="7.28678">
        <ele>413.8</ele>
        <time>2020-05-26T17:33:21Z</time>
      </trkpt>
      <trkpt lat="48.69159" lon="7.2867">
        <ele>414</ele>
        <time>2020-05-26T17:33:19Z</time>
      </trkpt>
      <trkpt lat="48.69158" lon="7.28661">
        <ele>413.6</ele>
        <time>2020-05-26T17:33:17Z</time>
      </trkpt>
      <trkpt lat="48.69157" lon="7.28652">
        <ele>412.4</ele>
        <time>2020-05-26T17:33:15Z</time>
      </trkpt>
      <trkpt lat="48.69156" lon="7.28644">
        <ele>411.5</ele>
        <time>2020-05-26T17:33:13Z</time>
      </trkpt>
      <trkpt lat="48.69156" lon="7.28636">
        <ele>411.2</ele>
        <time>2020-05-26T17:33:11Z</time>
      </trkpt>
      <trkpt lat="48.69154" lon="7.28629">
        <ele>410.9</ele>
        <time>2020-05-26T17:33:09Z</time>
      </trkpt>
      <trkpt lat="48.69153" lon="7.28622">
        <ele>408.7</ele>
        <time>2020-05-26T17:33:07Z</time>
      </trkpt>
      <trkpt lat="48.69152" lon="7.28612">
        <ele>405.6</ele>
        <time>2020-05-26T17:33:04Z</time>
      </trkpt>
      <trkpt lat="48.69152" lon="7.28604">
        <ele>404.3</ele>
        <time>2020-05-26T17:33:02Z</time>
      </trkpt>
      <trkpt lat="48.69151" lon="7.28596">
        <ele>403.2</ele>
        <time>2020-05-26T17:33:00Z</time>
      </trkpt>
      <trkpt lat="48.69152" lon="7.28587">
        <ele>402.3</ele>
        <time>2020-05-26T17:32:58Z</time>
      </trkpt>
      <trkpt lat="48.69154" lon="7.28579">
        <ele>402.7</ele>
        <time>2020-05-26T17:32:56Z</time>
      </trkpt>
      <trkpt lat="48.69156" lon="7.28571">
        <ele>403.4</ele>
        <time>2020-05-26T17:32:54Z</time>
      </trkpt>
      <trkpt lat="48.69157" lon="7.28563">
        <ele>403.5</ele>
        <time>2020-05-26T17:32:52Z</time>
      </trkpt>
      <trkpt lat="48.69158" lon="7.28555">
        <ele>403.6</ele>
        <time>2020-05-26T17:32:50Z</time>
      </trkpt>
      <trkpt lat="48.69159" lon="7.28544">
        <ele>403.8</ele>
        <time>2020-05-26T17:32:47Z</time>
      </trkpt>
      <trkpt lat="48.6916" lon="7.28536">
        <ele>404.6</ele>
        <time>2020-05-26T17:32:45Z</time>
      </trkpt>
      <trkpt lat="48.69161" lon="7.28529">
        <ele>405.3</ele>
        <time>2020-05-26T17:32:43Z</time>
      </trkpt>
      <trkpt lat="48.69163" lon="7.28523">
        <ele>405.6</ele>
        <time>2020-05-26T17:32:41Z</time>
      </trkpt>
      <trkpt lat="48.69164" lon="7.28515">
        <ele>406.2</ele>
        <time>2020-05-26T17:32:39Z</time>
      </trkpt>
      <trkpt lat="48.69165" lon="7.28507">
        <ele>405.6</ele>
        <time>2020-05-26T17:32:37Z</time>
      </trkpt>
      <trkpt lat="48.69165" lon="7.285">
        <ele>405.5</ele>
        <time>2020-05-26T17:32:35Z</time>
      </trkpt>
      <trkpt lat="48.69165" lon="7.28492">
        <ele>405.2</ele>
        <time>2020-05-26T17:32:33Z</time>
      </trkpt>
      <trkpt lat="48.69164" lon="7.28484">
        <ele>404.4</ele>
        <time>2020-05-26T17:32:31Z</time>
      </trkpt>
      <trkpt lat="48.69165" lon="7.28476">
        <ele>404.4</ele>
        <time>2020-05-26T17:32:29Z</time>
      </trkpt>
      <trkpt lat="48.69166" lon="7.28467">
        <ele>403</ele>
        <time>2020-05-26T17:32:27Z</time>
      </trkpt>
      <trkpt lat="48.69166" lon="7.28458">
        <ele>403</ele>
        <time>2020-05-26T17:32:25Z</time>
      </trkpt>
      <trkpt lat="48.69167" lon="7.28449">
        <ele>402.7</ele>
        <time>2020-05-26T17:32:23Z</time>
      </trkpt>
      <trkpt lat="48.69168" lon="7.2844">
        <ele>402.7</ele>
        <time>2020-05-26T17:32:21Z</time>
      </trkpt>
      <trkpt lat="48.6917" lon="7.28431">
        <ele>403.5</ele>
        <time>2020-05-26T17:32:19Z</time>
      </trkpt>
      <trkpt lat="48.69171" lon="7.28423">
        <ele>403.4</ele>
        <time>2020-05-26T17:32:17Z</time>
      </trkpt>
      <trkpt lat="48.69174" lon="7.28414">
        <ele>403</ele>
        <time>2020-05-26T17:32:15Z</time>
      </trkpt>
      <trkpt lat="48.69177" lon="7.28408">
        <ele>402.2</ele>
        <time>2020-05-26T17:32:13Z</time>
      </trkpt>
      <trkpt lat="48.69184" lon="7.28401">
        <ele>401.1</ele>
        <time>2020-05-26T17:32:10Z</time>
      </trkpt>
      <trkpt lat="48.69189" lon="7.28395">
        <ele>400.9</ele>
        <time>2020-05-26T17:32:08Z</time>
      </trkpt>
      <trkpt lat="48.69194" lon="7.2839">
        <ele>399.6</ele>
        <time>2020-05-26T17:32:06Z</time>
      </trkpt>
      <trkpt lat="48.69199" lon="7.28386">
        <ele>398.7</ele>
        <time>2020-05-26T17:32:04Z</time>
      </trkpt>
      <trkpt lat="48.69204" lon="7.28384">
        <ele>399</ele>
        <time>2020-05-26T17:32:02Z</time>
      </trkpt>
      <trkpt lat="48.69211" lon="7.28382">
        <ele>399.6</ele>
        <time>2020-05-26T17:31:59Z</time>
      </trkpt>
      <trkpt lat="48.69217" lon="7.28381">
        <ele>399.5</ele>
        <time>2020-05-26T17:31:57Z</time>
      </trkpt>
      <trkpt lat="48.69225" lon="7.28381">
        <ele>399.1</ele>
        <time>2020-05-26T17:31:54Z</time>
      </trkpt>
      <trkpt lat="48.6923" lon="7.28381">
        <ele>398.9</ele>
        <time>2020-05-26T17:31:52Z</time>
      </trkpt>
      <trkpt lat="48.69237" lon="7.28379">
        <ele>398.3</ele>
        <time>2020-05-26T17:31:49Z</time>
      </trkpt>
      <trkpt lat="48.69243" lon="7.28379">
        <ele>398</ele>
        <time>2020-05-26T17:31:46Z</time>
      </trkpt>
      <trkpt lat="48.69248" lon="7.28379">
        <ele>398.1</ele>
        <time>2020-05-26T17:31:44Z</time>
      </trkpt>
      <trkpt lat="48.69253" lon="7.2838">
        <ele>398.8</ele>
        <time>2020-05-26T17:31:42Z</time>
      </trkpt>
      <trkpt lat="48.69258" lon="7.2838">
        <ele>398.8</ele>
        <time>2020-05-26T17:31:40Z</time>
      </trkpt>
      <trkpt lat="48.69263" lon="7.28381">
        <ele>397.8</ele>
        <time>2020-05-26T17:31:38Z</time>
      </trkpt>
      <trkpt lat="48.69268" lon="7.28382">
        <ele>397.6</ele>
        <time>2020-05-26T17:31:36Z</time>
      </trkpt>
      <trkpt lat="48.69273" lon="7.28384">
        <ele>397.3</ele>
        <time>2020-05-26T17:31:34Z</time>
      </trkpt>
      <trkpt lat="48.69279" lon="7.28386">
        <ele>397.1</ele>
        <time>2020-05-26T17:31:32Z</time>
      </trkpt>
      <trkpt lat="48.69284" lon="7.28389">
        <ele>397.1</ele>
        <time>2020-05-26T17:31:30Z</time>
      </trkpt>
      <trkpt lat="48.69289" lon="7.28391">
        <ele>396.7</ele>
        <time>2020-05-26T17:31:28Z</time>
      </trkpt>
      <trkpt lat="48.69295" lon="7.28393">
        <ele>396.8</ele>
        <time>2020-05-26T17:31:26Z</time>
      </trkpt>
      <trkpt lat="48.69301" lon="7.28394">
        <ele>396.1</ele>
        <time>2020-05-26T17:31:24Z</time>
      </trkpt>
      <trkpt lat="48.69306" lon="7.28395">
        <ele>395</ele>
        <time>2020-05-26T17:31:22Z</time>
      </trkpt>
      <trkpt lat="48.69311" lon="7.28396">
        <ele>394.5</ele>
        <time>2020-05-26T17:31:20Z</time>
      </trkpt>
      <trkpt lat="48.69317" lon="7.28398">
        <ele>393.8</ele>
        <time>2020-05-26T17:31:18Z</time>
      </trkpt>
      <trkpt lat="48.69322" lon="7.284">
        <ele>393.2</ele>
        <time>2020-05-26T17:31:16Z</time>
      </trkpt>
      <trkpt lat="48.69327" lon="7.28403">
        <ele>393.1</ele>
        <time>2020-05-26T17:31:14Z</time>
      </trkpt>
      <trkpt lat="48.69331" lon="7.28407">
        <ele>392.8</ele>
        <time>2020-05-26T17:31:12Z</time>
      </trkpt>
      <trkpt lat="48.69336" lon="7.2841">
        <ele>392.6</ele>
        <time>2020-05-26T17:31:10Z</time>
      </trkpt>
      <trkpt lat="48.69344" lon="7.28416">
        <ele>392.4</ele>
        <time>2020-05-26T17:31:07Z</time>
      </trkpt>
      <trkpt lat="48.69349" lon="7.2842">
        <ele>392.5</ele>
        <time>2020-05-26T17:31:05Z</time>
      </trkpt>
      <trkpt lat="48.69354" lon="7.28424">
        <ele>392.8</ele>
        <time>2020-05-26T17:31:03Z</time>
      </trkpt>
      <trkpt lat="48.69359" lon="7.28429">
        <ele>393.3</ele>
        <time>2020-05-26T17:31:01Z</time>
      </trkpt>
      <trkpt lat="48.69363" lon="7.28435">
        <ele>394</ele>
        <time>2020-05-26T17:30:59Z</time>
      </trkpt>
      <trkpt lat="48.69368" lon="7.2844">
        <ele>394.1</ele>
        <time>2020-05-26T17:30:57Z</time>
      </trkpt>
      <trkpt lat="48.69372" lon="7.28443">
        <ele>394.5</ele>
        <time>2020-05-26T17:30:55Z</time>
      </trkpt>
      <trkpt lat="48.69376" lon="7.28447">
        <ele>394.3</ele>
        <time>2020-05-26T17:30:53Z</time>
      </trkpt>
      <trkpt lat="48.6938" lon="7.28451">
        <ele>394.9</ele>
        <time>2020-05-26T17:30:51Z</time>
      </trkpt>
      <trkpt lat="48.69384" lon="7.28455">
        <ele>395.1</ele>
        <time>2020-05-26T17:30:49Z</time>
      </trkpt>
      <trkpt lat="48.69388" lon="7.28459">
        <ele>395.6</ele>
        <time>2020-05-26T17:30:47Z</time>
      </trkpt>
      <trkpt lat="48.69393" lon="7.28463">
        <ele>395.4</ele>
        <time>2020-05-26T17:30:45Z</time>
      </trkpt>
      <trkpt lat="48.69399" lon="7.28468">
        <ele>394.1</ele>
        <time>2020-05-26T17:30:42Z</time>
      </trkpt>
      <trkpt lat="48.69403" lon="7.28472">
        <ele>393.5</ele>
        <time>2020-05-26T17:30:40Z</time>
      </trkpt>
      <trkpt lat="48.69409" lon="7.28479">
        <ele>393.1</ele>
        <time>2020-05-26T17:30:37Z</time>
      </trkpt>
      <trkpt lat="48.69414" lon="7.28484">
        <ele>393.3</ele>
        <time>2020-05-26T17:30:35Z</time>
      </trkpt>
      <trkpt lat="48.69419" lon="7.2849">
        <ele>393.8</ele>
        <time>2020-05-26T17:30:33Z</time>
      </trkpt>
      <trkpt lat="48.69425" lon="7.28494">
        <ele>394.1</ele>
        <time>2020-05-26T17:30:31Z</time>
      </trkpt>
      <trkpt lat="48.69432" lon="7.28499">
        <ele>392.9</ele>
        <time>2020-05-26T17:30:28Z</time>
      </trkpt>
      <trkpt lat="48.69436" lon="7.28503">
        <ele>392.3</ele>
        <time>2020-05-26T17:30:26Z</time>
      </trkpt>
      <trkpt lat="48.6944" lon="7.28507">
        <ele>391.5</ele>
        <time>2020-05-26T17:30:24Z</time>
      </trkpt>
      <trkpt lat="48.69444" lon="7.28512">
        <ele>390.7</ele>
        <time>2020-05-26T17:30:22Z</time>
      </trkpt>
      <trkpt lat="48.69448" lon="7.28518">
        <ele>391.2</ele>
        <time>2020-05-26T17:30:19Z</time>
      </trkpt>
      <trkpt lat="48.69453" lon="7.28522">
        <ele>393.3</ele>
        <time>2020-05-26T17:30:17Z</time>
      </trkpt>
      <trkpt lat="48.69457" lon="7.28525">
        <ele>393.1</ele>
        <time>2020-05-26T17:30:15Z</time>
      </trkpt>
      <trkpt lat="48.69462" lon="7.28529">
        <ele>393</ele>
        <time>2020-05-26T17:30:13Z</time>
      </trkpt>
      <trkpt lat="48.69469" lon="7.28535">
        <ele>393.1</ele>
        <time>2020-05-26T17:30:10Z</time>
      </trkpt>
      <trkpt lat="48.69473" lon="7.28539">
        <ele>393.3</ele>
        <time>2020-05-26T17:30:08Z</time>
      </trkpt>
      <trkpt lat="48.69478" lon="7.28544">
        <ele>392.9</ele>
        <time>2020-05-26T17:30:05Z</time>
      </trkpt>
      <trkpt lat="48.69484" lon="7.28548">
        <ele>391.4</ele>
        <time>2020-05-26T17:30:02Z</time>
      </trkpt>
      <trkpt lat="48.6949" lon="7.28554">
        <ele>391</ele>
        <time>2020-05-26T17:29:59Z</time>
      </trkpt>
      <trkpt lat="48.69496" lon="7.28558">
        <ele>390.8</ele>
        <time>2020-05-26T17:29:56Z</time>
      </trkpt>
      <trkpt lat="48.695" lon="7.28561">
        <ele>390.4</ele>
        <time>2020-05-26T17:29:54Z</time>
      </trkpt>
      <trkpt lat="48.69506" lon="7.28565">
        <ele>389.3</ele>
        <time>2020-05-26T17:29:51Z</time>
      </trkpt>
      <trkpt lat="48.69511" lon="7.2857">
        <ele>388.9</ele>
        <time>2020-05-26T17:29:48Z</time>
      </trkpt>
      <trkpt lat="48.69517" lon="7.28576">
        <ele>388.6</ele>
        <time>2020-05-26T17:29:45Z</time>
      </trkpt>
      <trkpt lat="48.69522" lon="7.2858">
        <ele>387.9</ele>
        <time>2020-05-26T17:29:42Z</time>
      </trkpt>
      <trkpt lat="48.69528" lon="7.28585">
        <ele>386.9</ele>
        <time>2020-05-26T17:29:39Z</time>
      </trkpt>
      <trkpt lat="48.69534" lon="7.28588">
        <ele>385.5</ele>
        <time>2020-05-26T17:29:36Z</time>
      </trkpt>
      <trkpt lat="48.69541" lon="7.28592">
        <ele>383.6</ele>
        <time>2020-05-26T17:29:33Z</time>
      </trkpt>
      <trkpt lat="48.69545" lon="7.28595">
        <ele>385.3</ele>
        <time>2020-05-26T17:29:31Z</time>
      </trkpt>
      <trkpt lat="48.6955" lon="7.286">
        <ele>384.8</ele>
        <time>2020-05-26T17:29:28Z</time>
      </trkpt>
      <trkpt lat="48.69555" lon="7.28601">
        <ele>384.2</ele>
        <time>2020-05-26T17:29:25Z</time>
      </trkpt>
      <trkpt lat="48.69561" lon="7.28603">
        <ele>385.8</ele>
        <time>2020-05-26T17:29:22Z</time>
      </trkpt>
      <trkpt lat="48.69567" lon="7.28607">
        <ele>385.1</ele>
        <time>2020-05-26T17:29:19Z</time>
      </trkpt>
      <trkpt lat="48.69573" lon="7.28611">
        <ele>384.5</ele>
        <time>2020-05-26T17:29:16Z</time>
      </trkpt>
      <trkpt lat="48.69577" lon="7.28613">
        <ele>384.2</ele>
        <time>2020-05-26T17:29:14Z</time>
      </trkpt>
      <trkpt lat="48.69582" lon="7.28615">
        <ele>383.9</ele>
        <time>2020-05-26T17:29:12Z</time>
      </trkpt>
      <trkpt lat="48.69587" lon="7.28617">
        <ele>383.5</ele>
        <time>2020-05-26T17:29:10Z</time>
      </trkpt>
      <trkpt lat="48.69592" lon="7.28619">
        <ele>383</ele>
        <time>2020-05-26T17:29:08Z</time>
      </trkpt>
      <trkpt lat="48.69597" lon="7.28622">
        <ele>382.7</ele>
        <time>2020-05-26T17:29:06Z</time>
      </trkpt>
      <trkpt lat="48.69603" lon="7.28625">
        <ele>381.4</ele>
        <time>2020-05-26T17:29:03Z</time>
      </trkpt>
      <trkpt lat="48.69608" lon="7.28627">
        <ele>379.2</ele>
        <time>2020-05-26T17:29:00Z</time>
      </trkpt>
      <trkpt lat="48.69613" lon="7.28629">
        <ele>378</ele>
        <time>2020-05-26T17:28:58Z</time>
      </trkpt>
      <trkpt lat="48.69619" lon="7.28632">
        <ele>377.6</ele>
        <time>2020-05-26T17:28:56Z</time>
      </trkpt>
      <trkpt lat="48.69625" lon="7.28635">
        <ele>376.4</ele>
        <time>2020-05-26T17:28:53Z</time>
      </trkpt>
      <trkpt lat="48.69629" lon="7.28639">
        <ele>375.8</ele>
        <time>2020-05-26T17:28:51Z</time>
      </trkpt>
      <trkpt lat="48.69633" lon="7.28644">
        <ele>375.8</ele>
        <time>2020-05-26T17:28:49Z</time>
      </trkpt>
      <trkpt lat="48.69637" lon="7.28648">
        <ele>376.8</ele>
        <time>2020-05-26T17:28:47Z</time>
      </trkpt>
      <trkpt lat="48.69642" lon="7.28654">
        <ele>376.1</ele>
        <time>2020-05-26T17:28:45Z</time>
      </trkpt>
      <trkpt lat="48.69647" lon="7.28662">
        <ele>374.7</ele>
        <time>2020-05-26T17:28:42Z</time>
      </trkpt>
      <trkpt lat="48.6965" lon="7.28668">
        <ele>373.2</ele>
        <time>2020-05-26T17:28:39Z</time>
      </trkpt>
      <trkpt lat="48.69654" lon="7.28673">
        <ele>372.2</ele>
        <time>2020-05-26T17:28:36Z</time>
      </trkpt>
      <trkpt lat="48.69658" lon="7.2868">
        <ele>371.8</ele>
        <time>2020-05-26T17:28:33Z</time>
      </trkpt>
      <trkpt lat="48.69659" lon="7.28688">
        <ele>371.2</ele>
        <time>2020-05-26T17:28:30Z</time>
      </trkpt>
      <trkpt lat="48.69661" lon="7.28697">
        <ele>371.2</ele>
        <time>2020-05-26T17:28:27Z</time>
      </trkpt>
      <trkpt lat="48.69663" lon="7.28706">
        <ele>371.1</ele>
        <time>2020-05-26T17:28:24Z</time>
      </trkpt>
      <trkpt lat="48.69665" lon="7.28713">
        <ele>370.7</ele>
        <time>2020-05-26T17:28:22Z</time>
      </trkpt>
      <trkpt lat="48.69667" lon="7.28719">
        <ele>370.1</ele>
        <time>2020-05-26T17:28:20Z</time>
      </trkpt>
      <trkpt lat="48.69671" lon="7.28727">
        <ele>369.3</ele>
        <time>2020-05-26T17:28:17Z</time>
      </trkpt>
      <trkpt lat="48.69674" lon="7.28733">
        <ele>368.2</ele>
        <time>2020-05-26T17:28:15Z</time>
      </trkpt>
      <trkpt lat="48.69678" lon="7.28741">
        <ele>368.1</ele>
        <time>2020-05-26T17:28:12Z</time>
      </trkpt>
      <trkpt lat="48.69682" lon="7.28749">
        <ele>367.8</ele>
        <time>2020-05-26T17:28:09Z</time>
      </trkpt>
      <trkpt lat="48.69685" lon="7.28756">
        <ele>367</ele>
        <time>2020-05-26T17:28:06Z</time>
      </trkpt>
      <trkpt lat="48.69688" lon="7.28764">
        <ele>366</ele>
        <time>2020-05-26T17:28:03Z</time>
      </trkpt>
      <trkpt lat="48.69691" lon="7.28769">
        <ele>365.5</ele>
        <time>2020-05-26T17:28:01Z</time>
      </trkpt>
      <trkpt lat="48.69694" lon="7.28775">
        <ele>365.5</ele>
        <time>2020-05-26T17:27:59Z</time>
      </trkpt>
      <trkpt lat="48.69699" lon="7.28785">
        <ele>366.4</ele>
        <time>2020-05-26T17:27:56Z</time>
      </trkpt>
      <trkpt lat="48.69702" lon="7.28791">
        <ele>367.4</ele>
        <time>2020-05-26T17:27:54Z</time>
      </trkpt>
      <trkpt lat="48.69705" lon="7.28798">
        <ele>368.1</ele>
        <time>2020-05-26T17:27:52Z</time>
      </trkpt>
      <trkpt lat="48.69709" lon="7.28805">
        <ele>368.8</ele>
        <time>2020-05-26T17:27:50Z</time>
      </trkpt>
      <trkpt lat="48.69712" lon="7.28811">
        <ele>369.7</ele>
        <time>2020-05-26T17:27:48Z</time>
      </trkpt>
      <trkpt lat="48.69715" lon="7.28818">
        <ele>370.8</ele>
        <time>2020-05-26T17:27:46Z</time>
      </trkpt>
      <trkpt lat="48.69718" lon="7.28825">
        <ele>372.4</ele>
        <time>2020-05-26T17:27:44Z</time>
      </trkpt>
      <trkpt lat="48.69722" lon="7.2883">
        <ele>372.9</ele>
        <time>2020-05-26T17:27:42Z</time>
      </trkpt>
      <trkpt lat="48.69729" lon="7.28839">
        <ele>374.3</ele>
        <time>2020-05-26T17:27:39Z</time>
      </trkpt>
      <trkpt lat="48.69733" lon="7.28845">
        <ele>373.5</ele>
        <time>2020-05-26T17:27:37Z</time>
      </trkpt>
      <trkpt lat="48.69738" lon="7.2885">
        <ele>371.8</ele>
        <time>2020-05-26T17:27:34Z</time>
      </trkpt>
      <trkpt lat="48.69745" lon="7.28854">
        <ele>369.1</ele>
        <time>2020-05-26T17:27:31Z</time>
      </trkpt>
      <trkpt lat="48.6975" lon="7.28858">
        <ele>368.1</ele>
        <time>2020-05-26T17:27:29Z</time>
      </trkpt>
      <trkpt lat="48.69755" lon="7.28862">
        <ele>367</ele>
        <time>2020-05-26T17:27:27Z</time>
      </trkpt>
      <trkpt lat="48.69762" lon="7.28868">
        <ele>365</ele>
        <time>2020-05-26T17:27:24Z</time>
      </trkpt>
      <trkpt lat="48.69767" lon="7.28871">
        <ele>363.7</ele>
        <time>2020-05-26T17:27:22Z</time>
      </trkpt>
      <trkpt lat="48.69772" lon="7.28874">
        <ele>362.3</ele>
        <time>2020-05-26T17:27:20Z</time>
      </trkpt>
      <trkpt lat="48.69776" lon="7.28876">
        <ele>360.7</ele>
        <time>2020-05-26T17:27:18Z</time>
      </trkpt>
      <trkpt lat="48.69783" lon="7.28882">
        <ele>359.7</ele>
        <time>2020-05-26T17:27:15Z</time>
      </trkpt>
      <trkpt lat="48.69788" lon="7.28886">
        <ele>359.4</ele>
        <time>2020-05-26T17:27:13Z</time>
      </trkpt>
      <trkpt lat="48.69794" lon="7.2889">
        <ele>359.6</ele>
        <time>2020-05-26T17:27:11Z</time>
      </trkpt>
      <trkpt lat="48.69801" lon="7.28894">
        <ele>359.2</ele>
        <time>2020-05-26T17:27:08Z</time>
      </trkpt>
      <trkpt lat="48.69805" lon="7.28896">
        <ele>358.9</ele>
        <time>2020-05-26T17:27:06Z</time>
      </trkpt>
      <trkpt lat="48.69812" lon="7.28903">
        <ele>358.4</ele>
        <time>2020-05-26T17:27:03Z</time>
      </trkpt>
      <trkpt lat="48.69817" lon="7.28907">
        <ele>357.4</ele>
        <time>2020-05-26T17:27:01Z</time>
      </trkpt>
      <trkpt lat="48.6982" lon="7.28912">
        <ele>355.8</ele>
        <time>2020-05-26T17:26:59Z</time>
      </trkpt>
      <trkpt lat="48.69824" lon="7.28917">
        <ele>355.5</ele>
        <time>2020-05-26T17:26:56Z</time>
      </trkpt>
      <trkpt lat="48.69829" lon="7.28923">
        <ele>354.6</ele>
        <time>2020-05-26T17:26:53Z</time>
      </trkpt>
      <trkpt lat="48.69833" lon="7.28929">
        <ele>354</ele>
        <time>2020-05-26T17:26:51Z</time>
      </trkpt>
      <trkpt lat="48.69838" lon="7.28933">
        <ele>353.7</ele>
        <time>2020-05-26T17:26:49Z</time>
      </trkpt>
      <trkpt lat="48.69844" lon="7.28939">
        <ele>353.2</ele>
        <time>2020-05-26T17:26:46Z</time>
      </trkpt>
      <trkpt lat="48.69848" lon="7.28943">
        <ele>352.9</ele>
        <time>2020-05-26T17:26:44Z</time>
      </trkpt>
      <trkpt lat="48.69853" lon="7.28947">
        <ele>352.8</ele>
        <time>2020-05-26T17:26:42Z</time>
      </trkpt>
      <trkpt lat="48.69858" lon="7.28951">
        <ele>351.9</ele>
        <time>2020-05-26T17:26:40Z</time>
      </trkpt>
      <trkpt lat="48.69862" lon="7.28956">
        <ele>350.8</ele>
        <time>2020-05-26T17:26:37Z</time>
      </trkpt>
      <trkpt lat="48.69868" lon="7.28961">
        <ele>350.1</ele>
        <time>2020-05-26T17:26:34Z</time>
      </trkpt>
      <trkpt lat="48.69872" lon="7.28964">
        <ele>349.7</ele>
        <time>2020-05-26T17:26:32Z</time>
      </trkpt>
      <trkpt lat="48.69877" lon="7.28968">
        <ele>350.4</ele>
        <time>2020-05-26T17:26:30Z</time>
      </trkpt>
      <trkpt lat="48.69881" lon="7.28973">
        <ele>351</ele>
        <time>2020-05-26T17:26:28Z</time>
      </trkpt>
      <trkpt lat="48.69885" lon="7.28977">
        <ele>351.4</ele>
        <time>2020-05-26T17:26:26Z</time>
      </trkpt>
      <trkpt lat="48.6989" lon="7.28979">
        <ele>350.5</ele>
        <time>2020-05-26T17:26:24Z</time>
      </trkpt>
      <trkpt lat="48.69895" lon="7.28981">
        <ele>349.2</ele>
        <time>2020-05-26T17:26:22Z</time>
      </trkpt>
      <trkpt lat="48.699" lon="7.28984">
        <ele>347.8</ele>
        <time>2020-05-26T17:26:20Z</time>
      </trkpt>
      <trkpt lat="48.69905" lon="7.28988">
        <ele>347.7</ele>
        <time>2020-05-26T17:26:18Z</time>
      </trkpt>
      <trkpt lat="48.6991" lon="7.28991">
        <ele>348.1</ele>
        <time>2020-05-26T17:26:16Z</time>
      </trkpt>
      <trkpt lat="48.69915" lon="7.28995">
        <ele>350.4</ele>
        <time>2020-05-26T17:26:14Z</time>
      </trkpt>
      <trkpt lat="48.69923" lon="7.28998">
        <ele>350.7</ele>
        <time>2020-05-26T17:26:11Z</time>
      </trkpt>
      <trkpt lat="48.69928" lon="7.28998">
        <ele>350.7</ele>
        <time>2020-05-26T17:26:09Z</time>
      </trkpt>
      <trkpt lat="48.69933" lon="7.28998">
        <ele>349.8</ele>
        <time>2020-05-26T17:26:07Z</time>
      </trkpt>
      <trkpt lat="48.69939" lon="7.28999">
        <ele>349.5</ele>
        <time>2020-05-26T17:26:05Z</time>
      </trkpt>
      <trkpt lat="48.69943" lon="7.29002">
        <ele>349.6</ele>
        <time>2020-05-26T17:26:03Z</time>
      </trkpt>
      <trkpt lat="48.69947" lon="7.29006">
        <ele>351.7</ele>
        <time>2020-05-26T17:26:01Z</time>
      </trkpt>
      <trkpt lat="48.69952" lon="7.29008">
        <ele>352.1</ele>
        <time>2020-05-26T17:25:59Z</time>
      </trkpt>
      <trkpt lat="48.69958" lon="7.29009">
        <ele>352.2</ele>
        <time>2020-05-26T17:25:57Z</time>
      </trkpt>
      <trkpt lat="48.69965" lon="7.2901">
        <ele>351.4</ele>
        <time>2020-05-26T17:25:55Z</time>
      </trkpt>
      <trkpt lat="48.6997" lon="7.29012">
        <ele>350.7</ele>
        <time>2020-05-26T17:25:53Z</time>
      </trkpt>
      <trkpt lat="48.69975" lon="7.29016">
        <ele>351.2</ele>
        <time>2020-05-26T17:25:51Z</time>
      </trkpt>
      <trkpt lat="48.69979" lon="7.29019">
        <ele>351.8</ele>
        <time>2020-05-26T17:25:49Z</time>
      </trkpt>
      <trkpt lat="48.69985" lon="7.29022">
        <ele>350.4</ele>
        <time>2020-05-26T17:25:46Z</time>
      </trkpt>
      <trkpt lat="48.69991" lon="7.29024">
        <ele>349.3</ele>
        <time>2020-05-26T17:25:43Z</time>
      </trkpt>
      <trkpt lat="48.69995" lon="7.29026">
        <ele>347</ele>
        <time>2020-05-26T17:25:40Z</time>
      </trkpt>
      <trkpt lat="48.7" lon="7.29028">
        <ele>345.7</ele>
        <time>2020-05-26T17:25:37Z</time>
      </trkpt>
      <trkpt lat="48.70005" lon="7.29032">
        <ele>343.3</ele>
        <time>2020-05-26T17:25:33Z</time>
      </trkpt>
      <trkpt lat="48.70011" lon="7.29033">
        <ele>338.4</ele>
        <time>2020-05-26T17:25:29Z</time>
      </trkpt>
      <trkpt lat="48.70016" lon="7.29034">
        <ele>332.5</ele>
        <time>2020-05-26T17:25:26Z</time>
      </trkpt>
      <trkpt lat="48.70022" lon="7.29035">
        <ele>325.1</ele>
        <time>2020-05-26T17:25:22Z</time>
      </trkpt>
      <trkpt lat="48.70026" lon="7.29038">
        <ele>319.2</ele>
        <time>2020-05-26T17:25:19Z</time>
      </trkpt>
      <trkpt lat="48.70031" lon="7.2904">
        <ele>314.6</ele>
        <time>2020-05-26T17:25:16Z</time>
      </trkpt>
      <trkpt lat="48.70037" lon="7.29043">
        <ele>311.5</ele>
        <time>2020-05-26T17:25:13Z</time>
      </trkpt>
      <trkpt lat="48.70041" lon="7.29046">
        <ele>317.6</ele>
        <time>2020-05-26T17:25:10Z</time>
      </trkpt>
      <trkpt lat="48.70046" lon="7.29047">
        <ele>351.7</ele>
        <time>2020-05-26T17:25:07Z</time>
      </trkpt>
      <trkpt lat="48.70052" lon="7.29048">
        <ele>351.7</ele>
        <time>2020-05-26T17:25:04Z</time>
      </trkpt>
      <trkpt lat="48.70057" lon="7.29049">
        <ele>351.4</ele>
        <time>2020-05-26T17:25:01Z</time>
      </trkpt>
      <trkpt lat="48.70063" lon="7.2905">
        <ele>351.5</ele>
        <time>2020-05-26T17:24:58Z</time>
      </trkpt>
      <trkpt lat="48.70069" lon="7.29051">
        <ele>351.4</ele>
        <time>2020-05-26T17:24:55Z</time>
      </trkpt>
      <trkpt lat="48.70074" lon="7.29052">
        <ele>350.9</ele>
        <time>2020-05-26T17:24:52Z</time>
      </trkpt>
      <trkpt lat="48.7008" lon="7.29054">
        <ele>349.8</ele>
        <time>2020-05-26T17:24:49Z</time>
      </trkpt>
      <trkpt lat="48.70085" lon="7.29057">
        <ele>350.5</ele>
        <time>2020-05-26T17:24:46Z</time>
      </trkpt>
      <trkpt lat="48.70091" lon="7.2906">
        <ele>349.5</ele>
        <time>2020-05-26T17:24:43Z</time>
      </trkpt>
      <trkpt lat="48.70095" lon="7.29062">
        <ele>347.5</ele>
        <time>2020-05-26T17:24:40Z</time>
      </trkpt>
      <trkpt lat="48.701" lon="7.29064">
        <ele>345.3</ele>
        <time>2020-05-26T17:24:37Z</time>
      </trkpt>
      <trkpt lat="48.70106" lon="7.29066">
        <ele>343</ele>
        <time>2020-05-26T17:24:33Z</time>
      </trkpt>
      <trkpt lat="48.70111" lon="7.29067">
        <ele>341.8</ele>
        <time>2020-05-26T17:24:30Z</time>
      </trkpt>
      <trkpt lat="48.70116" lon="7.29069">
        <ele>341.1</ele>
        <time>2020-05-26T17:24:27Z</time>
      </trkpt>
      <trkpt lat="48.70121" lon="7.29073">
        <ele>340.9</ele>
        <time>2020-05-26T17:24:24Z</time>
      </trkpt>
      <trkpt lat="48.70126" lon="7.29076">
        <ele>340.7</ele>
        <time>2020-05-26T17:24:21Z</time>
      </trkpt>
      <trkpt lat="48.70131" lon="7.29081">
        <ele>340.8</ele>
        <time>2020-05-26T17:24:18Z</time>
      </trkpt>
      <trkpt lat="48.70136" lon="7.29084">
        <ele>340.5</ele>
        <time>2020-05-26T17:24:15Z</time>
      </trkpt>
      <trkpt lat="48.70141" lon="7.29086">
        <ele>338.9</ele>
        <time>2020-05-26T17:24:12Z</time>
      </trkpt>
      <trkpt lat="48.70147" lon="7.29086">
        <ele>336.9</ele>
        <time>2020-05-26T17:24:09Z</time>
      </trkpt>
      <trkpt lat="48.70152" lon="7.29087">
        <ele>334.9</ele>
        <time>2020-05-26T17:24:06Z</time>
      </trkpt>
      <trkpt lat="48.70158" lon="7.29087">
        <ele>333.9</ele>
        <time>2020-05-26T17:24:03Z</time>
      </trkpt>
      <trkpt lat="48.70163" lon="7.29089">
        <ele>332.3</ele>
        <time>2020-05-26T17:24:00Z</time>
      </trkpt>
      <trkpt lat="48.70168" lon="7.29091">
        <ele>331.2</ele>
        <time>2020-05-26T17:23:57Z</time>
      </trkpt>
      <trkpt lat="48.70173" lon="7.29092">
        <ele>331.8</ele>
        <time>2020-05-26T17:23:54Z</time>
      </trkpt>
      <trkpt lat="48.70178" lon="7.29095">
        <ele>334.1</ele>
        <time>2020-05-26T17:23:51Z</time>
      </trkpt>
      <trkpt lat="48.70183" lon="7.29098">
        <ele>335.2</ele>
        <time>2020-05-26T17:23:48Z</time>
      </trkpt>
      <trkpt lat="48.70189" lon="7.29099">
        <ele>335.9</ele>
        <time>2020-05-26T17:23:45Z</time>
      </trkpt>
      <trkpt lat="48.70194" lon="7.29099">
        <ele>335.4</ele>
        <time>2020-05-26T17:23:43Z</time>
      </trkpt>
      <trkpt lat="48.70199" lon="7.291">
        <ele>334.7</ele>
        <time>2020-05-26T17:23:40Z</time>
      </trkpt>
      <trkpt lat="48.70204" lon="7.291">
        <ele>333.8</ele>
        <time>2020-05-26T17:23:37Z</time>
      </trkpt>
      <trkpt lat="48.70209" lon="7.29101">
        <ele>334.9</ele>
        <time>2020-05-26T17:23:34Z</time>
      </trkpt>
      <trkpt lat="48.70214" lon="7.29101">
        <ele>336.1</ele>
        <time>2020-05-26T17:23:31Z</time>
      </trkpt>
      <trkpt lat="48.70219" lon="7.29102">
        <ele>336.5</ele>
        <time>2020-05-26T17:23:28Z</time>
      </trkpt>
      <trkpt lat="48.70223" lon="7.29104">
        <ele>335.9</ele>
        <time>2020-05-26T17:23:25Z</time>
      </trkpt>
      <trkpt lat="48.70228" lon="7.29106">
        <ele>331.3</ele>
        <time>2020-05-26T17:23:21Z</time>
      </trkpt>
      <trkpt lat="48.70234" lon="7.29107">
        <ele>330.4</ele>
        <time>2020-05-26T17:23:17Z</time>
      </trkpt>
      <trkpt lat="48.7024" lon="7.29109">
        <ele>330.4</ele>
        <time>2020-05-26T17:23:13Z</time>
      </trkpt>
      <trkpt lat="48.70245" lon="7.29111">
        <ele>330.5</ele>
        <time>2020-05-26T17:23:10Z</time>
      </trkpt>
      <trkpt lat="48.7025" lon="7.29113">
        <ele>329.5</ele>
        <time>2020-05-26T17:23:07Z</time>
      </trkpt>
      <trkpt lat="48.70255" lon="7.29117">
        <ele>328.6</ele>
        <time>2020-05-26T17:23:04Z</time>
      </trkpt>
      <trkpt lat="48.70261" lon="7.2912">
        <ele>327.2</ele>
        <time>2020-05-26T17:23:01Z</time>
      </trkpt>
      <trkpt lat="48.70266" lon="7.29122">
        <ele>325.9</ele>
        <time>2020-05-26T17:22:58Z</time>
      </trkpt>
      <trkpt lat="48.70272" lon="7.29122">
        <ele>324.5</ele>
        <time>2020-05-26T17:22:55Z</time>
      </trkpt>
      <trkpt lat="48.70277" lon="7.29123">
        <ele>325</ele>
        <time>2020-05-26T17:22:52Z</time>
      </trkpt>
      <trkpt lat="48.70283" lon="7.29123">
        <ele>325.1</ele>
        <time>2020-05-26T17:22:49Z</time>
      </trkpt>
      <trkpt lat="48.70289" lon="7.29124">
        <ele>325.8</ele>
        <time>2020-05-26T17:22:46Z</time>
      </trkpt>
      <trkpt lat="48.70295" lon="7.29124">
        <ele>326.1</ele>
        <time>2020-05-26T17:22:43Z</time>
      </trkpt>
      <trkpt lat="48.70301" lon="7.29122">
        <ele>325.5</ele>
        <time>2020-05-26T17:22:40Z</time>
      </trkpt>
      <trkpt lat="48.70307" lon="7.29118">
        <ele>322</ele>
        <time>2020-05-26T17:22:37Z</time>
      </trkpt>
      <trkpt lat="48.70311" lon="7.29114">
        <ele>322</ele>
        <time>2020-05-26T17:22:35Z</time>
      </trkpt>
      <trkpt lat="48.70316" lon="7.2911">
        <ele>322</ele>
        <time>2020-05-26T17:22:33Z</time>
      </trkpt>
      <trkpt lat="48.7032" lon="7.29105">
        <ele>320.3</ele>
        <time>2020-05-26T17:22:31Z</time>
      </trkpt>
      <trkpt lat="48.70324" lon="7.29099">
        <ele>319.8</ele>
        <time>2020-05-26T17:22:29Z</time>
      </trkpt>
      <trkpt lat="48.70327" lon="7.29094">
        <ele>318.6</ele>
        <time>2020-05-26T17:22:27Z</time>
      </trkpt>
      <trkpt lat="48.7033" lon="7.29089">
        <ele>317.7</ele>
        <time>2020-05-26T17:22:25Z</time>
      </trkpt>
      <trkpt lat="48.70334" lon="7.29083">
        <ele>316.3</ele>
        <time>2020-05-26T17:22:23Z</time>
      </trkpt>
      <trkpt lat="48.70338" lon="7.29076">
        <ele>316.8</ele>
        <time>2020-05-26T17:22:21Z</time>
      </trkpt>
      <trkpt lat="48.70342" lon="7.29069">
        <ele>318.6</ele>
        <time>2020-05-26T17:22:19Z</time>
      </trkpt>
      <trkpt lat="48.70348" lon="7.29062">
        <ele>319</ele>
        <time>2020-05-26T17:22:17Z</time>
      </trkpt>
      <trkpt lat="48.70352" lon="7.29051">
        <ele>319.6</ele>
        <time>2020-05-26T17:22:15Z</time>
      </trkpt>
      <trkpt lat="48.70355" lon="7.29038">
        <ele>325.4</ele>
        <time>2020-05-26T17:17:25Z</time>
      </trkpt>
      <trkpt lat="48.70356" lon="7.29045">
        <ele>325.6</ele>
        <time>2020-05-26T17:17:13Z</time>
      </trkpt>
      <trkpt lat="48.7036" lon="7.29048">
        <ele>308.1</ele>
        <time>2020-05-26T17:17:05Z</time>
      </trkpt>
      <trkpt lat="48.70365" lon="7.29049">
        <ele>308.1</ele>
        <time>2020-05-26T17:17:02Z</time>
      </trkpt>
      <trkpt lat="48.70371" lon="7.29046">
        <ele>307.5</ele>
        <time>2020-05-26T17:16:59Z</time>
      </trkpt>
      <trkpt lat="48.70376" lon="7.29043">
        <ele>307.5</ele>
        <time>2020-05-26T17:16:57Z</time>
      </trkpt>
      <trkpt lat="48.70381" lon="7.29041">
        <ele>307.5</ele>
        <time>2020-05-26T17:16:55Z</time>
      </trkpt>
      <trkpt lat="48.70386" lon="7.29037">
        <ele>307.5</ele>
        <time>2020-05-26T17:16:52Z</time>
      </trkpt>
      <trkpt lat="48.70391" lon="7.29034">
        <ele>307.1</ele>
        <time>2020-05-26T17:16:49Z</time>
      </trkpt>
      <trkpt lat="48.70395" lon="7.29029">
        <ele>306.4</ele>
        <time>2020-05-26T17:16:45Z</time>
      </trkpt>
      <trkpt lat="48.70399" lon="7.29022">
        <ele>305.6</ele>
        <time>2020-05-26T17:16:42Z</time>
      </trkpt>
      <trkpt lat="48.70402" lon="7.29015">
        <ele>305.6</ele>
        <time>2020-05-26T17:16:39Z</time>
      </trkpt>
      <trkpt lat="48.70404" lon="7.29007">
        <ele>305.5</ele>
        <time>2020-05-26T17:16:36Z</time>
      </trkpt>
      <trkpt lat="48.70405" lon="7.28999">
        <ele>304.3</ele>
        <time>2020-05-26T17:16:33Z</time>
      </trkpt>
      <trkpt lat="48.70407" lon="7.28991">
        <ele>303</ele>
        <time>2020-05-26T17:16:30Z</time>
      </trkpt>
      <trkpt lat="48.70409" lon="7.28982">
        <ele>301.1</ele>
        <time>2020-05-26T17:16:27Z</time>
      </trkpt>
      <trkpt lat="48.7041" lon="7.28974">
        <ele>299.9</ele>
        <time>2020-05-26T17:16:24Z</time>
      </trkpt>
      <trkpt lat="48.70411" lon="7.28967">
        <ele>299.3</ele>
        <time>2020-05-26T17:16:21Z</time>
      </trkpt>
      <trkpt lat="48.70413" lon="7.2896">
        <ele>299.2</ele>
        <time>2020-05-26T17:16:18Z</time>
      </trkpt>
      <trkpt lat="48.70414" lon="7.28953">
        <ele>298.6</ele>
        <time>2020-05-26T17:16:15Z</time>
      </trkpt>
      <trkpt lat="48.70415" lon="7.28945">
        <ele>299.2</ele>
        <time>2020-05-26T17:16:12Z</time>
      </trkpt>
      <trkpt lat="48.70416" lon="7.28936">
        <ele>299.2</ele>
        <time>2020-05-26T17:16:09Z</time>
      </trkpt>
      <trkpt lat="48.70416" lon="7.28929">
        <ele>299.2</ele>
        <time>2020-05-26T17:16:06Z</time>
      </trkpt>
      <trkpt lat="48.70416" lon="7.28919">
        <ele>298.4</ele>
        <time>2020-05-26T17:16:03Z</time>
      </trkpt>
      <trkpt lat="48.70415" lon="7.28912">
        <ele>297.9</ele>
        <time>2020-05-26T17:16:01Z</time>
      </trkpt>
      <trkpt lat="48.70413" lon="7.28905">
        <ele>296.6</ele>
        <time>2020-05-26T17:15:59Z</time>
      </trkpt>
      <trkpt lat="48.70413" lon="7.28895">
        <ele>296.9</ele>
        <time>2020-05-26T17:15:56Z</time>
      </trkpt>
      <trkpt lat="48.70413" lon="7.28887">
        <ele>297.7</ele>
        <time>2020-05-26T17:15:53Z</time>
      </trkpt>
      <trkpt lat="48.70413" lon="7.28879">
        <ele>299.2</ele>
        <time>2020-05-26T17:15:50Z</time>
      </trkpt>
      <trkpt lat="48.70415" lon="7.28871">
        <ele>299.6</ele>
        <time>2020-05-26T17:15:47Z</time>
      </trkpt>
      <trkpt lat="48.70417" lon="7.28862">
        <ele>300.7</ele>
        <time>2020-05-26T17:15:44Z</time>
      </trkpt>
      <trkpt lat="48.70417" lon="7.28852">
        <ele>301.5</ele>
        <time>2020-05-26T17:15:41Z</time>
      </trkpt>
      <trkpt lat="48.70417" lon="7.28842">
        <ele>300.5</ele>
        <time>2020-05-26T17:15:38Z</time>
      </trkpt>
      <trkpt lat="48.70417" lon="7.28833">
        <ele>299.2</ele>
        <time>2020-05-26T17:15:35Z</time>
      </trkpt>
      <trkpt lat="48.70418" lon="7.28826">
        <ele>298</ele>
        <time>2020-05-26T17:15:33Z</time>
      </trkpt>
      <trkpt lat="48.7042" lon="7.28818">
        <ele>296.5</ele>
        <time>2020-05-26T17:15:31Z</time>
      </trkpt>
      <trkpt lat="48.7042" lon="7.2881">
        <ele>295.7</ele>
        <time>2020-05-26T17:15:29Z</time>
      </trkpt>
      <trkpt lat="48.7042" lon="7.28803">
        <ele>294.1</ele>
        <time>2020-05-26T17:15:27Z</time>
      </trkpt>
      <trkpt lat="48.70421" lon="7.28796">
        <ele>292.3</ele>
        <time>2020-05-26T17:15:25Z</time>
      </trkpt>
      <trkpt lat="48.70421" lon="7.28786">
        <ele>289.7</ele>
        <time>2020-05-26T17:15:22Z</time>
      </trkpt>
      <trkpt lat="48.70421" lon="7.28777">
        <ele>287.4</ele>
        <time>2020-05-26T17:15:19Z</time>
      </trkpt>
      <trkpt lat="48.70422" lon="7.28768">
        <ele>286.8</ele>
        <time>2020-05-26T17:15:16Z</time>
      </trkpt>
      <trkpt lat="48.70421" lon="7.28759">
        <ele>286.5</ele>
        <time>2020-05-26T17:15:13Z</time>
      </trkpt>
      <trkpt lat="48.70421" lon="7.2875">
        <ele>286.1</ele>
        <time>2020-05-26T17:15:10Z</time>
      </trkpt>
      <trkpt lat="48.7042" lon="7.28742">
        <ele>286.1</ele>
        <time>2020-05-26T17:15:08Z</time>
      </trkpt>
      <trkpt lat="48.7042" lon="7.28735">
        <ele>286</ele>
        <time>2020-05-26T17:15:06Z</time>
      </trkpt>
      <trkpt lat="48.7042" lon="7.28725">
        <ele>284.3</ele>
        <time>2020-05-26T17:15:03Z</time>
      </trkpt>
      <trkpt lat="48.7042" lon="7.28716">
        <ele>283.6</ele>
        <time>2020-05-26T17:15:00Z</time>
      </trkpt>
      <trkpt lat="48.70419" lon="7.28708">
        <ele>282.2</ele>
        <time>2020-05-26T17:14:58Z</time>
      </trkpt>
      <trkpt lat="48.70418" lon="7.28701">
        <ele>281.3</ele>
        <time>2020-05-26T17:14:56Z</time>
      </trkpt>
      <trkpt lat="48.70417" lon="7.28693">
        <ele>280.3</ele>
        <time>2020-05-26T17:14:53Z</time>
      </trkpt>
      <trkpt lat="48.70416" lon="7.28685">
        <ele>280.1</ele>
        <time>2020-05-26T17:14:50Z</time>
      </trkpt>
      <trkpt lat="48.70415" lon="7.28677">
        <ele>281.6</ele>
        <time>2020-05-26T17:14:47Z</time>
      </trkpt>
      <trkpt lat="48.70416" lon="7.28668">
        <ele>282.7</ele>
        <time>2020-05-26T17:14:44Z</time>
      </trkpt>
      <trkpt lat="48.70416" lon="7.2866">
        <ele>283.2</ele>
        <time>2020-05-26T17:14:41Z</time>
      </trkpt>
      <trkpt lat="48.70416" lon="7.28652">
        <ele>283.4</ele>
        <time>2020-05-26T17:14:38Z</time>
      </trkpt>
      <trkpt lat="48.70416" lon="7.28643">
        <ele>282.8</ele>
        <time>2020-05-26T17:14:35Z</time>
      </trkpt>
      <trkpt lat="48.70416" lon="7.28636">
        <ele>282.7</ele>
        <time>2020-05-26T17:14:33Z</time>
      </trkpt>
      <trkpt lat="48.70415" lon="7.28629">
        <ele>282.8</ele>
        <time>2020-05-26T17:14:31Z</time>
      </trkpt>
      <trkpt lat="48.70415" lon="7.28622">
        <ele>282.5</ele>
        <time>2020-05-26T17:14:29Z</time>
      </trkpt>
      <trkpt lat="48.70414" lon="7.28614">
        <ele>282.7</ele>
        <time>2020-05-26T17:14:27Z</time>
      </trkpt>
      <trkpt lat="48.70414" lon="7.28607">
        <ele>283.3</ele>
        <time>2020-05-26T17:14:25Z</time>
      </trkpt>
      <trkpt lat="48.70413" lon="7.28597">
        <ele>282.1</ele>
        <time>2020-05-26T17:14:22Z</time>
      </trkpt>
      <trkpt lat="48.70412" lon="7.28588">
        <ele>281.4</ele>
        <time>2020-05-26T17:14:19Z</time>
      </trkpt>
      <trkpt lat="48.7041" lon="7.28581">
        <ele>281</ele>
        <time>2020-05-26T17:14:17Z</time>
      </trkpt>
      <trkpt lat="48.70409" lon="7.28571">
        <ele>281.4</ele>
        <time>2020-05-26T17:14:14Z</time>
      </trkpt>
      <trkpt lat="48.70407" lon="7.28562">
        <ele>282.3</ele>
        <time>2020-05-26T17:14:11Z</time>
      </trkpt>
      <trkpt lat="48.70406" lon="7.28555">
        <ele>282.6</ele>
        <time>2020-05-26T17:14:09Z</time>
      </trkpt>
      <trkpt lat="48.70405" lon="7.28548">
        <ele>282.8</ele>
        <time>2020-05-26T17:14:07Z</time>
      </trkpt>
      <trkpt lat="48.70404" lon="7.28542">
        <ele>283</ele>
        <time>2020-05-26T17:14:05Z</time>
      </trkpt>
      <trkpt lat="48.70402" lon="7.28535">
        <ele>282.8</ele>
        <time>2020-05-26T17:14:03Z</time>
      </trkpt>
      <trkpt lat="48.70401" lon="7.28527">
        <ele>282.2</ele>
        <time>2020-05-26T17:14:01Z</time>
      </trkpt>
      <trkpt lat="48.70399" lon="7.28518">
        <ele>282.9</ele>
        <time>2020-05-26T17:13:58Z</time>
      </trkpt>
      <trkpt lat="48.70397" lon="7.28511">
        <ele>282.8</ele>
        <time>2020-05-26T17:13:56Z</time>
      </trkpt>
      <trkpt lat="48.70396" lon="7.28502">
        <ele>283</ele>
        <time>2020-05-26T17:13:54Z</time>
      </trkpt>
      <trkpt lat="48.70394" lon="7.28495">
        <ele>283.2</ele>
        <time>2020-05-26T17:13:52Z</time>
      </trkpt>
      <trkpt lat="48.70392" lon="7.28488">
        <ele>283.3</ele>
        <time>2020-05-26T17:13:50Z</time>
      </trkpt>
      <trkpt lat="48.7039" lon="7.28479">
        <ele>283.2</ele>
        <time>2020-05-26T17:13:47Z</time>
      </trkpt>
      <trkpt lat="48.7039" lon="7.28471">
        <ele>282.4</ele>
        <time>2020-05-26T17:13:44Z</time>
      </trkpt>
      <trkpt lat="48.70392" lon="7.28461">
        <ele>283.2</ele>
        <time>2020-05-26T17:13:41Z</time>
      </trkpt>
      <trkpt lat="48.70392" lon="7.28454">
        <ele>283.6</ele>
        <time>2020-05-26T17:13:39Z</time>
      </trkpt>
      <trkpt lat="48.70392" lon="7.28445">
        <ele>282.6</ele>
        <time>2020-05-26T17:13:36Z</time>
      </trkpt>
      <trkpt lat="48.70391" lon="7.28435">
        <ele>281.5</ele>
        <time>2020-05-26T17:13:33Z</time>
      </trkpt>
      <trkpt lat="48.70391" lon="7.28426">
        <ele>280.5</ele>
        <time>2020-05-26T17:13:30Z</time>
      </trkpt>
      <trkpt lat="48.7039" lon="7.28418">
        <ele>278.9</ele>
        <time>2020-05-26T17:13:27Z</time>
      </trkpt>
      <trkpt lat="48.70389" lon="7.28409">
        <ele>276.6</ele>
        <time>2020-05-26T17:13:24Z</time>
      </trkpt>
      <trkpt lat="48.70389" lon="7.28401">
        <ele>274.7</ele>
        <time>2020-05-26T17:13:20Z</time>
      </trkpt>
      <trkpt lat="48.70392" lon="7.28408">
        <ele>273.4</ele>
        <time>2020-05-26T17:13:13Z</time>
      </trkpt>
      <trkpt lat="48.70395" lon="7.28402">
        <ele>274.1</ele>
        <time>2020-05-26T17:13:01Z</time>
      </trkpt>
      <trkpt lat="48.70395" lon="7.28395">
        <ele>275.7</ele>
        <time>2020-05-26T17:12:56Z</time>
      </trkpt>
      <trkpt lat="48.70396" lon="7.28387">
        <ele>276.4</ele>
        <time>2020-05-26T17:12:54Z</time>
      </trkpt>
      <trkpt lat="48.70395" lon="7.28379">
        <ele>276.9</ele>
        <time>2020-05-26T17:12:52Z</time>
      </trkpt>
      <trkpt lat="48.70394" lon="7.2837">
        <ele>277.5</ele>
        <time>2020-05-26T17:12:50Z</time>
      </trkpt>
      <trkpt lat="48.70393" lon="7.28358">
        <ele>278.4</ele>
        <time>2020-05-26T17:12:48Z</time>
      </trkpt>
      <trkpt lat="48.7039" lon="7.28346">
        <ele>278.4</ele>
        <time>2020-05-26T17:12:46Z</time>
      </trkpt>
      <trkpt lat="48.70388" lon="7.28335">
        <ele>278.4</ele>
        <time>2020-05-26T17:12:44Z</time>
      </trkpt>
      <trkpt lat="48.70384" lon="7.28322">
        <ele>277</ele>
        <time>2020-05-26T17:12:42Z</time>
      </trkpt>
      <trkpt lat="48.70381" lon="7.2831">
        <ele>275.9</ele>
        <time>2020-05-26T17:12:40Z</time>
      </trkpt>
      <trkpt lat="48.70379" lon="7.28297">
        <ele>274.9</ele>
        <time>2020-05-26T17:12:38Z</time>
      </trkpt>
      <trkpt lat="48.70377" lon="7.28287">
        <ele>275.4</ele>
        <time>2020-05-26T17:12:35Z</time>
      </trkpt>
      <trkpt lat="48.70376" lon="7.2828">
        <ele>278.9</ele>
        <time>2020-05-26T17:11:44Z</time>
      </trkpt>
      <trkpt lat="48.70377" lon="7.28273">
        <ele>279.2</ele>
        <time>2020-05-26T17:11:42Z</time>
      </trkpt>
      <trkpt lat="48.70376" lon="7.28265">
        <ele>279.6</ele>
        <time>2020-05-26T17:11:40Z</time>
      </trkpt>
      <trkpt lat="48.70373" lon="7.28248">
        <ele>279.8</ele>
        <time>2020-05-26T17:11:38Z</time>
      </trkpt>
      <trkpt lat="48.70368" lon="7.28231">
        <ele>280.5</ele>
        <time>2020-05-26T17:11:36Z</time>
      </trkpt>
      <trkpt lat="48.70363" lon="7.28204">
        <ele>281.6</ele>
        <time>2020-05-26T17:11:33Z</time>
      </trkpt>
      <trkpt lat="48.70356" lon="7.28183">
        <ele>282.2</ele>
        <time>2020-05-26T17:11:30Z</time>
      </trkpt>
      <trkpt lat="48.70353" lon="7.28173">
        <ele>282.3</ele>
        <time>2020-05-26T17:11:28Z</time>
      </trkpt>
      <trkpt lat="48.7035" lon="7.28162">
        <ele>282</ele>
        <time>2020-05-26T17:11:26Z</time>
      </trkpt>
      <trkpt lat="48.70348" lon="7.28152">
        <ele>282.4</ele>
        <time>2020-05-26T17:11:24Z</time>
      </trkpt>
      <trkpt lat="48.70346" lon="7.28141">
        <ele>282.6</ele>
        <time>2020-05-26T17:11:22Z</time>
      </trkpt>
      <trkpt lat="48.70344" lon="7.28129">
        <ele>283.3</ele>
        <time>2020-05-26T17:11:20Z</time>
      </trkpt>
      <trkpt lat="48.70339" lon="7.28113">
        <ele>283.7</ele>
        <time>2020-05-26T17:11:18Z</time>
      </trkpt>
      <trkpt lat="48.70334" lon="7.28099">
        <ele>283.3</ele>
        <time>2020-05-26T17:11:16Z</time>
      </trkpt>
      <trkpt lat="48.70332" lon="7.2809">
        <ele>283.2</ele>
        <time>2020-05-26T17:11:14Z</time>
      </trkpt>
      <trkpt lat="48.70329" lon="7.28083">
        <ele>284.3</ele>
        <time>2020-05-26T17:11:11Z</time>
      </trkpt>
      <trkpt lat="48.70327" lon="7.28076">
        <ele>283.7</ele>
        <time>2020-05-26T17:11:09Z</time>
      </trkpt>
      <trkpt lat="48.70324" lon="7.28066">
        <ele>284</ele>
        <time>2020-05-26T17:11:07Z</time>
      </trkpt>
      <trkpt lat="48.7032" lon="7.28052">
        <ele>283.2</ele>
        <time>2020-05-26T17:11:05Z</time>
      </trkpt>
      <trkpt lat="48.70315" lon="7.2804">
        <ele>284.3</ele>
        <time>2020-05-26T17:11:03Z</time>
      </trkpt>
      <trkpt lat="48.70311" lon="7.2803">
        <ele>285.3</ele>
        <time>2020-05-26T17:11:01Z</time>
      </trkpt>
      <trkpt lat="48.70308" lon="7.2802">
        <ele>286</ele>
        <time>2020-05-26T17:10:59Z</time>
      </trkpt>
      <trkpt lat="48.70306" lon="7.28009">
        <ele>287.2</ele>
        <time>2020-05-26T17:10:57Z</time>
      </trkpt>
      <trkpt lat="48.70302" lon="7.27998">
        <ele>287.9</ele>
        <time>2020-05-26T17:10:55Z</time>
      </trkpt>
      <trkpt lat="48.70295" lon="7.27984">
        <ele>289.3</ele>
        <time>2020-05-26T17:10:53Z</time>
      </trkpt>
      <trkpt lat="48.70287" lon="7.27966">
        <ele>292</ele>
        <time>2020-05-26T17:10:50Z</time>
      </trkpt>
      <trkpt lat="48.70283" lon="7.27956">
        <ele>293.9</ele>
        <time>2020-05-26T17:10:48Z</time>
      </trkpt>
      <trkpt lat="48.70278" lon="7.2794">
        <ele>294.1</ele>
        <time>2020-05-26T17:10:46Z</time>
      </trkpt>
      <trkpt lat="48.70272" lon="7.27925">
        <ele>295.3</ele>
        <time>2020-05-26T17:10:44Z</time>
      </trkpt>
      <trkpt lat="48.70267" lon="7.27908">
        <ele>297.6</ele>
        <time>2020-05-26T17:10:42Z</time>
      </trkpt>
      <trkpt lat="48.70261" lon="7.27893">
        <ele>300</ele>
        <time>2020-05-26T17:10:40Z</time>
      </trkpt>
      <trkpt lat="48.70252" lon="7.27876">
        <ele>301.2</ele>
        <time>2020-05-26T17:10:38Z</time>
      </trkpt>
      <trkpt lat="48.70245" lon="7.2786">
        <ele>303.1</ele>
        <time>2020-05-26T17:10:36Z</time>
      </trkpt>
      <trkpt lat="48.70237" lon="7.27841">
        <ele>304.2</ele>
        <time>2020-05-26T17:10:34Z</time>
      </trkpt>
      <trkpt lat="48.70227" lon="7.27823">
        <ele>305.2</ele>
        <time>2020-05-26T17:10:32Z</time>
      </trkpt>
      <trkpt lat="48.70219" lon="7.27809">
        <ele>305.3</ele>
        <time>2020-05-26T17:10:30Z</time>
      </trkpt>
      <trkpt lat="48.70207" lon="7.2779">
        <ele>306.8</ele>
        <time>2020-05-26T17:10:28Z</time>
      </trkpt>
      <trkpt lat="48.702" lon="7.27771">
        <ele>307.1</ele>
        <time>2020-05-26T17:10:26Z</time>
      </trkpt>
      <trkpt lat="48.70193" lon="7.27754">
        <ele>307.1</ele>
        <time>2020-05-26T17:10:24Z</time>
      </trkpt>
      <trkpt lat="48.70189" lon="7.27738">
        <ele>307.5</ele>
        <time>2020-05-26T17:10:22Z</time>
      </trkpt>
      <trkpt lat="48.70184" lon="7.27723">
        <ele>307.5</ele>
        <time>2020-05-26T17:10:20Z</time>
      </trkpt>
      <trkpt lat="48.70179" lon="7.27712">
        <ele>307</ele>
        <time>2020-05-26T17:10:18Z</time>
      </trkpt>
      <trkpt lat="48.70171" lon="7.27701">
        <ele>306.9</ele>
        <time>2020-05-26T17:10:16Z</time>
      </trkpt>
      <trkpt lat="48.70163" lon="7.27686">
        <ele>306.9</ele>
        <time>2020-05-26T17:10:14Z</time>
      </trkpt>
      <trkpt lat="48.70155" lon="7.27671">
        <ele>307.6</ele>
        <time>2020-05-26T17:10:12Z</time>
      </trkpt>
      <trkpt lat="48.7015" lon="7.27655">
        <ele>308.6</ele>
        <time>2020-05-26T17:10:10Z</time>
      </trkpt>
      <trkpt lat="48.70145" lon="7.27636">
        <ele>309.7</ele>
        <time>2020-05-26T17:10:08Z</time>
      </trkpt>
      <trkpt lat="48.70139" lon="7.27623">
        <ele>310.7</ele>
        <time>2020-05-26T17:10:06Z</time>
      </trkpt>
      <trkpt lat="48.70136" lon="7.27616">
        <ele>311.5</ele>
        <time>2020-05-26T17:10:04Z</time>
      </trkpt>
      <trkpt lat="48.70132" lon="7.2761">
        <ele>313</ele>
        <time>2020-05-26T17:09:57Z</time>
      </trkpt>
      <trkpt lat="48.70128" lon="7.27605">
        <ele>314.7</ele>
        <time>2020-05-26T17:09:52Z</time>
      </trkpt>
      <trkpt lat="48.70122" lon="7.27597">
        <ele>316</ele>
        <time>2020-05-26T17:09:49Z</time>
      </trkpt>
      <trkpt lat="48.70117" lon="7.27586">
        <ele>316.7</ele>
        <time>2020-05-26T17:09:47Z</time>
      </trkpt>
      <trkpt lat="48.70112" lon="7.27575">
        <ele>319.1</ele>
        <time>2020-05-26T17:09:45Z</time>
      </trkpt>
      <trkpt lat="48.70107" lon="7.27565">
        <ele>320.2</ele>
        <time>2020-05-26T17:09:43Z</time>
      </trkpt>
      <trkpt lat="48.70099" lon="7.27552">
        <ele>319.8</ele>
        <time>2020-05-26T17:09:41Z</time>
      </trkpt>
      <trkpt lat="48.7009" lon="7.27535">
        <ele>319.8</ele>
        <time>2020-05-26T17:09:39Z</time>
      </trkpt>
      <trkpt lat="48.70082" lon="7.27519">
        <ele>320.3</ele>
        <time>2020-05-26T17:09:37Z</time>
      </trkpt>
      <trkpt lat="48.70076" lon="7.27504">
        <ele>321.1</ele>
        <time>2020-05-26T17:09:35Z</time>
      </trkpt>
      <trkpt lat="48.7007" lon="7.27489">
        <ele>322</ele>
        <time>2020-05-26T17:09:33Z</time>
      </trkpt>
      <trkpt lat="48.70065" lon="7.27473">
        <ele>323.7</ele>
        <time>2020-05-26T17:09:31Z</time>
      </trkpt>
      <trkpt lat="48.7006" lon="7.27455">
        <ele>324.7</ele>
        <time>2020-05-26T17:09:29Z</time>
      </trkpt>
      <trkpt lat="48.70052" lon="7.27429">
        <ele>326.5</ele>
        <time>2020-05-26T17:09:26Z</time>
      </trkpt>
      <trkpt lat="48.70042" lon="7.27406">
        <ele>328.1</ele>
        <time>2020-05-26T17:09:23Z</time>
      </trkpt>
      <trkpt lat="48.70037" lon="7.27387">
        <ele>329.7</ele>
        <time>2020-05-26T17:09:21Z</time>
      </trkpt>
      <trkpt lat="48.70032" lon="7.27368">
        <ele>330.8</ele>
        <time>2020-05-26T17:09:19Z</time>
      </trkpt>
      <trkpt lat="48.70029" lon="7.27354">
        <ele>331.4</ele>
        <time>2020-05-26T17:09:17Z</time>
      </trkpt>
      <trkpt lat="48.70024" lon="7.27342">
        <ele>331.4</ele>
        <time>2020-05-26T17:09:15Z</time>
      </trkpt>
      <trkpt lat="48.7002" lon="7.27331">
        <ele>332.4</ele>
        <time>2020-05-26T17:09:13Z</time>
      </trkpt>
      <trkpt lat="48.70017" lon="7.2732">
        <ele>333.9</ele>
        <time>2020-05-26T17:09:11Z</time>
      </trkpt>
      <trkpt lat="48.70016" lon="7.27305">
        <ele>335.6</ele>
        <time>2020-05-26T17:09:09Z</time>
      </trkpt>
      <trkpt lat="48.70013" lon="7.27286">
        <ele>337</ele>
        <time>2020-05-26T17:09:07Z</time>
      </trkpt>
      <trkpt lat="48.70011" lon="7.27269">
        <ele>338.1</ele>
        <time>2020-05-26T17:09:05Z</time>
      </trkpt>
      <trkpt lat="48.70009" lon="7.27249">
        <ele>339.7</ele>
        <time>2020-05-26T17:09:03Z</time>
      </trkpt>
      <trkpt lat="48.70006" lon="7.27227">
        <ele>341</ele>
        <time>2020-05-26T17:09:01Z</time>
      </trkpt>
      <trkpt lat="48.70001" lon="7.27208">
        <ele>342</ele>
        <time>2020-05-26T17:08:59Z</time>
      </trkpt>
      <trkpt lat="48.7" lon="7.27196">
        <ele>344</ele>
        <time>2020-05-26T17:08:57Z</time>
      </trkpt>
      <trkpt lat="48.69999" lon="7.27185">
        <ele>344.7</ele>
        <time>2020-05-26T17:08:55Z</time>
      </trkpt>
      <trkpt lat="48.69999" lon="7.27172">
        <ele>346.8</ele>
        <time>2020-05-26T17:08:53Z</time>
      </trkpt>
      <trkpt lat="48.7" lon="7.27161">
        <ele>348.2</ele>
        <time>2020-05-26T17:08:51Z</time>
      </trkpt>
      <trkpt lat="48.7" lon="7.27149">
        <ele>348.3</ele>
        <time>2020-05-26T17:08:49Z</time>
      </trkpt>
      <trkpt lat="48.69999" lon="7.27137">
        <ele>349</ele>
        <time>2020-05-26T17:08:47Z</time>
      </trkpt>
      <trkpt lat="48.69997" lon="7.27126">
        <ele>349.8</ele>
        <time>2020-05-26T17:08:45Z</time>
      </trkpt>
      <trkpt lat="48.69997" lon="7.27115">
        <ele>350.1</ele>
        <time>2020-05-26T17:08:43Z</time>
      </trkpt>
      <trkpt lat="48.69998" lon="7.27103">
        <ele>350.4</ele>
        <time>2020-05-26T17:08:41Z</time>
      </trkpt>
      <trkpt lat="48.69998" lon="7.27087">
        <ele>351.1</ele>
        <time>2020-05-26T17:08:39Z</time>
      </trkpt>
      <trkpt lat="48.69998" lon="7.27072">
        <ele>351.2</ele>
        <time>2020-05-26T17:08:37Z</time>
      </trkpt>
      <trkpt lat="48.7" lon="7.27064">
        <ele>350.8</ele>
        <time>2020-05-26T17:08:35Z</time>
      </trkpt>
      <trkpt lat="48.70001" lon="7.27052">
        <ele>350.5</ele>
        <time>2020-05-26T17:08:33Z</time>
      </trkpt>
      <trkpt lat="48.70001" lon="7.27042">
        <ele>350.3</ele>
        <time>2020-05-26T17:08:31Z</time>
      </trkpt>
      <trkpt lat="48.7" lon="7.27033">
        <ele>349.4</ele>
        <time>2020-05-26T17:08:29Z</time>
      </trkpt>
      <trkpt lat="48.69998" lon="7.27022">
        <ele>348.6</ele>
        <time>2020-05-26T17:08:27Z</time>
      </trkpt>
      <trkpt lat="48.69996" lon="7.27008">
        <ele>347.7</ele>
        <time>2020-05-26T17:08:25Z</time>
      </trkpt>
      <trkpt lat="48.69992" lon="7.26993">
        <ele>346.3</ele>
        <time>2020-05-26T17:08:23Z</time>
      </trkpt>
      <trkpt lat="48.69988" lon="7.26982">
        <ele>344.5</ele>
        <time>2020-05-26T17:08:21Z</time>
      </trkpt>
      <trkpt lat="48.69983" lon="7.26971">
        <ele>342.4</ele>
        <time>2020-05-26T17:08:19Z</time>
      </trkpt>
      <trkpt lat="48.69979" lon="7.26956">
        <ele>340.3</ele>
        <time>2020-05-26T17:08:17Z</time>
      </trkpt>
      <trkpt lat="48.69976" lon="7.26942">
        <ele>338.4</ele>
        <time>2020-05-26T17:08:15Z</time>
      </trkpt>
      <trkpt lat="48.69973" lon="7.26933">
        <ele>338.6</ele>
        <time>2020-05-26T17:08:13Z</time>
      </trkpt>
      <trkpt lat="48.69968" lon="7.26926">
        <ele>337.9</ele>
        <time>2020-05-26T17:08:10Z</time>
      </trkpt>
      <trkpt lat="48.69963" lon="7.26925">
        <ele>337.9</ele>
        <time>2020-05-26T17:08:08Z</time>
      </trkpt>
      <trkpt lat="48.69955" lon="7.26929">
        <ele>338</ele>
        <time>2020-05-26T17:08:06Z</time>
      </trkpt>
      <trkpt lat="48.69946" lon="7.26938">
        <ele>338.6</ele>
        <time>2020-05-26T17:08:04Z</time>
      </trkpt>
      <trkpt lat="48.69936" lon="7.26948">
        <ele>339.4</ele>
        <time>2020-05-26T17:08:02Z</time>
      </trkpt>
      <trkpt lat="48.69928" lon="7.26953">
        <ele>340.3</ele>
        <time>2020-05-26T17:08:00Z</time>
      </trkpt>
      <trkpt lat="48.69921" lon="7.2696">
        <ele>342</ele>
        <time>2020-05-26T17:07:58Z</time>
      </trkpt>
      <trkpt lat="48.69914" lon="7.26968">
        <ele>343</ele>
        <time>2020-05-26T17:07:56Z</time>
      </trkpt>
      <trkpt lat="48.69907" lon="7.26977">
        <ele>343.8</ele>
        <time>2020-05-26T17:07:54Z</time>
      </trkpt>
      <trkpt lat="48.69899" lon="7.26987">
        <ele>344.9</ele>
        <time>2020-05-26T17:07:52Z</time>
      </trkpt>
      <trkpt lat="48.69888" lon="7.26998">
        <ele>346.7</ele>
        <time>2020-05-26T17:07:50Z</time>
      </trkpt>
      <trkpt lat="48.69877" lon="7.27007">
        <ele>348.6</ele>
        <time>2020-05-26T17:07:48Z</time>
      </trkpt>
      <trkpt lat="48.69868" lon="7.27016">
        <ele>350.8</ele>
        <time>2020-05-26T17:07:46Z</time>
      </trkpt>
      <trkpt lat="48.6986" lon="7.27026">
        <ele>352.9</ele>
        <time>2020-05-26T17:07:44Z</time>
      </trkpt>
      <trkpt lat="48.69853" lon="7.27036">
        <ele>355.2</ele>
        <time>2020-05-26T17:07:42Z</time>
      </trkpt>
      <trkpt lat="48.69844" lon="7.27054">
        <ele>359</ele>
        <time>2020-05-26T17:07:39Z</time>
      </trkpt>
      <trkpt lat="48.69833" lon="7.27071">
        <ele>364.6</ele>
        <time>2020-05-26T17:07:36Z</time>
      </trkpt>
      <trkpt lat="48.69827" lon="7.27081">
        <ele>364.5</ele>
        <time>2020-05-26T17:07:34Z</time>
      </trkpt>
      <trkpt lat="48.69822" lon="7.27092">
        <ele>355</ele>
        <time>2020-05-26T17:07:32Z</time>
      </trkpt>
      <trkpt lat="48.69819" lon="7.27107">
        <ele>355.2</ele>
        <time>2020-05-26T17:07:30Z</time>
      </trkpt>
      <trkpt lat="48.69816" lon="7.27122">
        <ele>355.1</ele>
        <time>2020-05-26T17:07:28Z</time>
      </trkpt>
      <trkpt lat="48.69811" lon="7.27137">
        <ele>355.7</ele>
        <time>2020-05-26T17:07:26Z</time>
      </trkpt>
      <trkpt lat="48.69805" lon="7.27156">
        <ele>356.8</ele>
        <time>2020-05-26T17:07:24Z</time>
      </trkpt>
      <trkpt lat="48.69798" lon="7.27167">
        <ele>357.8</ele>
        <time>2020-05-26T17:07:22Z</time>
      </trkpt>
      <trkpt lat="48.6979" lon="7.27179">
        <ele>359.1</ele>
        <time>2020-05-26T17:07:20Z</time>
      </trkpt>
      <trkpt lat="48.69784" lon="7.27193">
        <ele>360.5</ele>
        <time>2020-05-26T17:07:18Z</time>
      </trkpt>
      <trkpt lat="48.69778" lon="7.27209">
        <ele>362.7</ele>
        <time>2020-05-26T17:07:16Z</time>
      </trkpt>
      <trkpt lat="48.69771" lon="7.27224">
        <ele>363.9</ele>
        <time>2020-05-26T17:07:14Z</time>
      </trkpt>
      <trkpt lat="48.69765" lon="7.2723">
        <ele>364.8</ele>
        <time>2020-05-26T17:07:12Z</time>
      </trkpt>
      <trkpt lat="48.6976" lon="7.27232">
        <ele>365.2</ele>
        <time>2020-05-26T17:07:10Z</time>
      </trkpt>
      <trkpt lat="48.69755" lon="7.27233">
        <ele>365.1</ele>
        <time>2020-05-26T17:07:08Z</time>
      </trkpt>
      <trkpt lat="48.6975" lon="7.27231">
        <ele>365.2</ele>
        <time>2020-05-26T17:07:06Z</time>
      </trkpt>
      <trkpt lat="48.69745" lon="7.27227">
        <ele>366.7</ele>
        <time>2020-05-26T17:07:04Z</time>
      </trkpt>
      <trkpt lat="48.69739" lon="7.2722">
        <ele>368.1</ele>
        <time>2020-05-26T17:07:02Z</time>
      </trkpt>
      <trkpt lat="48.69727" lon="7.27208">
        <ele>371.7</ele>
        <time>2020-05-26T17:06:59Z</time>
      </trkpt>
      <trkpt lat="48.69718" lon="7.27196">
        <ele>372.9</ele>
        <time>2020-05-26T17:06:57Z</time>
      </trkpt>
      <trkpt lat="48.69707" lon="7.27182">
        <ele>374</ele>
        <time>2020-05-26T17:06:55Z</time>
      </trkpt>
      <trkpt lat="48.69695" lon="7.27169">
        <ele>374.7</ele>
        <time>2020-05-26T17:06:53Z</time>
      </trkpt>
      <trkpt lat="48.69686" lon="7.27156">
        <ele>375.7</ele>
        <time>2020-05-26T17:06:51Z</time>
      </trkpt>
      <trkpt lat="48.69675" lon="7.27146">
        <ele>376.8</ele>
        <time>2020-05-26T17:06:49Z</time>
      </trkpt>
      <trkpt lat="48.69661" lon="7.27136">
        <ele>378.5</ele>
        <time>2020-05-26T17:06:47Z</time>
      </trkpt>
      <trkpt lat="48.69648" lon="7.27128">
        <ele>380.7</ele>
        <time>2020-05-26T17:06:45Z</time>
      </trkpt>
      <trkpt lat="48.69635" lon="7.2712">
        <ele>381.5</ele>
        <time>2020-05-26T17:06:43Z</time>
      </trkpt>
      <trkpt lat="48.69629" lon="7.27113">
        <ele>383.4</ele>
        <time>2020-05-26T17:06:41Z</time>
      </trkpt>
      <trkpt lat="48.69623" lon="7.27109">
        <ele>384.7</ele>
        <time>2020-05-26T17:06:39Z</time>
      </trkpt>
      <trkpt lat="48.69618" lon="7.27105">
        <ele>386.3</ele>
        <time>2020-05-26T17:06:37Z</time>
      </trkpt>
      <trkpt lat="48.69613" lon="7.27099">
        <ele>388.1</ele>
        <time>2020-05-26T17:06:33Z</time>
      </trkpt>
      <trkpt lat="48.69611" lon="7.27093">
        <ele>390.6</ele>
        <time>2020-05-26T17:05:58Z</time>
      </trkpt>
      <trkpt lat="48.69609" lon="7.27086">
        <ele>380.4</ele>
        <time>2020-05-26T17:05:25Z</time>
      </trkpt>
      <trkpt lat="48.69605" lon="7.27083">
        <ele>380.6</ele>
        <time>2020-05-26T17:05:22Z</time>
      </trkpt>
      <trkpt lat="48.69598" lon="7.27076">
        <ele>381.7</ele>
        <time>2020-05-26T17:05:20Z</time>
      </trkpt>
      <trkpt lat="48.69588" lon="7.27063">
        <ele>381</ele>
        <time>2020-05-26T17:05:17Z</time>
      </trkpt>
      <trkpt lat="48.69584" lon="7.27058">
        <ele>380.7</ele>
        <time>2020-05-26T17:05:15Z</time>
      </trkpt>
      <trkpt lat="48.69578" lon="7.27051">
        <ele>380.7</ele>
        <time>2020-05-26T17:05:13Z</time>
      </trkpt>
      <trkpt lat="48.69563" lon="7.27043">
        <ele>380.9</ele>
        <time>2020-05-26T17:05:10Z</time>
      </trkpt>
      <trkpt lat="48.69556" lon="7.27032">
        <ele>380.3</ele>
        <time>2020-05-26T17:05:07Z</time>
      </trkpt>
      <trkpt lat="48.69554" lon="7.27025">
        <ele>380.2</ele>
        <time>2020-05-26T17:05:05Z</time>
      </trkpt>
      <trkpt lat="48.69551" lon="7.27018">
        <ele>380.4</ele>
        <time>2020-05-26T17:05:02Z</time>
      </trkpt>
      <trkpt lat="48.69551" lon="7.27011">
        <ele>378.3</ele>
        <time>2020-05-26T17:04:47Z</time>
      </trkpt>
      <trkpt lat="48.69548" lon="7.27005">
        <ele>378.9</ele>
        <time>2020-05-26T17:04:44Z</time>
      </trkpt>
      <trkpt lat="48.69537" lon="7.26987">
        <ele>379.5</ele>
        <time>2020-05-26T17:04:41Z</time>
      </trkpt>
      <trkpt lat="48.6953" lon="7.26971">
        <ele>379.9</ele>
        <time>2020-05-26T17:04:39Z</time>
      </trkpt>
      <trkpt lat="48.69524" lon="7.26955">
        <ele>380.5</ele>
        <time>2020-05-26T17:04:37Z</time>
      </trkpt>
      <trkpt lat="48.6952" lon="7.26937">
        <ele>380.7</ele>
        <time>2020-05-26T17:04:35Z</time>
      </trkpt>
      <trkpt lat="48.69514" lon="7.26914">
        <ele>380.1</ele>
        <time>2020-05-26T17:04:32Z</time>
      </trkpt>
      <trkpt lat="48.69513" lon="7.26898">
        <ele>380.5</ele>
        <time>2020-05-26T17:04:30Z</time>
      </trkpt>
      <trkpt lat="48.69515" lon="7.26883">
        <ele>381.2</ele>
        <time>2020-05-26T17:04:28Z</time>
      </trkpt>
      <trkpt lat="48.69515" lon="7.26868">
        <ele>380.8</ele>
        <time>2020-05-26T17:04:26Z</time>
      </trkpt>
      <trkpt lat="48.6952" lon="7.26854">
        <ele>381.4</ele>
        <time>2020-05-26T17:04:24Z</time>
      </trkpt>
      <trkpt lat="48.69523" lon="7.26841">
        <ele>382.7</ele>
        <time>2020-05-26T17:04:22Z</time>
      </trkpt>
      <trkpt lat="48.69531" lon="7.26821">
        <ele>385.2</ele>
        <time>2020-05-26T17:04:19Z</time>
      </trkpt>
      <trkpt lat="48.69537" lon="7.26809">
        <ele>386.7</ele>
        <time>2020-05-26T17:04:17Z</time>
      </trkpt>
      <trkpt lat="48.6954" lon="7.26796">
        <ele>387.5</ele>
        <time>2020-05-26T17:04:15Z</time>
      </trkpt>
      <trkpt lat="48.69543" lon="7.26788">
        <ele>386.9</ele>
        <time>2020-05-26T17:04:13Z</time>
      </trkpt>
      <trkpt lat="48.69545" lon="7.2678">
        <ele>388.1</ele>
        <time>2020-05-26T17:04:11Z</time>
      </trkpt>
      <trkpt lat="48.69548" lon="7.26774">
        <ele>388</ele>
        <time>2020-05-26T17:04:09Z</time>
      </trkpt>
      <trkpt lat="48.6955" lon="7.26766">
        <ele>388.2</ele>
        <time>2020-05-26T17:04:07Z</time>
      </trkpt>
      <trkpt lat="48.69552" lon="7.26759">
        <ele>388.1</ele>
        <time>2020-05-26T17:04:05Z</time>
      </trkpt>
      <trkpt lat="48.69555" lon="7.26753">
        <ele>388.4</ele>
        <time>2020-05-26T17:04:02Z</time>
      </trkpt>
      <trkpt lat="48.6956" lon="7.2675">
        <ele>390.6</ele>
        <time>2020-05-26T17:03:56Z</time>
      </trkpt>
      <trkpt lat="48.69566" lon="7.2675">
        <ele>393.5</ele>
        <time>2020-05-26T17:03:48Z</time>
      </trkpt>
      <trkpt lat="48.6957" lon="7.26751">
        <ele>395.5</ele>
        <time>2020-05-26T17:03:34Z</time>
      </trkpt>
      <trkpt lat="48.69571" lon="7.26744">
        <ele>396.3</ele>
        <time>2020-05-26T17:03:28Z</time>
      </trkpt>
      <trkpt lat="48.69575" lon="7.26737">
        <ele>395.8</ele>
        <time>2020-05-26T17:03:26Z</time>
      </trkpt>
      <trkpt lat="48.69579" lon="7.26731">
        <ele>395.6</ele>
        <time>2020-05-26T17:03:24Z</time>
      </trkpt>
      <trkpt lat="48.69582" lon="7.26723">
        <ele>395</ele>
        <time>2020-05-26T17:03:22Z</time>
      </trkpt>
      <trkpt lat="48.69585" lon="7.26715">
        <ele>394.5</ele>
        <time>2020-05-26T17:03:19Z</time>
      </trkpt>
      <trkpt lat="48.69585" lon="7.26707">
        <ele>394</ele>
        <time>2020-05-26T17:03:17Z</time>
      </trkpt>
      <trkpt lat="48.69591" lon="7.26692">
        <ele>394</ele>
        <time>2020-05-26T17:03:14Z</time>
      </trkpt>
      <trkpt lat="48.69597" lon="7.26673">
        <ele>393.3</ele>
        <time>2020-05-26T17:03:11Z</time>
      </trkpt>
      <trkpt lat="48.69602" lon="7.26658">
        <ele>393.1</ele>
        <time>2020-05-26T17:03:09Z</time>
      </trkpt>
      <trkpt lat="48.69607" lon="7.26638">
        <ele>392.6</ele>
        <time>2020-05-26T17:03:06Z</time>
      </trkpt>
      <trkpt lat="48.69607" lon="7.26628">
        <ele>392.4</ele>
        <time>2020-05-26T17:03:04Z</time>
      </trkpt>
      <trkpt lat="48.69606" lon="7.26616">
        <ele>392.5</ele>
        <time>2020-05-26T17:03:02Z</time>
      </trkpt>
      <trkpt lat="48.69607" lon="7.26603">
        <ele>393</ele>
        <time>2020-05-26T17:03:00Z</time>
      </trkpt>
      <trkpt lat="48.69609" lon="7.26588">
        <ele>393.7</ele>
        <time>2020-05-26T17:02:58Z</time>
      </trkpt>
      <trkpt lat="48.69611" lon="7.26574">
        <ele>394.3</ele>
        <time>2020-05-26T17:02:56Z</time>
      </trkpt>
      <trkpt lat="48.69612" lon="7.26558">
        <ele>396</ele>
        <time>2020-05-26T17:02:54Z</time>
      </trkpt>
      <trkpt lat="48.69613" lon="7.26543">
        <ele>397.8</ele>
        <time>2020-05-26T17:02:52Z</time>
      </trkpt>
      <trkpt lat="48.69615" lon="7.26527">
        <ele>399.7</ele>
        <time>2020-05-26T17:02:50Z</time>
      </trkpt>
      <trkpt lat="48.69615" lon="7.26513">
        <ele>400.7</ele>
        <time>2020-05-26T17:02:48Z</time>
      </trkpt>
      <trkpt lat="48.69613" lon="7.26498">
        <ele>401.2</ele>
        <time>2020-05-26T17:02:46Z</time>
      </trkpt>
      <trkpt lat="48.69612" lon="7.26483">
        <ele>400.9</ele>
        <time>2020-05-26T17:02:44Z</time>
      </trkpt>
      <trkpt lat="48.69611" lon="7.26467">
        <ele>401</ele>
        <time>2020-05-26T17:02:42Z</time>
      </trkpt>
      <trkpt lat="48.69612" lon="7.2645">
        <ele>401.6</ele>
        <time>2020-05-26T17:02:40Z</time>
      </trkpt>
      <trkpt lat="48.69615" lon="7.26433">
        <ele>402</ele>
        <time>2020-05-26T17:02:38Z</time>
      </trkpt>
      <trkpt lat="48.69617" lon="7.26417">
        <ele>403.6</ele>
        <time>2020-05-26T17:02:36Z</time>
      </trkpt>
      <trkpt lat="48.69615" lon="7.26393">
        <ele>403.7</ele>
        <time>2020-05-26T17:02:33Z</time>
      </trkpt>
      <trkpt lat="48.69608" lon="7.26382">
        <ele>402.9</ele>
        <time>2020-05-26T17:02:31Z</time>
      </trkpt>
      <trkpt lat="48.69602" lon="7.26368">
        <ele>402.3</ele>
        <time>2020-05-26T17:02:29Z</time>
      </trkpt>
      <trkpt lat="48.69598" lon="7.26354">
        <ele>401.5</ele>
        <time>2020-05-26T17:02:27Z</time>
      </trkpt>
      <trkpt lat="48.69592" lon="7.2634">
        <ele>401.5</ele>
        <time>2020-05-26T17:02:25Z</time>
      </trkpt>
      <trkpt lat="48.69589" lon="7.26326">
        <ele>401.2</ele>
        <time>2020-05-26T17:02:23Z</time>
      </trkpt>
      <trkpt lat="48.69583" lon="7.26315">
        <ele>401.2</ele>
        <time>2020-05-26T17:02:21Z</time>
      </trkpt>
      <trkpt lat="48.69575" lon="7.26306">
        <ele>401.2</ele>
        <time>2020-05-26T17:02:19Z</time>
      </trkpt>
      <trkpt lat="48.6957" lon="7.26299">
        <ele>400.9</ele>
        <time>2020-05-26T17:02:17Z</time>
      </trkpt>
      <trkpt lat="48.69566" lon="7.26295">
        <ele>400.7</ele>
        <time>2020-05-26T17:02:15Z</time>
      </trkpt>
      <trkpt lat="48.6956" lon="7.26288">
        <ele>400.8</ele>
        <time>2020-05-26T17:02:12Z</time>
      </trkpt>
      <trkpt lat="48.69556" lon="7.26282">
        <ele>400.9</ele>
        <time>2020-05-26T17:02:10Z</time>
      </trkpt>
      <trkpt lat="48.69552" lon="7.26274">
        <ele>398.9</ele>
        <time>2020-05-26T17:02:07Z</time>
      </trkpt>
      <trkpt lat="48.69547" lon="7.26272">
        <ele>397.9</ele>
        <time>2020-05-26T17:02:04Z</time>
      </trkpt>
      <trkpt lat="48.69543" lon="7.26274">
        <ele>398.2</ele>
        <time>2020-05-26T17:02:02Z</time>
      </trkpt>
      <trkpt lat="48.69537" lon="7.26279">
        <ele>398.9</ele>
        <time>2020-05-26T17:02:00Z</time>
      </trkpt>
      <trkpt lat="48.69531" lon="7.26286">
        <ele>399.3</ele>
        <time>2020-05-26T17:01:58Z</time>
      </trkpt>
      <trkpt lat="48.69526" lon="7.26293">
        <ele>399.8</ele>
        <time>2020-05-26T17:01:56Z</time>
      </trkpt>
      <trkpt lat="48.69522" lon="7.26302">
        <ele>400.8</ele>
        <time>2020-05-26T17:01:54Z</time>
      </trkpt>
      <trkpt lat="48.69519" lon="7.26309">
        <ele>402.1</ele>
        <time>2020-05-26T17:01:52Z</time>
      </trkpt>
      <trkpt lat="48.69514" lon="7.26315">
        <ele>403.5</ele>
        <time>2020-05-26T17:01:50Z</time>
      </trkpt>
      <trkpt lat="48.69509" lon="7.26324">
        <ele>404</ele>
        <time>2020-05-26T17:01:48Z</time>
      </trkpt>
      <trkpt lat="48.69502" lon="7.26333">
        <ele>405.2</ele>
        <time>2020-05-26T17:01:46Z</time>
      </trkpt>
      <trkpt lat="48.69492" lon="7.26345">
        <ele>406.3</ele>
        <time>2020-05-26T17:01:43Z</time>
      </trkpt>
      <trkpt lat="48.69486" lon="7.26352">
        <ele>404.2</ele>
        <time>2020-05-26T17:01:41Z</time>
      </trkpt>
      <trkpt lat="48.69479" lon="7.2636">
        <ele>404.8</ele>
        <time>2020-05-26T17:01:39Z</time>
      </trkpt>
      <trkpt lat="48.69472" lon="7.26367">
        <ele>404.7</ele>
        <time>2020-05-26T17:01:37Z</time>
      </trkpt>
      <trkpt lat="48.69466" lon="7.26372">
        <ele>405.6</ele>
        <time>2020-05-26T17:01:35Z</time>
      </trkpt>
      <trkpt lat="48.69462" lon="7.26374">
        <ele>405.6</ele>
        <time>2020-05-26T17:01:33Z</time>
      </trkpt>
      <trkpt lat="48.69456" lon="7.26378">
        <ele>406.2</ele>
        <time>2020-05-26T17:01:31Z</time>
      </trkpt>
      <trkpt lat="48.69449" lon="7.26382">
        <ele>407.2</ele>
        <time>2020-05-26T17:01:29Z</time>
      </trkpt>
      <trkpt lat="48.69442" lon="7.26388">
        <ele>408.7</ele>
        <time>2020-05-26T17:01:27Z</time>
      </trkpt>
      <trkpt lat="48.69434" lon="7.26393">
        <ele>410.4</ele>
        <time>2020-05-26T17:01:25Z</time>
      </trkpt>
      <trkpt lat="48.69427" lon="7.26399">
        <ele>411.7</ele>
        <time>2020-05-26T17:01:23Z</time>
      </trkpt>
      <trkpt lat="48.69419" lon="7.26406">
        <ele>412.7</ele>
        <time>2020-05-26T17:01:21Z</time>
      </trkpt>
      <trkpt lat="48.69413" lon="7.2641">
        <ele>413.8</ele>
        <time>2020-05-26T17:01:19Z</time>
      </trkpt>
      <trkpt lat="48.69407" lon="7.26416">
        <ele>414.3</ele>
        <time>2020-05-26T17:01:17Z</time>
      </trkpt>
      <trkpt lat="48.69401" lon="7.26419">
        <ele>415.5</ele>
        <time>2020-05-26T17:01:15Z</time>
      </trkpt>
      <trkpt lat="48.69395" lon="7.26424">
        <ele>416.7</ele>
        <time>2020-05-26T17:01:13Z</time>
      </trkpt>
      <trkpt lat="48.69388" lon="7.26432">
        <ele>418.5</ele>
        <time>2020-05-26T17:01:11Z</time>
      </trkpt>
      <trkpt lat="48.69381" lon="7.26439">
        <ele>420.3</ele>
        <time>2020-05-26T17:01:09Z</time>
      </trkpt>
      <trkpt lat="48.69373" lon="7.26446">
        <ele>422.9</ele>
        <time>2020-05-26T17:01:07Z</time>
      </trkpt>
      <trkpt lat="48.69364" lon="7.26453">
        <ele>424.7</ele>
        <time>2020-05-26T17:01:05Z</time>
      </trkpt>
      <trkpt lat="48.69356" lon="7.26458">
        <ele>426.6</ele>
        <time>2020-05-26T17:01:03Z</time>
      </trkpt>
      <trkpt lat="48.69347" lon="7.26461">
        <ele>427.4</ele>
        <time>2020-05-26T17:01:01Z</time>
      </trkpt>
      <trkpt lat="48.69339" lon="7.26461">
        <ele>428.9</ele>
        <time>2020-05-26T17:00:59Z</time>
      </trkpt>
      <trkpt lat="48.69333" lon="7.26458">
        <ele>430.3</ele>
        <time>2020-05-26T17:00:57Z</time>
      </trkpt>
      <trkpt lat="48.69325" lon="7.2645">
        <ele>431.1</ele>
        <time>2020-05-26T17:00:54Z</time>
      </trkpt>
      <trkpt lat="48.6932" lon="7.26442">
        <ele>431.5</ele>
        <time>2020-05-26T17:00:52Z</time>
      </trkpt>
      <trkpt lat="48.69318" lon="7.26435">
        <ele>432.3</ele>
        <time>2020-05-26T17:00:50Z</time>
      </trkpt>
      <trkpt lat="48.69315" lon="7.26427">
        <ele>432.9</ele>
        <time>2020-05-26T17:00:48Z</time>
      </trkpt>
      <trkpt lat="48.69311" lon="7.26419">
        <ele>433.5</ele>
        <time>2020-05-26T17:00:46Z</time>
      </trkpt>
      <trkpt lat="48.69302" lon="7.26401">
        <ele>434.3</ele>
        <time>2020-05-26T17:00:43Z</time>
      </trkpt>
      <trkpt lat="48.69296" lon="7.26384">
        <ele>435.7</ele>
        <time>2020-05-26T17:00:40Z</time>
      </trkpt>
      <trkpt lat="48.69293" lon="7.26373">
        <ele>436.4</ele>
        <time>2020-05-26T17:00:38Z</time>
      </trkpt>
      <trkpt lat="48.6929" lon="7.26362">
        <ele>437.1</ele>
        <time>2020-05-26T17:00:36Z</time>
      </trkpt>
      <trkpt lat="48.69285" lon="7.2634">
        <ele>437.8</ele>
        <time>2020-05-26T17:00:33Z</time>
      </trkpt>
      <trkpt lat="48.69283" lon="7.26323">
        <ele>438.6</ele>
        <time>2020-05-26T17:00:31Z</time>
      </trkpt>
      <trkpt lat="48.69281" lon="7.26306">
        <ele>438.6</ele>
        <time>2020-05-26T17:00:29Z</time>
      </trkpt>
      <trkpt lat="48.69278" lon="7.26293">
        <ele>439.5</ele>
        <time>2020-05-26T17:00:27Z</time>
      </trkpt>
      <trkpt lat="48.69277" lon="7.26284">
        <ele>439.3</ele>
        <time>2020-05-26T17:00:25Z</time>
      </trkpt>
      <trkpt lat="48.69273" lon="7.2628">
        <ele>441.7</ele>
        <time>2020-05-26T16:59:51Z</time>
      </trkpt>
      <trkpt lat="48.6927" lon="7.26275">
        <ele>443</ele>
        <time>2020-05-26T16:59:46Z</time>
      </trkpt>
      <trkpt lat="48.69267" lon="7.26266">
        <ele>443.7</ele>
        <time>2020-05-26T16:59:44Z</time>
      </trkpt>
      <trkpt lat="48.69264" lon="7.26249">
        <ele>444.6</ele>
        <time>2020-05-26T16:59:42Z</time>
      </trkpt>
      <trkpt lat="48.6926" lon="7.26235">
        <ele>445.1</ele>
        <time>2020-05-26T16:59:40Z</time>
      </trkpt>
      <trkpt lat="48.69259" lon="7.26226">
        <ele>445</ele>
        <time>2020-05-26T16:59:38Z</time>
      </trkpt>
      <trkpt lat="48.69257" lon="7.26215">
        <ele>445.7</ele>
        <time>2020-05-26T16:59:36Z</time>
      </trkpt>
      <trkpt lat="48.69256" lon="7.26201">
        <ele>446.6</ele>
        <time>2020-05-26T16:59:34Z</time>
      </trkpt>
      <trkpt lat="48.69255" lon="7.26187">
        <ele>447.2</ele>
        <time>2020-05-26T16:59:32Z</time>
      </trkpt>
      <trkpt lat="48.69256" lon="7.26173">
        <ele>448.1</ele>
        <time>2020-05-26T16:59:30Z</time>
      </trkpt>
      <trkpt lat="48.69256" lon="7.2616">
        <ele>449.4</ele>
        <time>2020-05-26T16:59:28Z</time>
      </trkpt>
      <trkpt lat="48.69253" lon="7.26147">
        <ele>450.3</ele>
        <time>2020-05-26T16:59:26Z</time>
      </trkpt>
      <trkpt lat="48.6925" lon="7.26133">
        <ele>451.3</ele>
        <time>2020-05-26T16:59:24Z</time>
      </trkpt>
      <trkpt lat="48.69247" lon="7.2612">
        <ele>452.3</ele>
        <time>2020-05-26T16:59:22Z</time>
      </trkpt>
      <trkpt lat="48.69246" lon="7.26108">
        <ele>453.2</ele>
        <time>2020-05-26T16:59:20Z</time>
      </trkpt>
      <trkpt lat="48.69244" lon="7.26094">
        <ele>453.7</ele>
        <time>2020-05-26T16:59:18Z</time>
      </trkpt>
      <trkpt lat="48.69243" lon="7.26078">
        <ele>454.5</ele>
        <time>2020-05-26T16:59:16Z</time>
      </trkpt>
      <trkpt lat="48.6924" lon="7.26063">
        <ele>455.2</ele>
        <time>2020-05-26T16:59:14Z</time>
      </trkpt>
      <trkpt lat="48.69237" lon="7.26046">
        <ele>456.2</ele>
        <time>2020-05-26T16:59:12Z</time>
      </trkpt>
      <trkpt lat="48.69234" lon="7.26028">
        <ele>456.7</ele>
        <time>2020-05-26T16:59:10Z</time>
      </trkpt>
      <trkpt lat="48.69233" lon="7.26011">
        <ele>457.6</ele>
        <time>2020-05-26T16:59:08Z</time>
      </trkpt>
      <trkpt lat="48.69229" lon="7.25998">
        <ele>458.8</ele>
        <time>2020-05-26T16:59:06Z</time>
      </trkpt>
      <trkpt lat="48.69224" lon="7.25991">
        <ele>459.9</ele>
        <time>2020-05-26T16:59:04Z</time>
      </trkpt>
      <trkpt lat="48.6922" lon="7.25984">
        <ele>459.7</ele>
        <time>2020-05-26T16:59:02Z</time>
      </trkpt>
      <trkpt lat="48.69216" lon="7.25975">
        <ele>460</ele>
        <time>2020-05-26T16:58:59Z</time>
      </trkpt>
      <trkpt lat="48.69214" lon="7.25969">
        <ele>463.9</ele>
        <time>2020-05-26T16:58:50Z</time>
      </trkpt>
      <trkpt lat="48.69212" lon="7.25962">
        <ele>464.9</ele>
        <time>2020-05-26T16:58:44Z</time>
      </trkpt>
      <trkpt lat="48.6921" lon="7.25955">
        <ele>460</ele>
        <time>2020-05-26T16:58:23Z</time>
      </trkpt>
      <trkpt lat="48.69206" lon="7.25952">
        <ele>459.6</ele>
        <time>2020-05-26T16:58:18Z</time>
      </trkpt>
      <trkpt lat="48.69202" lon="7.25946">
        <ele>460</ele>
        <time>2020-05-26T16:58:16Z</time>
      </trkpt>
      <trkpt lat="48.69198" lon="7.25933">
        <ele>461.2</ele>
        <time>2020-05-26T16:58:13Z</time>
      </trkpt>
      <trkpt lat="48.69197" lon="7.25925">
        <ele>462.4</ele>
        <time>2020-05-26T16:58:11Z</time>
      </trkpt>
      <trkpt lat="48.69194" lon="7.25919">
        <ele>462.8</ele>
        <time>2020-05-26T16:58:09Z</time>
      </trkpt>
      <trkpt lat="48.69186" lon="7.25906">
        <ele>464.6</ele>
        <time>2020-05-26T16:58:06Z</time>
      </trkpt>
      <trkpt lat="48.69179" lon="7.25898">
        <ele>465.4</ele>
        <time>2020-05-26T16:58:04Z</time>
      </trkpt>
      <trkpt lat="48.69173" lon="7.2589">
        <ele>466.9</ele>
        <time>2020-05-26T16:58:02Z</time>
      </trkpt>
      <trkpt lat="48.69168" lon="7.25883">
        <ele>468.1</ele>
        <time>2020-05-26T16:58:00Z</time>
      </trkpt>
      <trkpt lat="48.69167" lon="7.25876">
        <ele>470.1</ele>
        <time>2020-05-26T16:57:52Z</time>
      </trkpt>
      <trkpt lat="48.69164" lon="7.25871">
        <ele>473.1</ele>
        <time>2020-05-26T16:57:37Z</time>
      </trkpt>
      <trkpt lat="48.6916" lon="7.25867">
        <ele>471.3</ele>
        <time>2020-05-26T16:57:24Z</time>
      </trkpt>
      <trkpt lat="48.69156" lon="7.25861">
        <ele>470.3</ele>
        <time>2020-05-26T16:57:15Z</time>
      </trkpt>
      <trkpt lat="48.69152" lon="7.25856">
        <ele>470.5</ele>
        <time>2020-05-26T16:57:12Z</time>
      </trkpt>
      <trkpt lat="48.69147" lon="7.25848">
        <ele>471</ele>
        <time>2020-05-26T16:57:10Z</time>
      </trkpt>
      <trkpt lat="48.69142" lon="7.25836">
        <ele>471.9</ele>
        <time>2020-05-26T16:57:08Z</time>
      </trkpt>
      <trkpt lat="48.69134" lon="7.25825">
        <ele>472.2</ele>
        <time>2020-05-26T16:57:06Z</time>
      </trkpt>
      <trkpt lat="48.69125" lon="7.25815">
        <ele>472.4</ele>
        <time>2020-05-26T16:57:04Z</time>
      </trkpt>
      <trkpt lat="48.69114" lon="7.25806">
        <ele>472.1</ele>
        <time>2020-05-26T16:57:02Z</time>
      </trkpt>
      <trkpt lat="48.69105" lon="7.25801">
        <ele>472.6</ele>
        <time>2020-05-26T16:57:00Z</time>
      </trkpt>
      <trkpt lat="48.69101" lon="7.25796">
        <ele>472.6</ele>
        <time>2020-05-26T16:56:58Z</time>
      </trkpt>
      <trkpt lat="48.69097" lon="7.25792">
        <ele>473.3</ele>
        <time>2020-05-26T16:56:55Z</time>
      </trkpt>
      <trkpt lat="48.69092" lon="7.25788">
        <ele>474.8</ele>
        <time>2020-05-26T16:56:52Z</time>
      </trkpt>
      <trkpt lat="48.69087" lon="7.25784">
        <ele>476.6</ele>
        <time>2020-05-26T16:56:49Z</time>
      </trkpt>
      <trkpt lat="48.69084" lon="7.25776">
        <ele>481</ele>
        <time>2020-05-26T16:56:40Z</time>
      </trkpt>
      <trkpt lat="48.69084" lon="7.25776">
        <ele>481</ele>
        <time>2020-05-26T16:56:40Z</time>
      </trkpt>
    </trkseg>
  </trk>
</gpx>